<?xml version="1.0" encoding="UTF-8" standalone="no" ?>
<gpx xmlns="http://www.topografix.com/GPX/1/1" xmlns:xsi="http://www.w3.org/2001/XMLSchema-instance" xsi:schemaLocation="http://www.topografix.com/GPX/1/1 http://www.topografix.com/GPX/1/1/gpx.xsd" version="1.1" creator="VisuGPX - https://www.visugpx.com">
  <metadata>
    <name>Tour Meygal</name>
    <desc><![CDATA[grp_trc:Mézenc]]></desc>
  </metadata>
  <trk>
    <name><![CDATA[Le Tour du Meygal Le Testavoyre 14 kms]]></name>
    <cmt><![CDATA[12:49:03]]></cmt>
    <desc><![CDATA[<html dir="ltr"><head></head><body contenteditable="true">comment ...</body></html>]]></desc>
    <trkseg>
      <trkpt lat="45.07262" lon="4.12869">
        <ele>1247</ele>
        <time>2022-04-24T10:49:03Z</time>
      </trkpt>
      <trkpt lat="45.07201" lon="4.12853">
        <ele>1249</ele>
      </trkpt>
      <trkpt lat="45.07139" lon="4.12836">
        <ele>1253</ele>
      </trkpt>
      <trkpt lat="45.07078" lon="4.1282">
        <ele>1256</ele>
      </trkpt>
      <trkpt lat="45.07016" lon="4.12804">
        <ele>1260</ele>
        <time>2022-04-24T10:49:03Z</time>
      </trkpt>
      <trkpt lat="45.06963" lon="4.12818">
        <ele>1264</ele>
      </trkpt>
      <trkpt lat="45.06909" lon="4.12832">
        <ele>1267</ele>
        <time>2022-04-24T10:49:03Z</time>
      </trkpt>
      <trkpt lat="45.06849" lon="4.1281">
        <ele>1269</ele>
      </trkpt>
      <trkpt lat="45.06789" lon="4.12788">
        <ele>1270</ele>
        <time>2022-04-24T10:49:03Z</time>
      </trkpt>
      <trkpt lat="45.06785" lon="4.12777">
        <ele>1270</ele>
        <time>2022-04-24T10:49:03Z</time>
      </trkpt>
      <trkpt lat="45.06708" lon="4.12716">
        <ele>1269</ele>
        <time>2022-04-24T10:49:03Z</time>
      </trkpt>
      <trkpt lat="45.06698" lon="4.12695">
        <ele>1268</ele>
        <time>2022-04-24T10:49:03Z</time>
      </trkpt>
      <trkpt lat="45.06697" lon="4.12663">
        <ele>1267</ele>
        <time>2022-04-24T10:49:03Z</time>
      </trkpt>
      <trkpt lat="45.06672" lon="4.12656">
        <ele>1266</ele>
        <time>2022-04-24T10:49:03Z</time>
      </trkpt>
      <trkpt lat="45.06656" lon="4.12644">
        <ele>1265</ele>
        <time>2022-04-24T10:49:03Z</time>
      </trkpt>
      <trkpt lat="45.06644" lon="4.12616">
        <ele>1263</ele>
        <time>2022-04-24T10:49:03Z</time>
      </trkpt>
      <trkpt lat="45.06644" lon="4.12577">
        <ele>1262</ele>
        <time>2022-04-24T10:49:03Z</time>
      </trkpt>
      <trkpt lat="45.06605" lon="4.12476">
        <ele>1258</ele>
        <time>2022-04-24T10:49:03Z</time>
      </trkpt>
      <trkpt lat="45.0658" lon="4.12455">
        <ele>1256</ele>
        <time>2022-04-24T10:49:03Z</time>
      </trkpt>
      <trkpt lat="45.06552" lon="4.12444">
        <ele>1253</ele>
        <time>2022-04-24T10:49:03Z</time>
      </trkpt>
      <trkpt lat="45.06543" lon="4.12431">
        <ele>1251</ele>
        <time>2022-04-24T10:49:03Z</time>
      </trkpt>
      <trkpt lat="45.06521" lon="4.12421">
        <ele>1250</ele>
        <time>2022-04-24T10:49:03Z</time>
      </trkpt>
      <trkpt lat="45.06484" lon="4.12371">
        <ele>1247</ele>
        <time>2022-04-24T10:49:03Z</time>
      </trkpt>
      <trkpt lat="45.06478" lon="4.12345">
        <ele>1244</ele>
        <time>2022-04-24T10:49:03Z</time>
      </trkpt>
      <trkpt lat="45.06478" lon="4.12317">
        <ele>1242</ele>
        <time>2022-04-24T10:49:03Z</time>
      </trkpt>
      <trkpt lat="45.06444" lon="4.12268">
        <ele>1239</ele>
      </trkpt>
      <trkpt lat="45.06409" lon="4.12218">
        <ele>1234</ele>
        <time>2022-04-24T10:49:03Z</time>
      </trkpt>
      <trkpt lat="45.06372" lon="4.12138">
        <ele>1226</ele>
      </trkpt>
      <trkpt lat="45.06334" lon="4.12058">
        <ele>1217</ele>
        <time>2022-04-24T10:49:03Z</time>
      </trkpt>
      <trkpt lat="45.06328" lon="4.11994">
        <ele>1209</ele>
        <time>2022-04-24T10:49:03Z</time>
      </trkpt>
      <trkpt lat="45.0631" lon="4.11949">
        <ele>1202</ele>
        <time>2022-04-24T10:49:03Z</time>
      </trkpt>
      <trkpt lat="45.06298" lon="4.11859">
        <ele>1193</ele>
        <time>2022-04-24T10:49:03Z</time>
      </trkpt>
      <trkpt lat="45.06249" lon="4.11835">
        <ele>1186</ele>
      </trkpt>
      <trkpt lat="45.062" lon="4.11811">
        <ele>1179</ele>
        <time>2022-04-24T10:49:03Z</time>
      </trkpt>
      <trkpt lat="45.06173" lon="4.11782">
        <ele>1174</ele>
        <time>2022-04-24T10:49:03Z</time>
      </trkpt>
      <trkpt lat="45.06171" lon="4.11748">
        <ele>1170</ele>
        <time>2022-04-24T10:49:03Z</time>
      </trkpt>
      <trkpt lat="45.06162" lon="4.11734">
        <ele>1167</ele>
        <time>2022-04-24T10:49:03Z</time>
      </trkpt>
      <trkpt lat="45.0616" lon="4.11616">
        <ele>1161</ele>
        <time>2022-04-24T10:49:03Z</time>
      </trkpt>
      <trkpt lat="45.06129" lon="4.11512">
        <ele>1155</ele>
      </trkpt>
      <trkpt lat="45.06098" lon="4.11408">
        <ele>1151</ele>
        <time>2022-04-24T10:49:03Z</time>
      </trkpt>
      <trkpt lat="45.06098" lon="4.11332">
        <ele>1148</ele>
      </trkpt>
      <trkpt lat="45.06097" lon="4.11257">
        <ele>1144</ele>
        <time>2022-04-24T10:49:03Z</time>
      </trkpt>
      <trkpt lat="45.06089" lon="4.11217">
        <ele>1142</ele>
        <time>2022-04-24T10:49:03Z</time>
      </trkpt>
      <trkpt lat="45.06054" lon="4.11119">
        <ele>1138</ele>
        <time>2022-04-24T10:49:03Z</time>
      </trkpt>
      <trkpt lat="45.06016" lon="4.11062">
        <ele>1135</ele>
      </trkpt>
      <trkpt lat="45.05978" lon="4.11004">
        <ele>1129</ele>
        <time>2022-04-24T10:49:03Z</time>
      </trkpt>
      <trkpt lat="45.05944" lon="4.10967">
        <ele>1123</ele>
        <time>2022-04-24T10:49:03Z</time>
      </trkpt>
      <trkpt lat="45.05902" lon="4.10943">
        <ele>1118</ele>
        <time>2022-04-24T10:49:03Z</time>
      </trkpt>
      <trkpt lat="45.0585" lon="4.10933">
        <ele>1112</ele>
      </trkpt>
      <trkpt lat="45.05798" lon="4.10922">
        <ele>1106</ele>
        <time>2022-04-24T10:49:03Z</time>
      </trkpt>
      <trkpt lat="45.05747" lon="4.10935">
        <ele>1099</ele>
        <time>2022-04-24T10:49:03Z</time>
      </trkpt>
      <trkpt lat="45.05751" lon="4.10922">
        <ele>1095</ele>
        <time>2022-04-24T10:49:03Z</time>
      </trkpt>
      <trkpt lat="45.05785" lon="4.10877">
        <ele>1091</ele>
        <time>2022-04-24T10:49:03Z</time>
      </trkpt>
      <trkpt lat="45.05854" lon="4.1083">
        <ele>1085</ele>
        <time>2022-04-24T10:49:03Z</time>
      </trkpt>
      <trkpt lat="45.05922" lon="4.10804">
        <ele>1080</ele>
        <time>2022-04-24T10:49:03Z</time>
      </trkpt>
      <trkpt lat="45.05929" lon="4.10757">
        <ele>1076</ele>
        <time>2022-04-24T10:49:03Z</time>
      </trkpt>
      <trkpt lat="45.05869" lon="4.10763">
        <ele>1073</ele>
        <time>2022-04-24T10:49:03Z</time>
      </trkpt>
      <trkpt lat="45.0588" lon="4.10679">
        <ele>1068</ele>
        <time>2022-04-24T10:49:03Z</time>
      </trkpt>
      <trkpt lat="45.05877" lon="4.10655">
        <ele>1064</ele>
        <time>2022-04-24T10:49:03Z</time>
      </trkpt>
      <trkpt lat="45.05868" lon="4.10632">
        <ele>1062</ele>
        <time>2022-04-24T10:49:03Z</time>
      </trkpt>
      <trkpt lat="45.05848" lon="4.10616">
        <ele>1059</ele>
        <time>2022-04-24T10:49:03Z</time>
      </trkpt>
      <trkpt lat="45.05824" lon="4.10615">
        <ele>1056</ele>
        <time>2022-04-24T10:49:03Z</time>
      </trkpt>
      <trkpt lat="45.05752" lon="4.10684">
        <ele>1051</ele>
        <time>2022-04-24T10:49:03Z</time>
      </trkpt>
      <trkpt lat="45.05722" lon="4.1069">
        <ele>1050</ele>
        <time>2022-04-24T10:49:03Z</time>
      </trkpt>
      <trkpt lat="45.05685" lon="4.1073">
        <ele>1050</ele>
        <time>2022-04-24T10:49:03Z</time>
      </trkpt>
      <trkpt lat="45.05654" lon="4.1074">
        <ele>1050</ele>
        <time>2022-04-24T10:49:03Z</time>
      </trkpt>
      <trkpt lat="45.05623" lon="4.10761">
        <ele>1051</ele>
        <time>2022-04-24T10:49:03Z</time>
      </trkpt>
      <trkpt lat="45.05616" lon="4.10774">
        <ele>1051</ele>
        <time>2022-04-24T10:49:03Z</time>
      </trkpt>
      <trkpt lat="45.056" lon="4.10874">
        <ele>1052</ele>
      </trkpt>
      <trkpt lat="45.05584" lon="4.10974">
        <ele>1055</ele>
        <time>2022-04-24T10:49:03Z</time>
      </trkpt>
      <trkpt lat="45.05569" lon="4.11002">
        <ele>1057</ele>
        <time>2022-04-24T10:49:03Z</time>
      </trkpt>
      <trkpt lat="45.05542" lon="4.11025">
        <ele>1059</ele>
        <time>2022-04-24T10:49:03Z</time>
      </trkpt>
      <trkpt lat="45.05532" lon="4.11063">
        <ele>1061</ele>
        <time>2022-04-24T10:49:03Z</time>
      </trkpt>
      <trkpt lat="45.05511" lon="4.11081">
        <ele>1063</ele>
        <time>2022-04-24T10:49:03Z</time>
      </trkpt>
      <trkpt lat="45.05493" lon="4.11127">
        <ele>1065</ele>
        <time>2022-04-24T10:49:03Z</time>
      </trkpt>
      <trkpt lat="45.05468" lon="4.11153">
        <ele>1067</ele>
        <time>2022-04-24T10:49:03Z</time>
      </trkpt>
      <trkpt lat="45.05431" lon="4.11239">
        <ele>1070</ele>
        <time>2022-04-24T10:49:03Z</time>
      </trkpt>
      <trkpt lat="45.05366" lon="4.11262">
        <ele>1074</ele>
        <time>2022-04-24T10:49:03Z</time>
      </trkpt>
      <trkpt lat="45.05317" lon="4.11304">
        <ele>1077</ele>
      </trkpt>
      <trkpt lat="45.05268" lon="4.11346">
        <ele>1080</ele>
        <time>2022-04-24T10:49:03Z</time>
      </trkpt>
      <trkpt lat="45.05241" lon="4.11353">
        <ele>1082</ele>
        <time>2022-04-24T10:49:03Z</time>
      </trkpt>
      <trkpt lat="45.05216" lon="4.11383">
        <ele>1084</ele>
        <time>2022-04-24T10:49:03Z</time>
      </trkpt>
      <trkpt lat="45.05203" lon="4.1139">
        <ele>1086</ele>
        <time>2022-04-24T10:49:03Z</time>
      </trkpt>
      <trkpt lat="45.05194" lon="4.11376">
        <ele>1087</ele>
        <time>2022-04-24T10:49:03Z</time>
      </trkpt>
      <trkpt lat="45.05187" lon="4.11271">
        <ele>1087</ele>
      </trkpt>
      <trkpt lat="45.05179" lon="4.11166">
        <ele>1087</ele>
        <time>2022-04-24T10:49:03Z</time>
      </trkpt>
      <trkpt lat="45.05146" lon="4.11079">
        <ele>1088</ele>
      </trkpt>
      <trkpt lat="45.05112" lon="4.10992">
        <ele>1088</ele>
        <time>2022-04-24T10:49:03Z</time>
      </trkpt>
      <trkpt lat="45.05097" lon="4.10978">
        <ele>1089</ele>
        <time>2022-04-24T10:49:03Z</time>
      </trkpt>
      <trkpt lat="45.05076" lon="4.10933">
        <ele>1089</ele>
        <time>2022-04-24T10:49:03Z</time>
      </trkpt>
      <trkpt lat="45.05063" lon="4.10919">
        <ele>1089</ele>
        <time>2022-04-24T10:49:03Z</time>
      </trkpt>
      <trkpt lat="45.05032" lon="4.10911">
        <ele>1090</ele>
        <time>2022-04-24T10:49:03Z</time>
      </trkpt>
      <trkpt lat="45.05015" lon="4.10877">
        <ele>1089</ele>
        <time>2022-04-24T10:49:03Z</time>
      </trkpt>
      <trkpt lat="45.04987" lon="4.10846">
        <ele>1088</ele>
        <time>2022-04-24T10:49:03Z</time>
      </trkpt>
      <trkpt lat="45.04946" lon="4.10822">
        <ele>1086</ele>
      </trkpt>
      <trkpt lat="45.04905" lon="4.10797">
        <ele>1084</ele>
        <time>2022-04-24T10:49:03Z</time>
      </trkpt>
      <trkpt lat="45.04843" lon="4.10724">
        <ele>1082</ele>
      </trkpt>
      <trkpt lat="45.04781" lon="4.10652">
        <ele>1082</ele>
        <time>2022-04-24T10:49:03Z</time>
      </trkpt>
      <trkpt lat="45.04764" lon="4.10604">
        <ele>1083</ele>
        <time>2022-04-24T10:49:03Z</time>
      </trkpt>
      <trkpt lat="45.04756" lon="4.10592">
        <ele>1084</ele>
        <time>2022-04-24T10:49:03Z</time>
      </trkpt>
      <trkpt lat="45.04681" lon="4.10577">
        <ele>1087</ele>
        <time>2022-04-24T10:49:03Z</time>
      </trkpt>
      <trkpt lat="45.04625" lon="4.10595">
        <ele>1090</ele>
      </trkpt>
      <trkpt lat="45.04569" lon="4.10613">
        <ele>1095</ele>
        <time>2022-04-24T10:49:03Z</time>
      </trkpt>
      <trkpt lat="45.04532" lon="4.10643">
        <ele>1100</ele>
      </trkpt>
      <trkpt lat="45.04495" lon="4.10673">
        <ele>1105</ele>
        <time>2022-04-24T10:49:03Z</time>
      </trkpt>
      <trkpt lat="45.04443" lon="4.1069">
        <ele>1110</ele>
      </trkpt>
      <trkpt lat="45.04391" lon="4.10707">
        <ele>1117</ele>
      </trkpt>
      <trkpt lat="45.04338" lon="4.10724">
        <ele>1124</ele>
      </trkpt>
      <trkpt lat="45.04286" lon="4.10741">
        <ele>1131</ele>
        <time>2022-04-24T10:49:03Z</time>
      </trkpt>
      <trkpt lat="45.04258" lon="4.10762">
        <ele>1137</ele>
        <time>2022-04-24T10:49:03Z</time>
      </trkpt>
      <trkpt lat="45.04211" lon="4.10821">
        <ele>1144</ele>
      </trkpt>
      <trkpt lat="45.04163" lon="4.1088">
        <ele>1151</ele>
        <time>2022-04-24T10:49:03Z</time>
      </trkpt>
      <trkpt lat="45.04146" lon="4.10889">
        <ele>1156</ele>
        <time>2022-04-24T10:49:03Z</time>
      </trkpt>
      <trkpt lat="45.04124" lon="4.10871">
        <ele>1161</ele>
        <time>2022-04-24T10:49:03Z</time>
      </trkpt>
      <trkpt lat="45.04083" lon="4.10865">
        <ele>1165</ele>
      </trkpt>
      <trkpt lat="45.04041" lon="4.10858">
        <ele>1168</ele>
      </trkpt>
      <trkpt lat="45.04" lon="4.10852">
        <ele>1171</ele>
      </trkpt>
      <trkpt lat="45.03958" lon="4.10846">
        <ele>1174</ele>
        <time>2022-04-24T10:49:03Z</time>
      </trkpt>
      <trkpt lat="45.03926" lon="4.10858">
        <ele>1177</ele>
        <time>2022-04-24T10:49:03Z</time>
      </trkpt>
      <trkpt lat="45.03874" lon="4.10887">
        <ele>1180</ele>
      </trkpt>
      <trkpt lat="45.03821" lon="4.10916">
        <ele>1184</ele>
        <time>2022-04-24T10:49:03Z</time>
      </trkpt>
      <trkpt lat="45.03785" lon="4.1092">
        <ele>1188</ele>
        <time>2022-04-24T10:49:03Z</time>
      </trkpt>
      <trkpt lat="45.03741" lon="4.10955">
        <ele>1193</ele>
      </trkpt>
      <trkpt lat="45.03697" lon="4.10989">
        <ele>1197</ele>
        <time>2022-04-24T10:49:03Z</time>
      </trkpt>
      <trkpt lat="45.0363" lon="4.10975">
        <ele>1199</ele>
        <time>2022-04-24T10:49:03Z</time>
      </trkpt>
      <trkpt lat="45.03562" lon="4.11024">
        <ele>1202</ele>
      </trkpt>
      <trkpt lat="45.03494" lon="4.11073">
        <ele>1203</ele>
        <time>2022-04-24T10:49:03Z</time>
      </trkpt>
      <trkpt lat="45.03476" lon="4.11104">
        <ele>1205</ele>
        <time>2022-04-24T10:49:03Z</time>
      </trkpt>
      <trkpt lat="45.03417" lon="4.11149">
        <ele>1207</ele>
      </trkpt>
      <trkpt lat="45.03358" lon="4.11195">
        <ele>1209</ele>
        <time>2022-04-24T10:49:03Z</time>
      </trkpt>
      <trkpt lat="45.03352" lon="4.1123">
        <ele>1211</ele>
        <time>2022-04-24T10:49:03Z</time>
      </trkpt>
      <trkpt lat="45.03331" lon="4.11245">
        <ele>1217</ele>
        <time>2022-04-24T10:49:03Z</time>
      </trkpt>
      <trkpt lat="45.03298" lon="4.11304">
        <ele>1216</ele>
        <time>2022-04-24T10:49:03Z</time>
      </trkpt>
      <trkpt lat="45.03263" lon="4.11332">
        <ele>1216</ele>
        <time>2022-04-24T10:49:03Z</time>
      </trkpt>
      <trkpt lat="45.03233" lon="4.11445">
        <ele>1217</ele>
      </trkpt>
      <trkpt lat="45.03202" lon="4.11557">
        <ele>1217</ele>
        <time>2022-04-24T10:49:03Z</time>
      </trkpt>
      <trkpt lat="45.03197" lon="4.1161">
        <ele>1217</ele>
        <time>2022-04-24T10:49:03Z</time>
      </trkpt>
      <trkpt lat="45.03178" lon="4.11645">
        <ele>1216</ele>
        <time>2022-04-24T10:49:03Z</time>
      </trkpt>
      <trkpt lat="45.03175" lon="4.11684">
        <ele>1216</ele>
        <time>2022-04-24T10:49:03Z</time>
      </trkpt>
      <trkpt lat="45.03194" lon="4.11693">
        <ele>1216</ele>
        <time>2022-04-24T10:49:03Z</time>
      </trkpt>
      <trkpt lat="45.0319" lon="4.11813">
        <ele>1217</ele>
        <time>2022-04-24T10:49:03Z</time>
      </trkpt>
      <trkpt lat="45.03219" lon="4.11852">
        <ele>1219</ele>
        <time>2022-04-24T10:49:03Z</time>
      </trkpt>
      <trkpt lat="45.03227" lon="4.11881">
        <ele>1221</ele>
        <time>2022-04-24T10:49:03Z</time>
      </trkpt>
      <trkpt lat="45.03241" lon="4.11899">
        <ele>1222</ele>
        <time>2022-04-24T10:49:03Z</time>
      </trkpt>
      <trkpt lat="45.03257" lon="4.11912">
        <ele>1224</ele>
        <time>2022-04-24T10:49:03Z</time>
      </trkpt>
      <trkpt lat="45.03278" lon="4.11914">
        <ele>1225</ele>
        <time>2022-04-24T10:49:03Z</time>
      </trkpt>
      <trkpt lat="45.0328" lon="4.11927">
        <ele>1227</ele>
        <time>2022-04-24T10:49:03Z</time>
      </trkpt>
      <trkpt lat="45.03279" lon="4.11952">
        <ele>1228</ele>
        <time>2022-04-24T10:49:03Z</time>
      </trkpt>
      <trkpt lat="45.03265" lon="4.11979">
        <ele>1228</ele>
        <time>2022-04-24T10:49:03Z</time>
      </trkpt>
      <trkpt lat="45.03267" lon="4.12007">
        <ele>1228</ele>
        <time>2022-04-24T10:49:03Z</time>
      </trkpt>
      <trkpt lat="45.03284" lon="4.12048">
        <ele>1229</ele>
        <time>2022-04-24T10:49:03Z</time>
      </trkpt>
      <trkpt lat="45.03263" lon="4.12091">
        <ele>1228</ele>
        <time>2022-04-24T10:49:03Z</time>
      </trkpt>
      <trkpt lat="45.03226" lon="4.12131">
        <ele>1226</ele>
        <time>2022-04-24T10:49:03Z</time>
      </trkpt>
      <trkpt lat="45.0321" lon="4.12174">
        <ele>1224</ele>
        <time>2022-04-24T10:49:03Z</time>
      </trkpt>
      <trkpt lat="45.03194" lon="4.12197">
        <ele>1222</ele>
        <time>2022-04-24T10:49:03Z</time>
      </trkpt>
      <trkpt lat="45.03243" lon="4.12276">
        <ele>1220</ele>
        <time>2022-04-24T10:49:03Z</time>
      </trkpt>
      <trkpt lat="45.03282" lon="4.12298">
        <ele>1220</ele>
        <time>2022-04-24T10:49:03Z</time>
      </trkpt>
      <trkpt lat="45.03327" lon="4.12341">
        <ele>1220</ele>
        <time>2022-04-24T10:49:03Z</time>
      </trkpt>
      <trkpt lat="45.03337" lon="4.1237">
        <ele>1221</ele>
        <time>2022-04-24T10:49:03Z</time>
      </trkpt>
      <trkpt lat="45.03338" lon="4.124">
        <ele>1221</ele>
        <time>2022-04-24T10:49:03Z</time>
      </trkpt>
      <trkpt lat="45.03351" lon="4.12438">
        <ele>1222</ele>
        <time>2022-04-24T10:49:03Z</time>
      </trkpt>
      <trkpt lat="45.03367" lon="4.12466">
        <ele>1222</ele>
        <time>2022-04-24T10:49:03Z</time>
      </trkpt>
      <trkpt lat="45.03394" lon="4.12483">
        <ele>1223</ele>
        <time>2022-04-24T10:49:03Z</time>
      </trkpt>
      <trkpt lat="45.03408" lon="4.12483">
        <ele>1225</ele>
        <time>2022-04-24T10:49:03Z</time>
      </trkpt>
      <trkpt lat="45.03429" lon="4.125">
        <ele>1226</ele>
        <time>2022-04-24T10:49:03Z</time>
      </trkpt>
      <trkpt lat="45.03455" lon="4.12556">
        <ele>1227</ele>
        <time>2022-04-24T10:49:03Z</time>
      </trkpt>
      <trkpt lat="45.03499" lon="4.12584">
        <ele>1229</ele>
        <time>2022-04-24T10:49:03Z</time>
      </trkpt>
      <trkpt lat="45.03557" lon="4.12697">
        <ele>1232</ele>
        <time>2022-04-24T10:49:03Z</time>
      </trkpt>
      <trkpt lat="45.03616" lon="4.12734">
        <ele>1236</ele>
        <time>2022-04-24T10:49:03Z</time>
      </trkpt>
      <trkpt lat="45.03712" lon="4.12851">
        <ele>1242</ele>
      </trkpt>
      <trkpt lat="45.03807" lon="4.12969">
        <ele>1252</ele>
        <time>2022-04-24T10:49:03Z</time>
      </trkpt>
      <trkpt lat="45.03867" lon="4.12996">
        <ele>1261</ele>
        <time>2022-04-24T10:49:03Z</time>
      </trkpt>
      <trkpt lat="45.03962" lon="4.12991">
        <ele>1271</ele>
        <time>2022-04-24T10:49:03Z</time>
      </trkpt>
      <trkpt lat="45.04043" lon="4.12995">
        <ele>1282</ele>
      </trkpt>
      <trkpt lat="45.04124" lon="4.12998">
        <ele>1291</ele>
        <time>2022-04-24T10:49:03Z</time>
      </trkpt>
      <trkpt lat="45.04123" lon="4.13022">
        <ele>1297</ele>
        <time>2022-04-24T10:49:03Z</time>
      </trkpt>
      <trkpt lat="45.04144" lon="4.13025">
        <ele>1301</ele>
        <time>2022-04-24T10:49:03Z</time>
      </trkpt>
      <trkpt lat="45.04185" lon="4.13092">
        <ele>1306</ele>
        <time>2022-04-24T10:49:03Z</time>
      </trkpt>
      <trkpt lat="45.04197" lon="4.13072">
        <ele>1310</ele>
        <time>2022-04-24T10:49:03Z</time>
      </trkpt>
      <trkpt lat="45.0421" lon="4.13058">
        <ele>1313</ele>
        <time>2022-04-24T10:49:03Z</time>
      </trkpt>
      <trkpt lat="45.043" lon="4.1307">
        <ele>1319</ele>
        <time>2022-04-24T10:49:03Z</time>
      </trkpt>
      <trkpt lat="45.04328" lon="4.13092">
        <ele>1324</ele>
        <time>2022-04-24T10:49:03Z</time>
      </trkpt>
      <trkpt lat="45.04346" lon="4.13126">
        <ele>1327</ele>
        <time>2022-04-24T10:49:03Z</time>
      </trkpt>
      <trkpt lat="45.04447" lon="4.13099">
        <ele>1331</ele>
        <time>2022-04-24T10:49:03Z</time>
      </trkpt>
      <trkpt lat="45.04504" lon="4.13104">
        <ele>1344</ele>
        <time>2022-04-24T10:49:03Z</time>
      </trkpt>
      <trkpt lat="45.04505" lon="4.13124">
        <ele>1345</ele>
        <time>2022-04-24T10:49:03Z</time>
      </trkpt>
      <trkpt lat="45.04534" lon="4.13183">
        <ele>1346</ele>
      </trkpt>
      <trkpt lat="45.04563" lon="4.13242">
        <ele>1348</ele>
        <time>2022-04-24T10:49:03Z</time>
      </trkpt>
      <trkpt lat="45.04567" lon="4.13326">
        <ele>1350</ele>
      </trkpt>
      <trkpt lat="45.0457" lon="4.13409">
        <ele>1352</ele>
        <time>2022-04-24T10:49:03Z</time>
      </trkpt>
      <trkpt lat="45.04592" lon="4.13509">
        <ele>1353</ele>
      </trkpt>
      <trkpt lat="45.04613" lon="4.1361">
        <ele>1354</ele>
        <time>2022-04-24T10:49:03Z</time>
      </trkpt>
      <trkpt lat="45.04615" lon="4.13672">
        <ele>1355</ele>
        <time>2022-04-24T10:49:03Z</time>
      </trkpt>
      <trkpt lat="45.04611" lon="4.13704">
        <ele>1355</ele>
        <time>2022-04-24T10:49:03Z</time>
      </trkpt>
      <trkpt lat="45.04614" lon="4.13735">
        <ele>1354</ele>
        <time>2022-04-24T10:49:03Z</time>
      </trkpt>
      <trkpt lat="45.04639" lon="4.13799">
        <ele>1354</ele>
      </trkpt>
      <trkpt lat="45.04664" lon="4.13864">
        <ele>1353</ele>
      </trkpt>
      <trkpt lat="45.04689" lon="4.13928">
        <ele>1351</ele>
      </trkpt>
      <trkpt lat="45.04714" lon="4.13993">
        <ele>1349</ele>
        <time>2022-04-24T10:49:03Z</time>
      </trkpt>
      <trkpt lat="45.04754" lon="4.14024">
        <ele>1346</ele>
        <time>2022-04-24T10:49:03Z</time>
      </trkpt>
      <trkpt lat="45.04795" lon="4.13953">
        <ele>1345</ele>
      </trkpt>
      <trkpt lat="45.04835" lon="4.13882">
        <ele>1344</ele>
        <time>2022-04-24T10:49:03Z</time>
      </trkpt>
      <trkpt lat="45.0488" lon="4.13789">
        <ele>1345</ele>
      </trkpt>
      <trkpt lat="45.04925" lon="4.13696">
        <ele>1348</ele>
        <time>2022-04-24T10:49:03Z</time>
      </trkpt>
      <trkpt lat="45.04957" lon="4.13661">
        <ele>1351</ele>
        <time>2022-04-24T10:49:03Z</time>
      </trkpt>
      <trkpt lat="45.05002" lon="4.13632">
        <ele>1354</ele>
        <time>2022-04-24T10:49:03Z</time>
      </trkpt>
      <trkpt lat="45.05026" lon="4.13606">
        <ele>1357</ele>
        <time>2022-04-24T10:49:03Z</time>
      </trkpt>
      <trkpt lat="45.05043" lon="4.13567">
        <ele>1359</ele>
        <time>2022-04-24T10:49:03Z</time>
      </trkpt>
      <trkpt lat="45.05062" lon="4.13466">
        <ele>1361</ele>
        <time>2022-04-24T10:49:03Z</time>
      </trkpt>
      <trkpt lat="45.05078" lon="4.13444">
        <ele>1361</ele>
        <time>2022-04-24T10:49:03Z</time>
      </trkpt>
      <trkpt lat="45.05115" lon="4.13423">
        <ele>1361</ele>
        <time>2022-04-24T10:49:03Z</time>
      </trkpt>
      <trkpt lat="45.05157" lon="4.13407">
        <ele>1361</ele>
      </trkpt>
      <trkpt lat="45.05199" lon="4.13391">
        <ele>1361</ele>
        <time>2022-04-24T10:49:03Z</time>
      </trkpt>
      <trkpt lat="45.05228" lon="4.1334">
        <ele>1362</ele>
      </trkpt>
      <trkpt lat="45.05257" lon="4.13288">
        <ele>1363</ele>
        <time>2022-04-24T10:49:03Z</time>
      </trkpt>
      <trkpt lat="45.05275" lon="4.13267">
        <ele>1364</ele>
        <time>2022-04-24T10:49:03Z</time>
      </trkpt>
      <trkpt lat="45.05303" lon="4.13272">
        <ele>1366</ele>
        <time>2022-04-24T10:49:03Z</time>
      </trkpt>
      <trkpt lat="45.0536" lon="4.13295">
        <ele>1369</ele>
        <time>2022-04-24T10:49:03Z</time>
      </trkpt>
      <trkpt lat="45.05392" lon="4.13296">
        <ele>1372</ele>
        <time>2022-04-24T10:49:03Z</time>
      </trkpt>
      <trkpt lat="45.05428" lon="4.13275">
        <ele>1376</ele>
        <time>2022-04-24T10:49:03Z</time>
      </trkpt>
      <trkpt lat="45.0545" lon="4.13252">
        <ele>1380</ele>
        <time>2022-04-24T10:49:03Z</time>
      </trkpt>
      <trkpt lat="45.05455" lon="4.13236">
        <ele>1384</ele>
        <time>2022-04-24T10:49:03Z</time>
      </trkpt>
      <trkpt lat="45.05446" lon="4.13209">
        <ele>1387</ele>
        <time>2022-04-24T10:49:03Z</time>
      </trkpt>
      <trkpt lat="45.05432" lon="4.13183">
        <ele>1390</ele>
        <time>2022-04-24T10:49:03Z</time>
      </trkpt>
      <trkpt lat="45.05436" lon="4.13154">
        <ele>1393</ele>
        <time>2022-04-24T10:49:03Z</time>
      </trkpt>
      <trkpt lat="45.05445" lon="4.13132">
        <ele>1396</ele>
        <time>2022-04-24T10:49:03Z</time>
      </trkpt>
      <trkpt lat="45.05445" lon="4.13121">
        <ele>1398</ele>
        <time>2022-04-24T10:49:03Z</time>
      </trkpt>
      <trkpt lat="45.0544" lon="4.13094">
        <ele>1401</ele>
        <time>2022-04-24T10:49:03Z</time>
      </trkpt>
      <trkpt lat="45.05445" lon="4.13078">
        <ele>1403</ele>
        <time>2022-04-24T10:49:03Z</time>
      </trkpt>
      <trkpt lat="45.05452" lon="4.13068">
        <ele>1406</ele>
        <time>2022-04-24T10:49:03Z</time>
      </trkpt>
      <trkpt lat="45.05457" lon="4.13039">
        <ele>1409</ele>
        <time>2022-04-24T10:49:03Z</time>
      </trkpt>
      <trkpt lat="45.05476" lon="4.13035">
        <ele>1413</ele>
        <time>2022-04-24T10:49:03Z</time>
      </trkpt>
      <trkpt lat="45.0549" lon="4.13047">
        <ele>1416</ele>
        <time>2022-04-24T10:49:03Z</time>
      </trkpt>
      <trkpt lat="45.05518" lon="4.13103">
        <ele>1418</ele>
      </trkpt>
      <trkpt lat="45.05545" lon="4.13159">
        <ele>1418</ele>
      </trkpt>
      <trkpt lat="45.05573" lon="4.13216">
        <ele>1414</ele>
      </trkpt>
      <trkpt lat="45.056" lon="4.13272">
        <ele>1411</ele>
        <time>2022-04-24T10:49:03Z</time>
      </trkpt>
      <trkpt lat="45.05624" lon="4.13263">
        <ele>1409</ele>
        <time>2022-04-24T10:49:03Z</time>
      </trkpt>
      <trkpt lat="45.05681" lon="4.13226">
        <ele>1404</ele>
        <time>2022-04-24T10:49:03Z</time>
      </trkpt>
      <trkpt lat="45.05704" lon="4.13182">
        <ele>1398</ele>
        <time>2022-04-24T10:49:03Z</time>
      </trkpt>
      <trkpt lat="45.05752" lon="4.13158">
        <ele>1388</ele>
      </trkpt>
      <trkpt lat="45.058" lon="4.13133">
        <ele>1377</ele>
        <time>2022-04-24T10:49:03Z</time>
      </trkpt>
      <trkpt lat="45.05865" lon="4.13195">
        <ele>1364</ele>
        <time>2022-04-24T10:49:03Z</time>
      </trkpt>
      <trkpt lat="45.05907" lon="4.13207">
        <ele>1355</ele>
      </trkpt>
      <trkpt lat="45.05948" lon="4.13218">
        <ele>1348</ele>
        <time>2022-04-24T10:49:03Z</time>
      </trkpt>
      <trkpt lat="45.06026" lon="4.13261">
        <ele>1339</ele>
        <time>2022-04-24T10:49:03Z</time>
      </trkpt>
      <trkpt lat="45.06054" lon="4.13288">
        <ele>1333</ele>
        <time>2022-04-24T10:49:03Z</time>
      </trkpt>
      <trkpt lat="45.06065" lon="4.13305">
        <ele>1329</ele>
        <time>2022-04-24T10:49:03Z</time>
      </trkpt>
      <trkpt lat="45.06078" lon="4.13343">
        <ele>1325</ele>
        <time>2022-04-24T10:49:03Z</time>
      </trkpt>
      <trkpt lat="45.06132" lon="4.13318">
        <ele>1321</ele>
      </trkpt>
      <trkpt lat="45.06187" lon="4.13292">
        <ele>1315</ele>
      </trkpt>
      <trkpt lat="45.06241" lon="4.13267">
        <ele>1310</ele>
      </trkpt>
      <trkpt lat="45.06295" lon="4.13242">
        <ele>1305</ele>
      </trkpt>
      <trkpt lat="45.06349" lon="4.13216">
        <ele>1300</ele>
      </trkpt>
      <trkpt lat="45.06404" lon="4.13191">
        <ele>1297</ele>
      </trkpt>
      <trkpt lat="45.06458" lon="4.13166">
        <ele>1294</ele>
      </trkpt>
      <trkpt lat="45.06512" lon="4.13141">
        <ele>1291</ele>
      </trkpt>
      <trkpt lat="45.06566" lon="4.13115">
        <ele>1290</ele>
      </trkpt>
      <trkpt lat="45.06621" lon="4.1309">
        <ele>1289</ele>
      </trkpt>
      <trkpt lat="45.06675" lon="4.13065">
        <ele>1288</ele>
      </trkpt>
      <trkpt lat="45.06729" lon="4.13039">
        <ele>1288</ele>
      </trkpt>
      <trkpt lat="45.06783" lon="4.13014">
        <ele>1287</ele>
      </trkpt>
      <trkpt lat="45.06838" lon="4.12989">
        <ele>1286</ele>
      </trkpt>
      <trkpt lat="45.06892" lon="4.12963">
        <ele>1285</ele>
      </trkpt>
      <trkpt lat="45.06946" lon="4.12938">
        <ele>1283</ele>
        <time>2022-04-24T10:49:03Z</time>
      </trkpt>
      <trkpt lat="45.07008" lon="4.12929">
        <ele>1281</ele>
      </trkpt>
      <trkpt lat="45.0707" lon="4.1292">
        <ele>1277</ele>
      </trkpt>
      <trkpt lat="45.07131" lon="4.1291">
        <ele>1273</ele>
      </trkpt>
      <trkpt lat="45.07193" lon="4.12901">
        <ele>1268</ele>
        <time>2022-04-24T10:49:03Z</time>
      </trkpt>
      <trkpt lat="45.07266" lon="4.12877">
        <ele>1262</ele>
        <time>2022-04-24T10:49:03Z</time>
      </trkpt>
    </trkseg>
  </trk>
  <trk>
    <name><![CDATA[5_Sucs depuis Prébois 10,5kms]]></name>
    <cmt><![CDATA[16:25:18]]></cmt>
    <desc><![CDATA[<html dir="ltr"><head></head><body contenteditable="true">comment ...</body></html>]]></desc>
    <trkseg>
      <trkpt lat="44.85346" lon="4.15691">
        <ele>1433</ele>
        <time>2022-05-08T14:25:18Z</time>
      </trkpt>
      <trkpt lat="44.85346" lon="4.15691">
        <ele>1433</ele>
        <time>2022-05-08T14:25:18Z</time>
      </trkpt>
      <trkpt lat="44.85346" lon="4.15691">
        <ele>1433</ele>
        <time>2022-05-08T14:25:18Z</time>
      </trkpt>
      <trkpt lat="44.85318" lon="4.15728">
        <ele>1433</ele>
        <time>2022-05-08T14:25:18Z</time>
      </trkpt>
      <trkpt lat="44.85306" lon="4.15753">
        <ele>1433</ele>
        <time>2022-05-08T14:25:18Z</time>
      </trkpt>
      <trkpt lat="44.85295" lon="4.15799">
        <ele>1434</ele>
        <time>2022-05-08T14:25:18Z</time>
      </trkpt>
      <trkpt lat="44.85298" lon="4.15811">
        <ele>1435</ele>
        <time>2022-05-08T14:25:18Z</time>
      </trkpt>
      <trkpt lat="44.8531" lon="4.15825">
        <ele>1436</ele>
        <time>2022-05-08T14:25:18Z</time>
      </trkpt>
      <trkpt lat="44.8531" lon="4.1588">
        <ele>1437</ele>
        <time>2022-05-08T14:25:18Z</time>
      </trkpt>
      <trkpt lat="44.8531" lon="4.1588">
        <ele>1443</ele>
        <time>2022-05-08T14:25:18Z</time>
      </trkpt>
      <trkpt lat="44.85309" lon="4.15904">
        <ele>1442</ele>
        <time>2022-05-08T14:25:18Z</time>
      </trkpt>
      <trkpt lat="44.85298" lon="4.15923">
        <ele>1443</ele>
        <time>2022-05-08T14:25:18Z</time>
      </trkpt>
      <trkpt lat="44.85239" lon="4.15961">
        <ele>1445</ele>
        <time>2022-05-08T14:25:18Z</time>
      </trkpt>
      <trkpt lat="44.85092" lon="4.16329">
        <ele>1453</ele>
        <time>2022-05-08T14:25:18Z</time>
      </trkpt>
      <trkpt lat="44.85084" lon="4.1634">
        <ele>1457</ele>
        <time>2022-05-08T14:25:18Z</time>
      </trkpt>
      <trkpt lat="44.8508" lon="4.16354">
        <ele>1459</ele>
        <time>2022-05-08T14:25:18Z</time>
      </trkpt>
      <trkpt lat="44.85065" lon="4.16364">
        <ele>1461</ele>
        <time>2022-05-08T14:25:18Z</time>
      </trkpt>
      <trkpt lat="44.85047" lon="4.16356">
        <ele>1462</ele>
        <time>2022-05-08T14:25:18Z</time>
      </trkpt>
      <trkpt lat="44.8501" lon="4.16318">
        <ele>1463</ele>
        <time>2022-05-08T14:25:18Z</time>
      </trkpt>
      <trkpt lat="44.84985" lon="4.1632">
        <ele>1464</ele>
        <time>2022-05-08T14:25:18Z</time>
      </trkpt>
      <trkpt lat="44.84965" lon="4.16327">
        <ele>1465</ele>
        <time>2022-05-08T14:25:18Z</time>
      </trkpt>
      <trkpt lat="44.84955" lon="4.16325">
        <ele>1465</ele>
        <time>2022-05-08T14:25:18Z</time>
      </trkpt>
      <trkpt lat="44.84947" lon="4.16329">
        <ele>1465</ele>
        <time>2022-05-08T14:25:18Z</time>
      </trkpt>
      <trkpt lat="44.8494" lon="4.16336">
        <ele>1465</ele>
        <time>2022-05-08T14:25:18Z</time>
      </trkpt>
      <trkpt lat="44.84922" lon="4.16342">
        <ele>1466</ele>
        <time>2022-05-08T14:25:18Z</time>
      </trkpt>
      <trkpt lat="44.84901" lon="4.16363">
        <ele>1466</ele>
        <time>2022-05-08T14:25:18Z</time>
      </trkpt>
      <trkpt lat="44.84899" lon="4.16376">
        <ele>1467</ele>
        <time>2022-05-08T14:25:18Z</time>
      </trkpt>
      <trkpt lat="44.84919" lon="4.16447">
        <ele>1468</ele>
        <time>2022-05-08T14:25:18Z</time>
      </trkpt>
      <trkpt lat="44.8492" lon="4.16457">
        <ele>1468</ele>
        <time>2022-05-08T14:25:18Z</time>
      </trkpt>
      <trkpt lat="44.84915" lon="4.16477">
        <ele>1469</ele>
        <time>2022-05-08T14:25:18Z</time>
      </trkpt>
      <trkpt lat="44.84908" lon="4.16485">
        <ele>1469</ele>
        <time>2022-05-08T14:25:18Z</time>
      </trkpt>
      <trkpt lat="44.84908" lon="4.16485">
        <ele>1472</ele>
        <time>2022-05-08T14:25:18Z</time>
      </trkpt>
      <trkpt lat="44.84902" lon="4.16501">
        <ele>1472</ele>
        <time>2022-05-08T14:25:18Z</time>
      </trkpt>
      <trkpt lat="44.84899" lon="4.1656">
        <ele>1473</ele>
        <time>2022-05-08T14:25:18Z</time>
      </trkpt>
      <trkpt lat="44.84886" lon="4.16582">
        <ele>1474</ele>
        <time>2022-05-08T14:25:18Z</time>
      </trkpt>
      <trkpt lat="44.8481" lon="4.16659">
        <ele>1475</ele>
        <time>2022-05-08T14:25:18Z</time>
      </trkpt>
      <trkpt lat="44.84796" lon="4.16684">
        <ele>1475</ele>
        <time>2022-05-08T14:25:18Z</time>
      </trkpt>
      <trkpt lat="44.8479" lon="4.16615">
        <ele>1476</ele>
        <time>2022-05-08T14:25:18Z</time>
      </trkpt>
      <trkpt lat="44.84785" lon="4.16579">
        <ele>1476</ele>
        <time>2022-05-08T14:25:18Z</time>
      </trkpt>
      <trkpt lat="44.84781" lon="4.16543">
        <ele>1477</ele>
        <time>2022-05-08T14:25:18Z</time>
      </trkpt>
      <trkpt lat="44.84769" lon="4.16506">
        <ele>1478</ele>
        <time>2022-05-08T14:25:18Z</time>
      </trkpt>
      <trkpt lat="44.84763" lon="4.1647">
        <ele>1479</ele>
        <time>2022-05-08T14:25:18Z</time>
      </trkpt>
      <trkpt lat="44.84601" lon="4.161">
        <ele>1504</ele>
        <time>2022-05-08T14:25:18Z</time>
      </trkpt>
      <trkpt lat="44.84577" lon="4.16064">
        <ele>1521</ele>
        <time>2022-05-08T14:25:18Z</time>
      </trkpt>
      <trkpt lat="44.84542" lon="4.15991">
        <ele>1538</ele>
        <time>2022-05-08T14:25:18Z</time>
      </trkpt>
      <trkpt lat="44.84613" lon="4.16246">
        <ele>1527</ele>
        <time>2022-05-08T14:25:18Z</time>
      </trkpt>
      <trkpt lat="44.84662" lon="4.1636">
        <ele>1516</ele>
        <time>2022-05-08T14:25:18Z</time>
      </trkpt>
      <trkpt lat="44.84753" lon="4.167">
        <ele>1498</ele>
        <time>2022-05-08T14:25:18Z</time>
      </trkpt>
      <trkpt lat="44.84753" lon="4.167">
        <ele>1475</ele>
        <time>2022-05-08T14:25:18Z</time>
      </trkpt>
      <trkpt lat="44.84735" lon="4.16704">
        <ele>1475</ele>
        <time>2022-05-08T14:25:18Z</time>
      </trkpt>
      <trkpt lat="44.84747" lon="4.16733">
        <ele>1475</ele>
        <time>2022-05-08T14:25:18Z</time>
      </trkpt>
      <trkpt lat="44.84751" lon="4.16751">
        <ele>1475</ele>
        <time>2022-05-08T14:25:18Z</time>
      </trkpt>
      <trkpt lat="44.84725" lon="4.16889">
        <ele>1475</ele>
        <time>2022-05-08T14:25:18Z</time>
      </trkpt>
      <trkpt lat="44.84723" lon="4.16947">
        <ele>1476</ele>
        <time>2022-05-08T14:25:18Z</time>
      </trkpt>
      <trkpt lat="44.84712" lon="4.16997">
        <ele>1477</ele>
        <time>2022-05-08T14:25:18Z</time>
      </trkpt>
      <trkpt lat="44.84705" lon="4.17021">
        <ele>1477</ele>
        <time>2022-05-08T14:25:18Z</time>
      </trkpt>
      <trkpt lat="44.84701" lon="4.1704">
        <ele>1477</ele>
        <time>2022-05-08T14:25:18Z</time>
      </trkpt>
      <trkpt lat="44.84687" lon="4.17079">
        <ele>1477</ele>
        <time>2022-05-08T14:25:18Z</time>
      </trkpt>
      <trkpt lat="44.84675" lon="4.17148">
        <ele>1477</ele>
        <time>2022-05-08T14:25:18Z</time>
      </trkpt>
      <trkpt lat="44.84669" lon="4.17155">
        <ele>1476</ele>
        <time>2022-05-08T14:25:18Z</time>
      </trkpt>
      <trkpt lat="44.84661" lon="4.1716">
        <ele>1476</ele>
        <time>2022-05-08T14:25:18Z</time>
      </trkpt>
      <trkpt lat="44.84655" lon="4.1717">
        <ele>1475</ele>
        <time>2022-05-08T14:25:18Z</time>
      </trkpt>
      <trkpt lat="44.8465" lon="4.17183">
        <ele>1475</ele>
        <time>2022-05-08T14:25:18Z</time>
      </trkpt>
      <trkpt lat="44.84642" lon="4.17226">
        <ele>1475</ele>
        <time>2022-05-08T14:25:18Z</time>
      </trkpt>
      <trkpt lat="44.84626" lon="4.17235">
        <ele>1475</ele>
        <time>2022-05-08T14:25:18Z</time>
      </trkpt>
      <trkpt lat="44.84595" lon="4.1727">
        <ele>1474</ele>
        <time>2022-05-08T14:25:18Z</time>
      </trkpt>
      <trkpt lat="44.84595" lon="4.1727">
        <ele>1471</ele>
        <time>2022-05-08T14:25:18Z</time>
      </trkpt>
      <trkpt lat="44.84589" lon="4.17278">
        <ele>1471</ele>
        <time>2022-05-08T14:25:18Z</time>
      </trkpt>
      <trkpt lat="44.84555" lon="4.17305">
        <ele>1471</ele>
        <time>2022-05-08T14:25:18Z</time>
      </trkpt>
      <trkpt lat="44.84544" lon="4.17308">
        <ele>1470</ele>
        <time>2022-05-08T14:25:18Z</time>
      </trkpt>
      <trkpt lat="44.84534" lon="4.17317">
        <ele>1470</ele>
        <time>2022-05-08T14:25:18Z</time>
      </trkpt>
      <trkpt lat="44.84526" lon="4.17329">
        <ele>1469</ele>
        <time>2022-05-08T14:25:18Z</time>
      </trkpt>
      <trkpt lat="44.84473" lon="4.17386">
        <ele>1468</ele>
        <time>2022-05-08T14:25:18Z</time>
      </trkpt>
      <trkpt lat="44.84464" lon="4.17399">
        <ele>1467</ele>
        <time>2022-05-08T14:25:18Z</time>
      </trkpt>
      <trkpt lat="44.8446" lon="4.17411">
        <ele>1466</ele>
        <time>2022-05-08T14:25:18Z</time>
      </trkpt>
      <trkpt lat="44.84455" lon="4.17433">
        <ele>1465</ele>
        <time>2022-05-08T14:25:18Z</time>
      </trkpt>
      <trkpt lat="44.84426" lon="4.17462">
        <ele>1464</ele>
        <time>2022-05-08T14:25:18Z</time>
      </trkpt>
      <trkpt lat="44.84412" lon="4.17499">
        <ele>1463</ele>
        <time>2022-05-08T14:25:18Z</time>
      </trkpt>
      <trkpt lat="44.84409" lon="4.17518">
        <ele>1462</ele>
        <time>2022-05-08T14:25:18Z</time>
      </trkpt>
      <trkpt lat="44.84399" lon="4.17541">
        <ele>1461</ele>
        <time>2022-05-08T14:25:18Z</time>
      </trkpt>
      <trkpt lat="44.84374" lon="4.17572">
        <ele>1459</ele>
        <time>2022-05-08T14:25:18Z</time>
      </trkpt>
      <trkpt lat="44.8436" lon="4.17599">
        <ele>1458</ele>
        <time>2022-05-08T14:25:18Z</time>
      </trkpt>
      <trkpt lat="44.84339" lon="4.17709">
        <ele>1456</ele>
        <time>2022-05-08T14:25:18Z</time>
      </trkpt>
      <trkpt lat="44.84288" lon="4.17844">
        <ele>1451</ele>
        <time>2022-05-08T14:25:18Z</time>
      </trkpt>
      <trkpt lat="44.8428" lon="4.17853">
        <ele>1448</ele>
        <time>2022-05-08T14:25:18Z</time>
      </trkpt>
      <trkpt lat="44.84272" lon="4.17855">
        <ele>1446</ele>
        <time>2022-05-08T14:25:18Z</time>
      </trkpt>
      <trkpt lat="44.84264" lon="4.17862">
        <ele>1444</ele>
        <time>2022-05-08T14:25:18Z</time>
      </trkpt>
      <trkpt lat="44.84236" lon="4.17905">
        <ele>1441</ele>
        <time>2022-05-08T14:25:18Z</time>
      </trkpt>
      <trkpt lat="44.84236" lon="4.17905">
        <ele>1431</ele>
        <time>2022-05-08T14:25:18Z</time>
      </trkpt>
      <trkpt lat="44.84171" lon="4.17976">
        <ele>1430</ele>
        <time>2022-05-08T14:25:18Z</time>
      </trkpt>
      <trkpt lat="44.84154" lon="4.17982">
        <ele>1430</ele>
        <time>2022-05-08T14:25:18Z</time>
      </trkpt>
      <trkpt lat="44.84145" lon="4.17983">
        <ele>1430</ele>
        <time>2022-05-08T14:25:18Z</time>
      </trkpt>
      <trkpt lat="44.84093" lon="4.18038">
        <ele>1430</ele>
        <time>2022-05-08T14:25:18Z</time>
      </trkpt>
      <trkpt lat="44.83989" lon="4.18137">
        <ele>1433</ele>
        <time>2022-05-08T14:25:18Z</time>
      </trkpt>
      <trkpt lat="44.83938" lon="4.18206">
        <ele>1445</ele>
        <time>2022-05-08T14:25:18Z</time>
      </trkpt>
      <trkpt lat="44.83886" lon="4.18236">
        <ele>1460</ele>
        <time>2022-05-08T14:25:18Z</time>
      </trkpt>
      <trkpt lat="44.83834" lon="4.18244">
        <ele>1474</ele>
        <time>2022-05-08T14:25:18Z</time>
      </trkpt>
      <trkpt lat="44.84041" lon="4.1815">
        <ele>1459</ele>
        <time>2022-05-08T14:25:18Z</time>
      </trkpt>
      <trkpt lat="44.84093" lon="4.1809">
        <ele>1449</ele>
        <time>2022-05-08T14:25:18Z</time>
      </trkpt>
      <trkpt lat="44.84145" lon="4.18051">
        <ele>1443</ele>
        <time>2022-05-08T14:25:18Z</time>
      </trkpt>
      <trkpt lat="44.84193" lon="4.1797">
        <ele>1428</ele>
        <time>2022-05-08T14:25:18Z</time>
      </trkpt>
      <trkpt lat="44.84245" lon="4.1797">
        <ele>1429</ele>
        <time>2022-05-08T14:25:18Z</time>
      </trkpt>
      <trkpt lat="44.843" lon="4.17961">
        <ele>1430</ele>
        <time>2022-05-08T14:25:18Z</time>
      </trkpt>
      <trkpt lat="44.84403" lon="4.17897">
        <ele>1435</ele>
        <time>2022-05-08T14:25:18Z</time>
      </trkpt>
      <trkpt lat="44.84455" lon="4.17832">
        <ele>1441</ele>
        <time>2022-05-08T14:25:18Z</time>
      </trkpt>
      <trkpt lat="44.84562" lon="4.17738">
        <ele>1460</ele>
        <time>2022-05-08T14:25:18Z</time>
      </trkpt>
      <trkpt lat="44.84607" lon="4.17665">
        <ele>1482</ele>
        <time>2022-05-08T14:25:18Z</time>
      </trkpt>
      <trkpt lat="44.84659" lon="4.17648">
        <ele>1496</ele>
        <time>2022-05-08T14:25:18Z</time>
      </trkpt>
      <trkpt lat="44.84708" lon="4.17721">
        <ele>1494</ele>
        <time>2022-05-08T14:25:18Z</time>
      </trkpt>
      <trkpt lat="44.84732" lon="4.17794">
        <ele>1492</ele>
        <time>2022-05-08T14:25:18Z</time>
      </trkpt>
      <trkpt lat="44.84835" lon="4.17721">
        <ele>1490</ele>
        <time>2022-05-08T14:25:18Z</time>
      </trkpt>
      <trkpt lat="44.84887" lon="4.17704">
        <ele>1489</ele>
        <time>2022-05-08T14:25:18Z</time>
      </trkpt>
      <trkpt lat="44.84939" lon="4.17704">
        <ele>1489</ele>
        <time>2022-05-08T14:25:18Z</time>
      </trkpt>
      <trkpt lat="44.84991" lon="4.17716">
        <ele>1489</ele>
        <time>2022-05-08T14:25:18Z</time>
      </trkpt>
      <trkpt lat="44.8507" lon="4.17777">
        <ele>1488</ele>
        <time>2022-05-08T14:25:18Z</time>
      </trkpt>
      <trkpt lat="44.8507" lon="4.17777">
        <ele>1487</ele>
        <time>2022-05-08T14:25:18Z</time>
      </trkpt>
      <trkpt lat="44.85093" lon="4.17818">
        <ele>1486</ele>
        <time>2022-05-08T14:25:18Z</time>
      </trkpt>
      <trkpt lat="44.85108" lon="4.17829">
        <ele>1486</ele>
        <time>2022-05-08T14:25:18Z</time>
      </trkpt>
      <trkpt lat="44.85115" lon="4.17842">
        <ele>1485</ele>
        <time>2022-05-08T14:25:18Z</time>
      </trkpt>
      <trkpt lat="44.85122" lon="4.17849">
        <ele>1485</ele>
        <time>2022-05-08T14:25:18Z</time>
      </trkpt>
      <trkpt lat="44.85224" lon="4.17892">
        <ele>1485</ele>
        <time>2022-05-08T14:25:18Z</time>
      </trkpt>
      <trkpt lat="44.85238" lon="4.17906">
        <ele>1485</ele>
        <time>2022-05-08T14:25:18Z</time>
      </trkpt>
      <trkpt lat="44.85247" lon="4.17907">
        <ele>1485</ele>
        <time>2022-05-08T14:25:18Z</time>
      </trkpt>
      <trkpt lat="44.85273" lon="4.17925">
        <ele>1485</ele>
        <time>2022-05-08T14:25:18Z</time>
      </trkpt>
      <trkpt lat="44.85405" lon="4.17973">
        <ele>1485</ele>
        <time>2022-05-08T14:25:18Z</time>
      </trkpt>
      <trkpt lat="44.85418" lon="4.17972">
        <ele>1485</ele>
        <time>2022-05-08T14:25:18Z</time>
      </trkpt>
      <trkpt lat="44.85472" lon="4.18014">
        <ele>1483</ele>
        <time>2022-05-08T14:25:18Z</time>
      </trkpt>
      <trkpt lat="44.85477" lon="4.18004">
        <ele>1482</ele>
        <time>2022-05-08T14:25:18Z</time>
      </trkpt>
      <trkpt lat="44.85477" lon="4.18004">
        <ele>1479</ele>
        <time>2022-05-08T14:25:18Z</time>
      </trkpt>
      <trkpt lat="44.85527" lon="4.17808">
        <ele>1485</ele>
        <time>2022-05-08T14:25:18Z</time>
      </trkpt>
      <trkpt lat="44.85533" lon="4.17757">
        <ele>1491</ele>
        <time>2022-05-08T14:25:18Z</time>
      </trkpt>
      <trkpt lat="44.85543" lon="4.17734">
        <ele>1496</ele>
        <time>2022-05-08T14:25:18Z</time>
      </trkpt>
      <trkpt lat="44.85556" lon="4.17714">
        <ele>1499</ele>
        <time>2022-05-08T14:25:18Z</time>
      </trkpt>
      <trkpt lat="44.85563" lon="4.17698">
        <ele>1501</ele>
        <time>2022-05-08T14:25:18Z</time>
      </trkpt>
      <trkpt lat="44.85567" lon="4.17718">
        <ele>1503</ele>
        <time>2022-05-08T14:25:18Z</time>
      </trkpt>
      <trkpt lat="44.85592" lon="4.17763">
        <ele>1502</ele>
        <time>2022-05-08T14:25:18Z</time>
      </trkpt>
      <trkpt lat="44.85604" lon="4.17768">
        <ele>1501</ele>
        <time>2022-05-08T14:25:18Z</time>
      </trkpt>
      <trkpt lat="44.85665" lon="4.17717">
        <ele>1501</ele>
        <time>2022-05-08T14:25:18Z</time>
      </trkpt>
      <trkpt lat="44.85718" lon="4.17638">
        <ele>1501</ele>
        <time>2022-05-08T14:25:18Z</time>
      </trkpt>
      <trkpt lat="44.85751" lon="4.17605">
        <ele>1501</ele>
        <time>2022-05-08T14:25:18Z</time>
      </trkpt>
      <trkpt lat="44.85751" lon="4.17605">
        <ele>1502</ele>
        <time>2022-05-08T14:25:18Z</time>
      </trkpt>
      <trkpt lat="44.8577" lon="4.17578">
        <ele>1503</ele>
        <time>2022-05-08T14:25:18Z</time>
      </trkpt>
      <trkpt lat="44.85787" lon="4.17565">
        <ele>1503</ele>
        <time>2022-05-08T14:25:18Z</time>
      </trkpt>
      <trkpt lat="44.85792" lon="4.17552">
        <ele>1503</ele>
        <time>2022-05-08T14:25:18Z</time>
      </trkpt>
      <trkpt lat="44.85789" lon="4.17538">
        <ele>1503</ele>
        <time>2022-05-08T14:25:18Z</time>
      </trkpt>
      <trkpt lat="44.8578" lon="4.17517">
        <ele>1504</ele>
        <time>2022-05-08T14:25:18Z</time>
      </trkpt>
      <trkpt lat="44.85776" lon="4.17501">
        <ele>1506</ele>
        <time>2022-05-08T14:25:18Z</time>
      </trkpt>
      <trkpt lat="44.85754" lon="4.17488">
        <ele>1508</ele>
        <time>2022-05-08T14:25:18Z</time>
      </trkpt>
      <trkpt lat="44.85734" lon="4.17464">
        <ele>1512</ele>
        <time>2022-05-08T14:25:18Z</time>
      </trkpt>
      <trkpt lat="44.85714" lon="4.17402">
        <ele>1519</ele>
        <time>2022-05-08T14:25:18Z</time>
      </trkpt>
      <trkpt lat="44.85703" lon="4.17383">
        <ele>1553</ele>
        <time>2022-05-08T14:25:18Z</time>
      </trkpt>
      <trkpt lat="44.85686" lon="4.17393">
        <ele>1554</ele>
        <time>2022-05-08T14:25:18Z</time>
      </trkpt>
      <trkpt lat="44.85679" lon="4.17402">
        <ele>1555</ele>
        <time>2022-05-08T14:25:18Z</time>
      </trkpt>
      <trkpt lat="44.85664" lon="4.17404">
        <ele>1557</ele>
        <time>2022-05-08T14:25:18Z</time>
      </trkpt>
      <trkpt lat="44.85652" lon="4.17399">
        <ele>1559</ele>
        <time>2022-05-08T14:25:18Z</time>
      </trkpt>
      <trkpt lat="44.85639" lon="4.174">
        <ele>1561</ele>
        <time>2022-05-08T14:25:18Z</time>
      </trkpt>
      <trkpt lat="44.85589" lon="4.17383">
        <ele>1564</ele>
        <time>2022-05-08T14:25:18Z</time>
      </trkpt>
      <trkpt lat="44.85581" lon="4.17383">
        <ele>1567</ele>
        <time>2022-05-08T14:25:18Z</time>
      </trkpt>
      <trkpt lat="44.85543" lon="4.17374">
        <ele>1571</ele>
        <time>2022-05-08T14:25:18Z</time>
      </trkpt>
      <trkpt lat="44.85531" lon="4.17376">
        <ele>1574</ele>
        <time>2022-05-08T14:25:18Z</time>
      </trkpt>
      <trkpt lat="44.85523" lon="4.17373">
        <ele>1576</ele>
        <time>2022-05-08T14:25:18Z</time>
      </trkpt>
      <trkpt lat="44.85523" lon="4.17373">
        <ele>1589</ele>
        <time>2022-05-08T14:25:18Z</time>
      </trkpt>
      <trkpt lat="44.85514" lon="4.17364">
        <ele>1589</ele>
        <time>2022-05-08T14:25:18Z</time>
      </trkpt>
      <trkpt lat="44.8552" lon="4.17354">
        <ele>1589</ele>
        <time>2022-05-08T14:25:18Z</time>
      </trkpt>
      <trkpt lat="44.85523" lon="4.17342">
        <ele>1589</ele>
        <time>2022-05-08T14:25:18Z</time>
      </trkpt>
      <trkpt lat="44.85567" lon="4.1729">
        <ele>1588</ele>
        <time>2022-05-08T14:25:18Z</time>
      </trkpt>
      <trkpt lat="44.85584" lon="4.17278">
        <ele>1586</ele>
        <time>2022-05-08T14:25:18Z</time>
      </trkpt>
      <trkpt lat="44.85597" lon="4.17255">
        <ele>1584</ele>
        <time>2022-05-08T14:25:18Z</time>
      </trkpt>
      <trkpt lat="44.85598" lon="4.17242">
        <ele>1582</ele>
        <time>2022-05-08T14:25:18Z</time>
      </trkpt>
      <trkpt lat="44.85596" lon="4.17232">
        <ele>1580</ele>
        <time>2022-05-08T14:25:18Z</time>
      </trkpt>
      <trkpt lat="44.85596" lon="4.17217">
        <ele>1578</ele>
        <time>2022-05-08T14:25:18Z</time>
      </trkpt>
      <trkpt lat="44.85603" lon="4.17207">
        <ele>1576</ele>
        <time>2022-05-08T14:25:18Z</time>
      </trkpt>
      <trkpt lat="44.85626" lon="4.17181">
        <ele>1574</ele>
        <time>2022-05-08T14:25:18Z</time>
      </trkpt>
      <trkpt lat="44.8564" lon="4.17149">
        <ele>1572</ele>
        <time>2022-05-08T14:25:18Z</time>
      </trkpt>
      <trkpt lat="44.85641" lon="4.17128">
        <ele>1569</ele>
        <time>2022-05-08T14:25:18Z</time>
      </trkpt>
      <trkpt lat="44.85646" lon="4.17112">
        <ele>1567</ele>
        <time>2022-05-08T14:25:18Z</time>
      </trkpt>
      <trkpt lat="44.85647" lon="4.17099">
        <ele>1566</ele>
        <time>2022-05-08T14:25:18Z</time>
      </trkpt>
      <trkpt lat="44.85655" lon="4.1708">
        <ele>1564</ele>
        <time>2022-05-08T14:25:18Z</time>
      </trkpt>
      <trkpt lat="44.85661" lon="4.17045">
        <ele>1562</ele>
        <time>2022-05-08T14:25:18Z</time>
      </trkpt>
      <trkpt lat="44.85666" lon="4.17031">
        <ele>1561</ele>
        <time>2022-05-08T14:25:18Z</time>
      </trkpt>
      <trkpt lat="44.85674" lon="4.17019">
        <ele>1559</ele>
        <time>2022-05-08T14:25:18Z</time>
      </trkpt>
      <trkpt lat="44.85705" lon="4.16961">
        <ele>1557</ele>
        <time>2022-05-08T14:25:18Z</time>
      </trkpt>
      <trkpt lat="44.85723" lon="4.16936">
        <ele>1555</ele>
        <time>2022-05-08T14:25:18Z</time>
      </trkpt>
      <trkpt lat="44.85748" lon="4.16952">
        <ele>1554</ele>
        <time>2022-05-08T14:25:18Z</time>
      </trkpt>
      <trkpt lat="44.85783" lon="4.16968">
        <ele>1553</ele>
        <time>2022-05-08T14:25:18Z</time>
      </trkpt>
      <trkpt lat="44.85825" lon="4.16997">
        <ele>1552</ele>
        <time>2022-05-08T14:25:18Z</time>
      </trkpt>
      <trkpt lat="44.85842" lon="4.17021">
        <ele>1551</ele>
        <time>2022-05-08T14:25:18Z</time>
      </trkpt>
      <trkpt lat="44.85842" lon="4.17021">
        <ele>1546</ele>
        <time>2022-05-08T14:25:18Z</time>
      </trkpt>
      <trkpt lat="44.85871" lon="4.17045">
        <ele>1546</ele>
        <time>2022-05-08T14:25:18Z</time>
      </trkpt>
      <trkpt lat="44.8588" lon="4.17066">
        <ele>1545</ele>
        <time>2022-05-08T14:25:18Z</time>
      </trkpt>
      <trkpt lat="44.85881" lon="4.17077">
        <ele>1544</ele>
        <time>2022-05-08T14:25:18Z</time>
      </trkpt>
      <trkpt lat="44.85881" lon="4.17134">
        <ele>1543</ele>
        <time>2022-05-08T14:25:18Z</time>
      </trkpt>
      <trkpt lat="44.85885" lon="4.17146">
        <ele>1541</ele>
        <time>2022-05-08T14:25:18Z</time>
      </trkpt>
      <trkpt lat="44.85885" lon="4.17146">
        <ele>1534</ele>
        <time>2022-05-08T14:25:18Z</time>
      </trkpt>
      <trkpt lat="44.85928" lon="4.17073">
        <ele>1536</ele>
        <time>2022-05-08T14:25:18Z</time>
      </trkpt>
      <trkpt lat="44.85976" lon="4.17">
        <ele>1538</ele>
        <time>2022-05-08T14:25:18Z</time>
      </trkpt>
      <trkpt lat="44.86046" lon="4.16627">
        <ele>1560</ele>
        <time>2022-05-08T14:25:18Z</time>
      </trkpt>
      <trkpt lat="44.86025" lon="4.167">
        <ele>1566</ele>
        <time>2022-05-08T14:25:18Z</time>
      </trkpt>
      <trkpt lat="44.86007" lon="4.16772">
        <ele>1566</ele>
        <time>2022-05-08T14:25:18Z</time>
      </trkpt>
      <trkpt lat="44.85991" lon="4.16918">
        <ele>1561</ele>
        <time>2022-05-08T14:25:18Z</time>
      </trkpt>
      <trkpt lat="44.85885" lon="4.17146">
        <ele>1534</ele>
        <time>2022-05-08T14:25:18Z</time>
      </trkpt>
      <trkpt lat="44.85885" lon="4.17146">
        <ele>1534</ele>
        <time>2022-05-08T14:25:18Z</time>
      </trkpt>
      <trkpt lat="44.85881" lon="4.17134">
        <ele>1535</ele>
        <time>2022-05-08T14:25:18Z</time>
      </trkpt>
      <trkpt lat="44.8588" lon="4.17066">
        <ele>1537</ele>
        <time>2022-05-08T14:25:18Z</time>
      </trkpt>
      <trkpt lat="44.85871" lon="4.17045">
        <ele>1538</ele>
        <time>2022-05-08T14:25:18Z</time>
      </trkpt>
      <trkpt lat="44.85783" lon="4.16968">
        <ele>1541</ele>
        <time>2022-05-08T14:25:18Z</time>
      </trkpt>
      <trkpt lat="44.85723" lon="4.16936">
        <ele>1543</ele>
        <time>2022-05-08T14:25:18Z</time>
      </trkpt>
      <trkpt lat="44.85669" lon="4.16837">
        <ele>1542</ele>
        <time>2022-05-08T14:25:18Z</time>
      </trkpt>
      <trkpt lat="44.85669" lon="4.16837">
        <ele>1541</ele>
        <time>2022-05-08T14:25:18Z</time>
      </trkpt>
      <trkpt lat="44.85646" lon="4.1677">
        <ele>1539</ele>
        <time>2022-05-08T14:25:18Z</time>
      </trkpt>
      <trkpt lat="44.85644" lon="4.16608">
        <ele>1533</ele>
        <time>2022-05-08T14:25:18Z</time>
      </trkpt>
      <trkpt lat="44.85641" lon="4.16597">
        <ele>1530</ele>
        <time>2022-05-08T14:25:18Z</time>
      </trkpt>
      <trkpt lat="44.8563" lon="4.16581">
        <ele>1527</ele>
        <time>2022-05-08T14:25:18Z</time>
      </trkpt>
      <trkpt lat="44.85622" lon="4.16545">
        <ele>1524</ele>
        <time>2022-05-08T14:25:18Z</time>
      </trkpt>
      <trkpt lat="44.85621" lon="4.16532">
        <ele>1522</ele>
        <time>2022-05-08T14:25:18Z</time>
      </trkpt>
      <trkpt lat="44.85625" lon="4.16519">
        <ele>1520</ele>
        <time>2022-05-08T14:25:18Z</time>
      </trkpt>
      <trkpt lat="44.85626" lon="4.16486">
        <ele>1518</ele>
        <time>2022-05-08T14:25:18Z</time>
      </trkpt>
      <trkpt lat="44.85619" lon="4.16429">
        <ele>1516</ele>
        <time>2022-05-08T14:25:18Z</time>
      </trkpt>
      <trkpt lat="44.85621" lon="4.1641">
        <ele>1513</ele>
        <time>2022-05-08T14:25:18Z</time>
      </trkpt>
      <trkpt lat="44.85632" lon="4.16376">
        <ele>1511</ele>
        <time>2022-05-08T14:25:18Z</time>
      </trkpt>
      <trkpt lat="44.85642" lon="4.16366">
        <ele>1509</ele>
        <time>2022-05-08T14:25:18Z</time>
      </trkpt>
      <trkpt lat="44.85648" lon="4.16349">
        <ele>1508</ele>
        <time>2022-05-08T14:25:18Z</time>
      </trkpt>
      <trkpt lat="44.85699" lon="4.1628">
        <ele>1505</ele>
        <time>2022-05-08T14:25:18Z</time>
      </trkpt>
      <trkpt lat="44.85702" lon="4.16258">
        <ele>1503</ele>
        <time>2022-05-08T14:25:18Z</time>
      </trkpt>
      <trkpt lat="44.85701" lon="4.16247">
        <ele>1502</ele>
        <time>2022-05-08T14:25:18Z</time>
      </trkpt>
      <trkpt lat="44.85697" lon="4.16233">
        <ele>1501</ele>
        <time>2022-05-08T14:25:18Z</time>
      </trkpt>
      <trkpt lat="44.85642" lon="4.16214">
        <ele>1498</ele>
        <time>2022-05-08T14:25:18Z</time>
      </trkpt>
      <trkpt lat="44.85642" lon="4.16214">
        <ele>1488</ele>
        <time>2022-05-08T14:25:18Z</time>
      </trkpt>
      <trkpt lat="44.85599" lon="4.1617">
        <ele>1487</ele>
        <time>2022-05-08T14:25:18Z</time>
      </trkpt>
      <trkpt lat="44.85596" lon="4.16155">
        <ele>1486</ele>
        <time>2022-05-08T14:25:18Z</time>
      </trkpt>
      <trkpt lat="44.85598" lon="4.16142">
        <ele>1484</ele>
        <time>2022-05-08T14:25:18Z</time>
      </trkpt>
      <trkpt lat="44.85602" lon="4.16132">
        <ele>1484</ele>
        <time>2022-05-08T14:25:18Z</time>
      </trkpt>
      <trkpt lat="44.85597" lon="4.16124">
        <ele>1483</ele>
        <time>2022-05-08T14:25:18Z</time>
      </trkpt>
      <trkpt lat="44.85558" lon="4.16123">
        <ele>1481</ele>
        <time>2022-05-08T14:25:18Z</time>
      </trkpt>
      <trkpt lat="44.85536" lon="4.16131">
        <ele>1480</ele>
        <time>2022-05-08T14:25:18Z</time>
      </trkpt>
      <trkpt lat="44.85503" lon="4.16159">
        <ele>1479</ele>
        <time>2022-05-08T14:25:18Z</time>
      </trkpt>
      <trkpt lat="44.85473" lon="4.16163">
        <ele>1477</ele>
        <time>2022-05-08T14:25:18Z</time>
      </trkpt>
      <trkpt lat="44.85455" lon="4.16158">
        <ele>1476</ele>
        <time>2022-05-08T14:25:18Z</time>
      </trkpt>
      <trkpt lat="44.85447" lon="4.1615">
        <ele>1475</ele>
        <time>2022-05-08T14:25:18Z</time>
      </trkpt>
      <trkpt lat="44.85441" lon="4.16141">
        <ele>1474</ele>
        <time>2022-05-08T14:25:18Z</time>
      </trkpt>
      <trkpt lat="44.85434" lon="4.16122">
        <ele>1473</ele>
        <time>2022-05-08T14:25:18Z</time>
      </trkpt>
      <trkpt lat="44.85432" lon="4.16105">
        <ele>1472</ele>
        <time>2022-05-08T14:25:18Z</time>
      </trkpt>
      <trkpt lat="44.85441" lon="4.16064">
        <ele>1470</ele>
        <time>2022-05-08T14:25:18Z</time>
      </trkpt>
      <trkpt lat="44.85441" lon="4.16064">
        <ele>1462</ele>
        <time>2022-05-08T14:25:18Z</time>
      </trkpt>
      <trkpt lat="44.8545" lon="4.15966">
        <ele>1460</ele>
        <time>2022-05-08T14:25:18Z</time>
      </trkpt>
      <trkpt lat="44.85449" lon="4.1595">
        <ele>1459</ele>
        <time>2022-05-08T14:25:18Z</time>
      </trkpt>
      <trkpt lat="44.85433" lon="4.15909">
        <ele>1457</ele>
        <time>2022-05-08T14:25:18Z</time>
      </trkpt>
      <trkpt lat="44.85413" lon="4.15869">
        <ele>1456</ele>
        <time>2022-05-08T14:25:18Z</time>
      </trkpt>
      <trkpt lat="44.85406" lon="4.15861">
        <ele>1455</ele>
        <time>2022-05-08T14:25:18Z</time>
      </trkpt>
      <trkpt lat="44.85395" lon="4.15854">
        <ele>1454</ele>
        <time>2022-05-08T14:25:18Z</time>
      </trkpt>
      <trkpt lat="44.85383" lon="4.15841">
        <ele>1447</ele>
        <time>2022-05-08T14:25:18Z</time>
      </trkpt>
      <trkpt lat="44.85377" lon="4.15811">
        <ele>1447</ele>
        <time>2022-05-08T14:25:18Z</time>
      </trkpt>
      <trkpt lat="44.85359" lon="4.15777">
        <ele>1446</ele>
        <time>2022-05-08T14:25:18Z</time>
      </trkpt>
      <trkpt lat="44.85359" lon="4.15777">
        <ele>1441</ele>
        <time>2022-05-08T14:25:18Z</time>
      </trkpt>
      <trkpt lat="44.85346" lon="4.15752">
        <ele>1441</ele>
        <time>2022-05-08T14:25:18Z</time>
      </trkpt>
      <trkpt lat="44.85344" lon="4.15736">
        <ele>1440</ele>
        <time>2022-05-08T14:25:18Z</time>
      </trkpt>
      <trkpt lat="44.8533" lon="4.15711">
        <ele>1439</ele>
        <time>2022-05-08T14:25:18Z</time>
      </trkpt>
      <trkpt lat="44.85336" lon="4.15702">
        <ele>1433</ele>
        <time>2022-05-08T14:25:18Z</time>
      </trkpt>
    </trkseg>
  </trk>
  <trk>
    <name><![CDATA[Retour les Estables par Le Mézenc 13 kms]]></name>
    <cmt><![CDATA[16:29:37]]></cmt>
    <desc><![CDATA[<html dir="ltr"><head></head><body contenteditable="true">comment ...</body></html>]]></desc>
    <trkseg>
      <trkpt lat="44.85885" lon="4.17159">
        <ele>1533</ele>
        <time>2022-05-08T14:29:37Z</time>
      </trkpt>
      <trkpt lat="44.85885" lon="4.17159">
        <ele>1533</ele>
        <time>2022-05-08T14:29:37Z</time>
      </trkpt>
      <trkpt lat="44.859" lon="4.17163">
        <ele>1533</ele>
        <time>2022-05-08T14:29:37Z</time>
      </trkpt>
      <trkpt lat="44.85947" lon="4.17202">
        <ele>1531</ele>
        <time>2022-05-08T14:29:37Z</time>
      </trkpt>
      <trkpt lat="44.85896" lon="4.17252">
        <ele>1529</ele>
        <time>2022-05-08T14:29:37Z</time>
      </trkpt>
      <trkpt lat="44.85888" lon="4.17264">
        <ele>1527</ele>
        <time>2022-05-08T14:29:37Z</time>
      </trkpt>
      <trkpt lat="44.85879" lon="4.17294">
        <ele>1525</ele>
        <time>2022-05-08T14:29:37Z</time>
      </trkpt>
      <trkpt lat="44.85861" lon="4.17369">
        <ele>1521</ele>
        <time>2022-05-08T14:29:37Z</time>
      </trkpt>
      <trkpt lat="44.85838" lon="4.17441">
        <ele>1517</ele>
        <time>2022-05-08T14:29:37Z</time>
      </trkpt>
      <trkpt lat="44.85832" lon="4.17474">
        <ele>1514</ele>
        <time>2022-05-08T14:29:37Z</time>
      </trkpt>
      <trkpt lat="44.85835" lon="4.17484">
        <ele>1511</ele>
        <time>2022-05-08T14:29:37Z</time>
      </trkpt>
      <trkpt lat="44.85976" lon="4.17579">
        <ele>1501</ele>
        <time>2022-05-08T14:29:37Z</time>
      </trkpt>
      <trkpt lat="44.85976" lon="4.17579">
        <ele>1479</ele>
        <time>2022-05-08T14:29:37Z</time>
      </trkpt>
      <trkpt lat="44.86066" lon="4.17657">
        <ele>1475</ele>
      </trkpt>
      <trkpt lat="44.86156" lon="4.17736">
        <ele>1466</ele>
        <time>2022-05-08T14:29:37Z</time>
      </trkpt>
      <trkpt lat="44.86186" lon="4.17803">
        <ele>1461</ele>
        <time>2022-05-08T14:29:37Z</time>
      </trkpt>
      <trkpt lat="44.86186" lon="4.17817">
        <ele>1458</ele>
        <time>2022-05-08T14:29:37Z</time>
      </trkpt>
      <trkpt lat="44.86199" lon="4.17824">
        <ele>1456</ele>
        <time>2022-05-08T14:29:37Z</time>
      </trkpt>
      <trkpt lat="44.86293" lon="4.1799">
        <ele>1456</ele>
        <time>2022-05-08T14:29:37Z</time>
      </trkpt>
      <trkpt lat="44.86297" lon="4.17999">
        <ele>1456</ele>
        <time>2022-05-08T14:29:37Z</time>
      </trkpt>
      <trkpt lat="44.86301" lon="4.18021">
        <ele>1455</ele>
        <time>2022-05-08T14:29:37Z</time>
      </trkpt>
      <trkpt lat="44.86363" lon="4.18113">
        <ele>1456</ele>
        <time>2022-05-08T14:29:37Z</time>
      </trkpt>
      <trkpt lat="44.86421" lon="4.18217">
        <ele>1455</ele>
      </trkpt>
      <trkpt lat="44.86478" lon="4.18322">
        <ele>1456</ele>
        <time>2022-05-08T14:29:37Z</time>
      </trkpt>
      <trkpt lat="44.86478" lon="4.18322">
        <ele>1460</ele>
        <time>2022-05-08T14:29:37Z</time>
      </trkpt>
      <trkpt lat="44.86553" lon="4.18458">
        <ele>1463</ele>
        <time>2022-05-08T14:29:37Z</time>
      </trkpt>
      <trkpt lat="44.86565" lon="4.1847">
        <ele>1464</ele>
        <time>2022-05-08T14:29:37Z</time>
      </trkpt>
      <trkpt lat="44.86584" lon="4.18476">
        <ele>1465</ele>
        <time>2022-05-08T14:29:37Z</time>
      </trkpt>
      <trkpt lat="44.86591" lon="4.18476">
        <ele>1465</ele>
        <time>2022-05-08T14:29:37Z</time>
      </trkpt>
      <trkpt lat="44.866" lon="4.18482">
        <ele>1465</ele>
        <time>2022-05-08T14:29:37Z</time>
      </trkpt>
      <trkpt lat="44.86608" lon="4.18508">
        <ele>1465</ele>
        <time>2022-05-08T14:29:37Z</time>
      </trkpt>
      <trkpt lat="44.86613" lon="4.18552">
        <ele>1465</ele>
        <time>2022-05-08T14:29:37Z</time>
      </trkpt>
      <trkpt lat="44.86639" lon="4.1859">
        <ele>1465</ele>
        <time>2022-05-08T14:29:37Z</time>
      </trkpt>
      <trkpt lat="44.86721" lon="4.1863">
        <ele>1462</ele>
      </trkpt>
      <trkpt lat="44.86802" lon="4.18671">
        <ele>1461</ele>
        <time>2022-05-08T14:29:37Z</time>
      </trkpt>
      <trkpt lat="44.86811" lon="4.18673">
        <ele>1460</ele>
        <time>2022-05-08T14:29:37Z</time>
      </trkpt>
      <trkpt lat="44.8682" lon="4.18673">
        <ele>1460</ele>
        <time>2022-05-08T14:29:37Z</time>
      </trkpt>
      <trkpt lat="44.86908" lon="4.18635">
        <ele>1458</ele>
        <time>2022-05-08T14:29:37Z</time>
      </trkpt>
      <trkpt lat="44.86952" lon="4.18638">
        <ele>1458</ele>
        <time>2022-05-08T14:29:37Z</time>
      </trkpt>
      <trkpt lat="44.87005" lon="4.1866">
        <ele>1457</ele>
        <time>2022-05-08T14:29:37Z</time>
      </trkpt>
      <trkpt lat="44.8702" lon="4.18669">
        <ele>1457</ele>
        <time>2022-05-08T14:29:37Z</time>
      </trkpt>
      <trkpt lat="44.8702" lon="4.18669">
        <ele>1455</ele>
        <time>2022-05-08T14:29:37Z</time>
      </trkpt>
      <trkpt lat="44.87146" lon="4.18746">
        <ele>1452</ele>
        <time>2022-05-08T14:29:37Z</time>
      </trkpt>
      <trkpt lat="44.87265" lon="4.18749">
        <ele>1449</ele>
        <time>2022-05-08T14:29:37Z</time>
      </trkpt>
      <trkpt lat="44.8728" lon="4.18744">
        <ele>1448</ele>
        <time>2022-05-08T14:29:37Z</time>
      </trkpt>
      <trkpt lat="44.87288" lon="4.18735">
        <ele>1446</ele>
        <time>2022-05-08T14:29:37Z</time>
      </trkpt>
      <trkpt lat="44.87303" lon="4.187">
        <ele>1445</ele>
        <time>2022-05-08T14:29:37Z</time>
      </trkpt>
      <trkpt lat="44.87309" lon="4.18692">
        <ele>1443</ele>
        <time>2022-05-08T14:29:37Z</time>
      </trkpt>
      <trkpt lat="44.87401" lon="4.18621">
        <ele>1438</ele>
        <time>2022-05-08T14:29:37Z</time>
      </trkpt>
      <trkpt lat="44.87409" lon="4.18618">
        <ele>1435</ele>
        <time>2022-05-08T14:29:37Z</time>
      </trkpt>
      <trkpt lat="44.87447" lon="4.18615">
        <ele>1432</ele>
        <time>2022-05-08T14:29:37Z</time>
      </trkpt>
      <trkpt lat="44.87453" lon="4.18606">
        <ele>1429</ele>
        <time>2022-05-08T14:29:37Z</time>
      </trkpt>
      <trkpt lat="44.87506" lon="4.18598">
        <ele>1425</ele>
        <time>2022-05-08T14:29:37Z</time>
      </trkpt>
      <trkpt lat="44.8752" lon="4.18602">
        <ele>1410</ele>
        <time>2022-05-08T14:29:37Z</time>
      </trkpt>
      <trkpt lat="44.87546" lon="4.18599">
        <ele>1409</ele>
        <time>2022-05-08T14:29:37Z</time>
      </trkpt>
      <trkpt lat="44.8759" lon="4.18568">
        <ele>1408</ele>
        <time>2022-05-08T14:29:37Z</time>
      </trkpt>
      <trkpt lat="44.87762" lon="4.18425">
        <ele>1400</ele>
        <time>2022-05-08T14:29:37Z</time>
      </trkpt>
      <trkpt lat="44.87762" lon="4.18425">
        <ele>1386</ele>
        <time>2022-05-08T14:29:37Z</time>
      </trkpt>
      <trkpt lat="44.87771" lon="4.18416">
        <ele>1386</ele>
        <time>2022-05-08T14:29:37Z</time>
      </trkpt>
      <trkpt lat="44.87791" lon="4.18407">
        <ele>1386</ele>
        <time>2022-05-08T14:29:37Z</time>
      </trkpt>
      <trkpt lat="44.87821" lon="4.1836">
        <ele>1387</ele>
        <time>2022-05-08T14:29:37Z</time>
      </trkpt>
      <trkpt lat="44.87834" lon="4.18295">
        <ele>1388</ele>
        <time>2022-05-08T14:29:37Z</time>
      </trkpt>
      <trkpt lat="44.87842" lon="4.18283">
        <ele>1389</ele>
        <time>2022-05-08T14:29:37Z</time>
      </trkpt>
      <trkpt lat="44.87857" lon="4.18283">
        <ele>1390</ele>
        <time>2022-05-08T14:29:37Z</time>
      </trkpt>
      <trkpt lat="44.87871" lon="4.18293">
        <ele>1391</ele>
        <time>2022-05-08T14:29:37Z</time>
      </trkpt>
      <trkpt lat="44.87879" lon="4.18296">
        <ele>1392</ele>
        <time>2022-05-08T14:29:37Z</time>
      </trkpt>
      <trkpt lat="44.87884" lon="4.18286">
        <ele>1393</ele>
        <time>2022-05-08T14:29:37Z</time>
      </trkpt>
      <trkpt lat="44.87867" lon="4.18231">
        <ele>1395</ele>
        <time>2022-05-08T14:29:37Z</time>
      </trkpt>
      <trkpt lat="44.87874" lon="4.18222">
        <ele>1396</ele>
        <time>2022-05-08T14:29:37Z</time>
      </trkpt>
      <trkpt lat="44.87895" lon="4.18244">
        <ele>1399</ele>
        <time>2022-05-08T14:29:37Z</time>
      </trkpt>
      <trkpt lat="44.87902" lon="4.18254">
        <ele>1400</ele>
        <time>2022-05-08T14:29:37Z</time>
      </trkpt>
      <trkpt lat="44.87923" lon="4.18267">
        <ele>1401</ele>
        <time>2022-05-08T14:29:37Z</time>
      </trkpt>
      <trkpt lat="44.87932" lon="4.18261">
        <ele>1403</ele>
        <time>2022-05-08T14:29:37Z</time>
      </trkpt>
      <trkpt lat="44.87809" lon="4.17955">
        <ele>1414</ele>
        <time>2022-05-08T14:29:37Z</time>
      </trkpt>
      <trkpt lat="44.87809" lon="4.17944">
        <ele>1419</ele>
        <time>2022-05-08T14:29:37Z</time>
      </trkpt>
      <trkpt lat="44.87815" lon="4.17937">
        <ele>1422</ele>
        <time>2022-05-08T14:29:37Z</time>
      </trkpt>
      <trkpt lat="44.87823" lon="4.17938">
        <ele>1425</ele>
        <time>2022-05-08T14:29:37Z</time>
      </trkpt>
      <trkpt lat="44.87934" lon="4.17976">
        <ele>1431</ele>
        <time>2022-05-08T14:29:37Z</time>
      </trkpt>
      <trkpt lat="44.87998" lon="4.17973">
        <ele>1437</ele>
        <time>2022-05-08T14:29:37Z</time>
      </trkpt>
      <trkpt lat="44.88044" lon="4.17999">
        <ele>1442</ele>
        <time>2022-05-08T14:29:37Z</time>
      </trkpt>
      <trkpt lat="44.88299" lon="4.18189">
        <ele>1458</ele>
        <time>2022-05-08T14:29:37Z</time>
      </trkpt>
      <trkpt lat="44.88396" lon="4.18227">
        <ele>1470</ele>
        <time>2022-05-08T14:29:37Z</time>
      </trkpt>
      <trkpt lat="44.88452" lon="4.18227">
        <ele>1477</ele>
        <time>2022-05-08T14:29:37Z</time>
      </trkpt>
      <trkpt lat="44.88452" lon="4.18227">
        <ele>1494</ele>
        <time>2022-05-08T14:29:37Z</time>
      </trkpt>
      <trkpt lat="44.88474" lon="4.18227">
        <ele>1494</ele>
        <time>2022-05-08T14:29:37Z</time>
      </trkpt>
      <trkpt lat="44.88555" lon="4.18189">
        <ele>1498</ele>
        <time>2022-05-08T14:29:37Z</time>
      </trkpt>
      <trkpt lat="44.88554" lon="4.18177">
        <ele>1500</ele>
        <time>2022-05-08T14:29:37Z</time>
      </trkpt>
      <trkpt lat="44.88557" lon="4.18165">
        <ele>1501</ele>
        <time>2022-05-08T14:29:37Z</time>
      </trkpt>
      <trkpt lat="44.8859" lon="4.18143">
        <ele>1504</ele>
        <time>2022-05-08T14:29:37Z</time>
      </trkpt>
      <trkpt lat="44.88608" lon="4.18138">
        <ele>1505</ele>
        <time>2022-05-08T14:29:37Z</time>
      </trkpt>
      <trkpt lat="44.88622" lon="4.1812">
        <ele>1507</ele>
        <time>2022-05-08T14:29:37Z</time>
      </trkpt>
      <trkpt lat="44.88641" lon="4.18116">
        <ele>1509</ele>
        <time>2022-05-08T14:29:37Z</time>
      </trkpt>
      <trkpt lat="44.88665" lon="4.18117">
        <ele>1511</ele>
        <time>2022-05-08T14:29:37Z</time>
      </trkpt>
      <trkpt lat="44.88674" lon="4.18114">
        <ele>1513</ele>
        <time>2022-05-08T14:29:37Z</time>
      </trkpt>
      <trkpt lat="44.88678" lon="4.18105">
        <ele>1514</ele>
        <time>2022-05-08T14:29:37Z</time>
      </trkpt>
      <trkpt lat="44.88683" lon="4.18092">
        <ele>1515</ele>
        <time>2022-05-08T14:29:37Z</time>
      </trkpt>
      <trkpt lat="44.88707" lon="4.18076">
        <ele>1517</ele>
        <time>2022-05-08T14:29:37Z</time>
      </trkpt>
      <trkpt lat="44.88715" lon="4.18075">
        <ele>1518</ele>
        <time>2022-05-08T14:29:37Z</time>
      </trkpt>
      <trkpt lat="44.88743" lon="4.18094">
        <ele>1520</ele>
        <time>2022-05-08T14:29:37Z</time>
      </trkpt>
      <trkpt lat="44.88759" lon="4.18092">
        <ele>1522</ele>
        <time>2022-05-08T14:29:37Z</time>
      </trkpt>
      <trkpt lat="44.88777" lon="4.18097">
        <ele>1524</ele>
        <time>2022-05-08T14:29:37Z</time>
      </trkpt>
      <trkpt lat="44.88797" lon="4.18096">
        <ele>1527</ele>
        <time>2022-05-08T14:29:37Z</time>
      </trkpt>
      <trkpt lat="44.88818" lon="4.18107">
        <ele>1529</ele>
        <time>2022-05-08T14:29:37Z</time>
      </trkpt>
      <trkpt lat="44.88825" lon="4.18112">
        <ele>1542</ele>
        <time>2022-05-08T14:29:37Z</time>
      </trkpt>
      <trkpt lat="44.88903" lon="4.18137">
        <ele>1544</ele>
        <time>2022-05-08T14:29:37Z</time>
      </trkpt>
      <trkpt lat="44.8891" lon="4.18143">
        <ele>1545</ele>
        <time>2022-05-08T14:29:37Z</time>
      </trkpt>
      <trkpt lat="44.88922" lon="4.18165">
        <ele>1545</ele>
        <time>2022-05-08T14:29:37Z</time>
      </trkpt>
      <trkpt lat="44.88937" lon="4.18181">
        <ele>1546</ele>
        <time>2022-05-08T14:29:37Z</time>
      </trkpt>
      <trkpt lat="44.89019" lon="4.18233">
        <ele>1547</ele>
        <time>2022-05-08T14:29:37Z</time>
      </trkpt>
      <trkpt lat="44.89032" lon="4.18248">
        <ele>1548</ele>
        <time>2022-05-08T14:29:37Z</time>
      </trkpt>
      <trkpt lat="44.89096" lon="4.18293">
        <ele>1550</ele>
        <time>2022-05-08T14:29:37Z</time>
      </trkpt>
      <trkpt lat="44.89156" lon="4.18301">
        <ele>1553</ele>
        <time>2022-05-08T14:29:37Z</time>
      </trkpt>
      <trkpt lat="44.89176" lon="4.18309">
        <ele>1555</ele>
        <time>2022-05-08T14:29:37Z</time>
      </trkpt>
      <trkpt lat="44.89231" lon="4.18308">
        <ele>1558</ele>
        <time>2022-05-08T14:29:37Z</time>
      </trkpt>
      <trkpt lat="44.89245" lon="4.18302">
        <ele>1560</ele>
        <time>2022-05-08T14:29:37Z</time>
      </trkpt>
      <trkpt lat="44.89264" lon="4.1829">
        <ele>1562</ele>
        <time>2022-05-08T14:29:37Z</time>
      </trkpt>
      <trkpt lat="44.89273" lon="4.18291">
        <ele>1563</ele>
        <time>2022-05-08T14:29:37Z</time>
      </trkpt>
      <trkpt lat="44.89284" lon="4.18287">
        <ele>1564</ele>
        <time>2022-05-08T14:29:37Z</time>
      </trkpt>
      <trkpt lat="44.89308" lon="4.1829">
        <ele>1565</ele>
        <time>2022-05-08T14:29:37Z</time>
      </trkpt>
      <trkpt lat="44.89327" lon="4.18281">
        <ele>1567</ele>
        <time>2022-05-08T14:29:37Z</time>
      </trkpt>
      <trkpt lat="44.8936" lon="4.18319">
        <ele>1567</ele>
        <time>2022-05-08T14:29:37Z</time>
      </trkpt>
      <trkpt lat="44.89368" lon="4.18343">
        <ele>1568</ele>
        <time>2022-05-08T14:29:37Z</time>
      </trkpt>
      <trkpt lat="44.8937" lon="4.18355">
        <ele>1568</ele>
        <time>2022-05-08T14:29:37Z</time>
      </trkpt>
      <trkpt lat="44.89375" lon="4.18366">
        <ele>1568</ele>
        <time>2022-05-08T14:29:37Z</time>
      </trkpt>
      <trkpt lat="44.89408" lon="4.18358">
        <ele>1567</ele>
        <time>2022-05-08T14:29:37Z</time>
      </trkpt>
      <trkpt lat="44.89427" lon="4.18364">
        <ele>1566</ele>
        <time>2022-05-08T14:29:37Z</time>
      </trkpt>
      <trkpt lat="44.89435" lon="4.18371">
        <ele>1565</ele>
        <time>2022-05-08T14:29:37Z</time>
      </trkpt>
      <trkpt lat="44.89441" lon="4.18381">
        <ele>1564</ele>
        <time>2022-05-08T14:29:37Z</time>
      </trkpt>
      <trkpt lat="44.89477" lon="4.18382">
        <ele>1562</ele>
        <time>2022-05-08T14:29:37Z</time>
      </trkpt>
      <trkpt lat="44.89495" lon="4.18378">
        <ele>1560</ele>
        <time>2022-05-08T14:29:37Z</time>
      </trkpt>
      <trkpt lat="44.89495" lon="4.18378">
        <ele>1551</ele>
        <time>2022-05-08T14:29:37Z</time>
      </trkpt>
      <trkpt lat="44.89523" lon="4.18363">
        <ele>1551</ele>
        <time>2022-05-08T14:29:37Z</time>
      </trkpt>
      <trkpt lat="44.89532" lon="4.1836">
        <ele>1551</ele>
        <time>2022-05-08T14:29:37Z</time>
      </trkpt>
      <trkpt lat="44.89542" lon="4.18361">
        <ele>1550</ele>
        <time>2022-05-08T14:29:37Z</time>
      </trkpt>
      <trkpt lat="44.89565" lon="4.18391">
        <ele>1549</ele>
        <time>2022-05-08T14:29:37Z</time>
      </trkpt>
      <trkpt lat="44.89573" lon="4.18394">
        <ele>1549</ele>
        <time>2022-05-08T14:29:37Z</time>
      </trkpt>
      <trkpt lat="44.89602" lon="4.18391">
        <ele>1547</ele>
        <time>2022-05-08T14:29:37Z</time>
      </trkpt>
      <trkpt lat="44.89611" lon="4.18387">
        <ele>1546</ele>
        <time>2022-05-08T14:29:37Z</time>
      </trkpt>
      <trkpt lat="44.89621" lon="4.18388">
        <ele>1545</ele>
        <time>2022-05-08T14:29:37Z</time>
      </trkpt>
      <trkpt lat="44.89635" lon="4.18399">
        <ele>1543</ele>
        <time>2022-05-08T14:29:37Z</time>
      </trkpt>
      <trkpt lat="44.89677" lon="4.18409">
        <ele>1541</ele>
        <time>2022-05-08T14:29:37Z</time>
      </trkpt>
      <trkpt lat="44.89686" lon="4.18414">
        <ele>1539</ele>
        <time>2022-05-08T14:29:37Z</time>
      </trkpt>
      <trkpt lat="44.89702" lon="4.18418">
        <ele>1538</ele>
        <time>2022-05-08T14:29:37Z</time>
      </trkpt>
      <trkpt lat="44.89722" lon="4.18417">
        <ele>1536</ele>
        <time>2022-05-08T14:29:37Z</time>
      </trkpt>
      <trkpt lat="44.89747" lon="4.18423">
        <ele>1534</ele>
        <time>2022-05-08T14:29:37Z</time>
      </trkpt>
      <trkpt lat="44.89763" lon="4.18435">
        <ele>1532</ele>
        <time>2022-05-08T14:29:37Z</time>
      </trkpt>
      <trkpt lat="44.89779" lon="4.18441">
        <ele>1531</ele>
        <time>2022-05-08T14:29:37Z</time>
      </trkpt>
      <trkpt lat="44.89789" lon="4.18438">
        <ele>1529</ele>
        <time>2022-05-08T14:29:37Z</time>
      </trkpt>
      <trkpt lat="44.89844" lon="4.18457">
        <ele>1526</ele>
        <time>2022-05-08T14:29:37Z</time>
      </trkpt>
      <trkpt lat="44.89917" lon="4.18502">
        <ele>1522</ele>
        <time>2022-05-08T14:29:37Z</time>
      </trkpt>
      <trkpt lat="44.89925" lon="4.185">
        <ele>1519</ele>
        <time>2022-05-08T14:29:37Z</time>
      </trkpt>
      <trkpt lat="44.89932" lon="4.18493">
        <ele>1517</ele>
        <time>2022-05-08T14:29:37Z</time>
      </trkpt>
      <trkpt lat="44.8994" lon="4.18519">
        <ele>1515</ele>
        <time>2022-05-08T14:29:37Z</time>
      </trkpt>
      <trkpt lat="44.89984" lon="4.18531">
        <ele>1509</ele>
        <time>2022-05-08T14:29:37Z</time>
      </trkpt>
      <trkpt lat="44.89996" lon="4.18526">
        <ele>1509</ele>
        <time>2022-05-08T14:29:37Z</time>
      </trkpt>
      <trkpt lat="44.90009" lon="4.18527">
        <ele>1510</ele>
        <time>2022-05-08T14:29:37Z</time>
      </trkpt>
      <trkpt lat="44.90018" lon="4.18523">
        <ele>1510</ele>
        <time>2022-05-08T14:29:37Z</time>
      </trkpt>
      <trkpt lat="44.90038" lon="4.18503">
        <ele>1511</ele>
        <time>2022-05-08T14:29:37Z</time>
      </trkpt>
      <trkpt lat="44.90062" lon="4.18511">
        <ele>1512</ele>
        <time>2022-05-08T14:29:37Z</time>
      </trkpt>
      <trkpt lat="44.90085" lon="4.18529">
        <ele>1513</ele>
        <time>2022-05-08T14:29:37Z</time>
      </trkpt>
      <trkpt lat="44.90094" lon="4.18542">
        <ele>1514</ele>
        <time>2022-05-08T14:29:37Z</time>
      </trkpt>
      <trkpt lat="44.90107" lon="4.1855">
        <ele>1515</ele>
        <time>2022-05-08T14:29:37Z</time>
      </trkpt>
      <trkpt lat="44.90115" lon="4.18549">
        <ele>1516</ele>
        <time>2022-05-08T14:29:37Z</time>
      </trkpt>
      <trkpt lat="44.9013" lon="4.18554">
        <ele>1517</ele>
        <time>2022-05-08T14:29:37Z</time>
      </trkpt>
      <trkpt lat="44.90141" lon="4.18564">
        <ele>1517</ele>
        <time>2022-05-08T14:29:37Z</time>
      </trkpt>
      <trkpt lat="44.90156" lon="4.18585">
        <ele>1518</ele>
        <time>2022-05-08T14:29:37Z</time>
      </trkpt>
      <trkpt lat="44.90169" lon="4.18593">
        <ele>1519</ele>
        <time>2022-05-08T14:29:37Z</time>
      </trkpt>
      <trkpt lat="44.90184" lon="4.18611">
        <ele>1520</ele>
        <time>2022-05-08T14:29:37Z</time>
      </trkpt>
      <trkpt lat="44.90203" lon="4.1862">
        <ele>1522</ele>
        <time>2022-05-08T14:29:37Z</time>
      </trkpt>
      <trkpt lat="44.90209" lon="4.1859">
        <ele>1524</ele>
        <time>2022-05-08T14:29:37Z</time>
      </trkpt>
      <trkpt lat="44.90223" lon="4.18568">
        <ele>1525</ele>
        <time>2022-05-08T14:29:37Z</time>
      </trkpt>
      <trkpt lat="44.90229" lon="4.18562">
        <ele>1527</ele>
        <time>2022-05-08T14:29:37Z</time>
      </trkpt>
      <trkpt lat="44.90238" lon="4.18567">
        <ele>1528</ele>
        <time>2022-05-08T14:29:37Z</time>
      </trkpt>
      <trkpt lat="44.90247" lon="4.18615">
        <ele>1530</ele>
        <time>2022-05-08T14:29:37Z</time>
      </trkpt>
      <trkpt lat="44.90254" lon="4.18611">
        <ele>1532</ele>
        <time>2022-05-08T14:29:37Z</time>
      </trkpt>
      <trkpt lat="44.90264" lon="4.186">
        <ele>1533</ele>
        <time>2022-05-08T14:29:37Z</time>
      </trkpt>
      <trkpt lat="44.90277" lon="4.18596">
        <ele>1535</ele>
        <time>2022-05-08T14:29:37Z</time>
      </trkpt>
      <trkpt lat="44.90289" lon="4.18597">
        <ele>1536</ele>
        <time>2022-05-08T14:29:37Z</time>
      </trkpt>
      <trkpt lat="44.90301" lon="4.18593">
        <ele>1538</ele>
        <time>2022-05-08T14:29:37Z</time>
      </trkpt>
      <trkpt lat="44.90308" lon="4.18585">
        <ele>1539</ele>
        <time>2022-05-08T14:29:37Z</time>
      </trkpt>
      <trkpt lat="44.90319" lon="4.1859">
        <ele>1540</ele>
        <time>2022-05-08T14:29:37Z</time>
      </trkpt>
      <trkpt lat="44.90319" lon="4.18602">
        <ele>1541</ele>
        <time>2022-05-08T14:29:37Z</time>
      </trkpt>
      <trkpt lat="44.90321" lon="4.18613">
        <ele>1543</ele>
        <time>2022-05-08T14:29:37Z</time>
      </trkpt>
      <trkpt lat="44.90342" lon="4.1861">
        <ele>1544</ele>
        <time>2022-05-08T14:29:37Z</time>
      </trkpt>
      <trkpt lat="44.90369" lon="4.18598">
        <ele>1546</ele>
        <time>2022-05-08T14:29:37Z</time>
      </trkpt>
      <trkpt lat="44.90376" lon="4.18596">
        <ele>1548</ele>
        <time>2022-05-08T14:29:37Z</time>
      </trkpt>
      <trkpt lat="44.90383" lon="4.18588">
        <ele>1550</ele>
        <time>2022-05-08T14:29:37Z</time>
      </trkpt>
      <trkpt lat="44.90384" lon="4.18601">
        <ele>1551</ele>
        <time>2022-05-08T14:29:37Z</time>
      </trkpt>
      <trkpt lat="44.90376" lon="4.18627">
        <ele>1553</ele>
        <time>2022-05-08T14:29:37Z</time>
      </trkpt>
      <trkpt lat="44.90371" lon="4.18637">
        <ele>1554</ele>
        <time>2022-05-08T14:29:37Z</time>
      </trkpt>
      <trkpt lat="44.90382" lon="4.18641">
        <ele>1556</ele>
        <time>2022-05-08T14:29:37Z</time>
      </trkpt>
      <trkpt lat="44.90402" lon="4.18625">
        <ele>1558</ele>
        <time>2022-05-08T14:29:37Z</time>
      </trkpt>
      <trkpt lat="44.90413" lon="4.18622">
        <ele>1559</ele>
        <time>2022-05-08T14:29:37Z</time>
      </trkpt>
      <trkpt lat="44.90413" lon="4.18622">
        <ele>1569</ele>
        <time>2022-05-08T14:29:37Z</time>
      </trkpt>
      <trkpt lat="44.90434" lon="4.18623">
        <ele>1569</ele>
        <time>2022-05-08T14:29:37Z</time>
      </trkpt>
      <trkpt lat="44.90437" lon="4.18632">
        <ele>1570</ele>
        <time>2022-05-08T14:29:37Z</time>
      </trkpt>
      <trkpt lat="44.90447" lon="4.18697">
        <ele>1571</ele>
        <time>2022-05-08T14:29:37Z</time>
      </trkpt>
      <trkpt lat="44.90471" lon="4.18757">
        <ele>1574</ele>
        <time>2022-05-08T14:29:37Z</time>
      </trkpt>
      <trkpt lat="44.90474" lon="4.18773">
        <ele>1576</ele>
        <time>2022-05-08T14:29:37Z</time>
      </trkpt>
      <trkpt lat="44.90474" lon="4.18795">
        <ele>1578</ele>
        <time>2022-05-08T14:29:37Z</time>
      </trkpt>
      <trkpt lat="44.90479" lon="4.18811">
        <ele>1579</ele>
        <time>2022-05-08T14:29:37Z</time>
      </trkpt>
      <trkpt lat="44.90488" lon="4.18801">
        <ele>1581</ele>
        <time>2022-05-08T14:29:37Z</time>
      </trkpt>
      <trkpt lat="44.90509" lon="4.18764">
        <ele>1583</ele>
        <time>2022-05-08T14:29:37Z</time>
      </trkpt>
      <trkpt lat="44.90526" lon="4.18751">
        <ele>1599</ele>
        <time>2022-05-08T14:29:37Z</time>
      </trkpt>
      <trkpt lat="44.90534" lon="4.18749">
        <ele>1600</ele>
        <time>2022-05-08T14:29:37Z</time>
      </trkpt>
      <trkpt lat="44.90549" lon="4.18751">
        <ele>1600</ele>
        <time>2022-05-08T14:29:37Z</time>
      </trkpt>
      <trkpt lat="44.90558" lon="4.18746">
        <ele>1601</ele>
        <time>2022-05-08T14:29:37Z</time>
      </trkpt>
      <trkpt lat="44.90593" lon="4.18735">
        <ele>1603</ele>
        <time>2022-05-08T14:29:37Z</time>
      </trkpt>
      <trkpt lat="44.90609" lon="4.18734">
        <ele>1604</ele>
        <time>2022-05-08T14:29:37Z</time>
      </trkpt>
      <trkpt lat="44.90619" lon="4.18731">
        <ele>1606</ele>
        <time>2022-05-08T14:29:37Z</time>
      </trkpt>
      <trkpt lat="44.90627" lon="4.18737">
        <ele>1607</ele>
        <time>2022-05-08T14:29:37Z</time>
      </trkpt>
      <trkpt lat="44.90651" lon="4.18747">
        <ele>1609</ele>
        <time>2022-05-08T14:29:37Z</time>
      </trkpt>
      <trkpt lat="44.9067" lon="4.18746">
        <ele>1610</ele>
        <time>2022-05-08T14:29:37Z</time>
      </trkpt>
      <trkpt lat="44.90677" lon="4.1874">
        <ele>1612</ele>
        <time>2022-05-08T14:29:37Z</time>
      </trkpt>
      <trkpt lat="44.90685" lon="4.18738">
        <ele>1613</ele>
        <time>2022-05-08T14:29:37Z</time>
      </trkpt>
      <trkpt lat="44.90694" lon="4.18738">
        <ele>1614</ele>
        <time>2022-05-08T14:29:37Z</time>
      </trkpt>
      <trkpt lat="44.9078" lon="4.18765">
        <ele>1618</ele>
        <time>2022-05-08T14:29:37Z</time>
      </trkpt>
      <trkpt lat="44.90788" lon="4.18765">
        <ele>1621</ele>
        <time>2022-05-08T14:29:37Z</time>
      </trkpt>
      <trkpt lat="44.90829" lon="4.18782">
        <ele>1625</ele>
        <time>2022-05-08T14:29:37Z</time>
      </trkpt>
      <trkpt lat="44.90838" lon="4.18783">
        <ele>1628</ele>
        <time>2022-05-08T14:29:37Z</time>
      </trkpt>
      <trkpt lat="44.90847" lon="4.18788">
        <ele>1630</ele>
        <time>2022-05-08T14:29:37Z</time>
      </trkpt>
      <trkpt lat="44.90863" lon="4.18802">
        <ele>1632</ele>
        <time>2022-05-08T14:29:37Z</time>
      </trkpt>
      <trkpt lat="44.9089" lon="4.18806">
        <ele>1635</ele>
        <time>2022-05-08T14:29:37Z</time>
      </trkpt>
      <trkpt lat="44.90899" lon="4.18812">
        <ele>1637</ele>
        <time>2022-05-08T14:29:37Z</time>
      </trkpt>
      <trkpt lat="44.90908" lon="4.18816">
        <ele>1638</ele>
        <time>2022-05-08T14:29:37Z</time>
      </trkpt>
      <trkpt lat="44.90925" lon="4.18812">
        <ele>1640</ele>
        <time>2022-05-08T14:29:37Z</time>
      </trkpt>
      <trkpt lat="44.9094" lon="4.18803">
        <ele>1641</ele>
        <time>2022-05-08T14:29:37Z</time>
      </trkpt>
      <trkpt lat="44.90965" lon="4.18796">
        <ele>1643</ele>
        <time>2022-05-08T14:29:37Z</time>
      </trkpt>
      <trkpt lat="44.90976" lon="4.18781">
        <ele>1644</ele>
        <time>2022-05-08T14:29:37Z</time>
      </trkpt>
      <trkpt lat="44.90994" lon="4.18773">
        <ele>1645</ele>
        <time>2022-05-08T14:29:37Z</time>
      </trkpt>
      <trkpt lat="44.91003" lon="4.18771">
        <ele>1646</ele>
        <time>2022-05-08T14:29:37Z</time>
      </trkpt>
      <trkpt lat="44.9101" lon="4.18763">
        <ele>1647</ele>
        <time>2022-05-08T14:29:37Z</time>
      </trkpt>
      <trkpt lat="44.91018" lon="4.18762">
        <ele>1647</ele>
        <time>2022-05-08T14:29:37Z</time>
      </trkpt>
      <trkpt lat="44.91026" lon="4.18769">
        <ele>1648</ele>
        <time>2022-05-08T14:29:37Z</time>
      </trkpt>
      <trkpt lat="44.91036" lon="4.18773">
        <ele>1649</ele>
        <time>2022-05-08T14:29:37Z</time>
      </trkpt>
      <trkpt lat="44.91045" lon="4.18772">
        <ele>1650</ele>
        <time>2022-05-08T14:29:37Z</time>
      </trkpt>
      <trkpt lat="44.91051" lon="4.18778">
        <ele>1650</ele>
        <time>2022-05-08T14:29:37Z</time>
      </trkpt>
      <trkpt lat="44.91061" lon="4.18779">
        <ele>1651</ele>
        <time>2022-05-08T14:29:37Z</time>
      </trkpt>
      <trkpt lat="44.91066" lon="4.18786">
        <ele>1652</ele>
        <time>2022-05-08T14:29:37Z</time>
      </trkpt>
      <trkpt lat="44.91075" lon="4.1881">
        <ele>1653</ele>
        <time>2022-05-08T14:29:37Z</time>
      </trkpt>
      <trkpt lat="44.911" lon="4.18828">
        <ele>1655</ele>
        <time>2022-05-08T14:29:37Z</time>
      </trkpt>
      <trkpt lat="44.911" lon="4.18828">
        <ele>1665</ele>
        <time>2022-05-08T14:29:37Z</time>
      </trkpt>
      <trkpt lat="44.91128" lon="4.18839">
        <ele>1665</ele>
        <time>2022-05-08T14:29:37Z</time>
      </trkpt>
      <trkpt lat="44.91159" lon="4.18835">
        <ele>1666</ele>
        <time>2022-05-08T14:29:37Z</time>
      </trkpt>
      <trkpt lat="44.91166" lon="4.1884">
        <ele>1667</ele>
        <time>2022-05-08T14:29:37Z</time>
      </trkpt>
      <trkpt lat="44.91155" lon="4.18893">
        <ele>1670</ele>
        <time>2022-05-08T14:29:37Z</time>
      </trkpt>
      <trkpt lat="44.91162" lon="4.18903">
        <ele>1672</ele>
        <time>2022-05-08T14:29:37Z</time>
      </trkpt>
      <trkpt lat="44.9117" lon="4.18909">
        <ele>1675</ele>
        <time>2022-05-08T14:29:37Z</time>
      </trkpt>
      <trkpt lat="44.91188" lon="4.18915">
        <ele>1677</ele>
        <time>2022-05-08T14:29:37Z</time>
      </trkpt>
      <trkpt lat="44.91197" lon="4.18923">
        <ele>1680</ele>
        <time>2022-05-08T14:29:37Z</time>
      </trkpt>
      <trkpt lat="44.91197" lon="4.18923">
        <ele>1693</ele>
        <time>2022-05-08T14:29:37Z</time>
      </trkpt>
      <trkpt lat="44.91206" lon="4.18927">
        <ele>1693</ele>
        <time>2022-05-08T14:29:37Z</time>
      </trkpt>
      <trkpt lat="44.91225" lon="4.18929">
        <ele>1694</ele>
        <time>2022-05-08T14:29:37Z</time>
      </trkpt>
      <trkpt lat="44.9125" lon="4.1894">
        <ele>1702</ele>
        <time>2022-05-08T14:29:37Z</time>
      </trkpt>
      <trkpt lat="44.91249" lon="4.18952">
        <ele>1702</ele>
        <time>2022-05-08T14:29:37Z</time>
      </trkpt>
      <trkpt lat="44.91253" lon="4.18965">
        <ele>1703</ele>
        <time>2022-05-08T14:29:37Z</time>
      </trkpt>
      <trkpt lat="44.9126" lon="4.18974">
        <ele>1704</ele>
        <time>2022-05-08T14:29:37Z</time>
      </trkpt>
      <trkpt lat="44.91269" lon="4.18981">
        <ele>1705</ele>
        <time>2022-05-08T14:29:37Z</time>
      </trkpt>
      <trkpt lat="44.91273" lon="4.18993">
        <ele>1706</ele>
        <time>2022-05-08T14:29:37Z</time>
      </trkpt>
      <trkpt lat="44.9127" lon="4.19056">
        <ele>1708</ele>
        <time>2022-05-08T14:29:37Z</time>
      </trkpt>
      <trkpt lat="44.9127" lon="4.19056">
        <ele>1720</ele>
        <time>2022-05-08T14:29:37Z</time>
      </trkpt>
      <trkpt lat="44.91254" lon="4.19119">
        <ele>1721</ele>
        <time>2022-05-08T14:29:37Z</time>
      </trkpt>
      <trkpt lat="44.91244" lon="4.19139">
        <ele>1722</ele>
        <time>2022-05-08T14:29:37Z</time>
      </trkpt>
      <trkpt lat="44.91226" lon="4.19138">
        <ele>1724</ele>
        <time>2022-05-08T14:29:37Z</time>
      </trkpt>
      <trkpt lat="44.91217" lon="4.19131">
        <ele>1725</ele>
        <time>2022-05-08T14:29:37Z</time>
      </trkpt>
      <trkpt lat="44.91164" lon="4.19128">
        <ele>1728</ele>
        <time>2022-05-08T14:29:37Z</time>
      </trkpt>
      <trkpt lat="44.91164" lon="4.19128">
        <ele>1738</ele>
        <time>2022-05-08T14:29:37Z</time>
      </trkpt>
      <trkpt lat="44.91145" lon="4.19123">
        <ele>1739</ele>
        <time>2022-05-08T14:29:37Z</time>
      </trkpt>
      <trkpt lat="44.91137" lon="4.19119">
        <ele>1740</ele>
        <time>2022-05-08T14:29:37Z</time>
      </trkpt>
      <trkpt lat="44.91129" lon="4.19111">
        <ele>1741</ele>
        <time>2022-05-08T14:29:37Z</time>
      </trkpt>
      <trkpt lat="44.91112" lon="4.19103">
        <ele>1742</ele>
        <time>2022-05-08T14:29:37Z</time>
      </trkpt>
      <trkpt lat="44.91105" lon="4.19097">
        <ele>1743</ele>
        <time>2022-05-08T14:29:37Z</time>
      </trkpt>
      <trkpt lat="44.91099" lon="4.19087">
        <ele>1745</ele>
        <time>2022-05-08T14:29:37Z</time>
      </trkpt>
      <trkpt lat="44.91093" lon="4.19096">
        <ele>1746</ele>
        <time>2022-05-08T14:29:37Z</time>
      </trkpt>
      <trkpt lat="44.91065" lon="4.19194">
        <ele>1745</ele>
        <time>2022-05-08T14:29:37Z</time>
      </trkpt>
      <trkpt lat="44.91045" lon="4.19236">
        <ele>1745</ele>
        <time>2022-05-08T14:29:37Z</time>
      </trkpt>
      <trkpt lat="44.91041" lon="4.19257">
        <ele>1745</ele>
        <time>2022-05-08T14:29:37Z</time>
      </trkpt>
      <trkpt lat="44.91048" lon="4.1927">
        <ele>1744</ele>
        <time>2022-05-08T14:29:37Z</time>
      </trkpt>
      <trkpt lat="44.91048" lon="4.1927">
        <ele>1741</ele>
        <time>2022-05-08T14:29:37Z</time>
      </trkpt>
      <trkpt lat="44.91061" lon="4.19287">
        <ele>1741</ele>
        <time>2022-05-08T14:29:37Z</time>
      </trkpt>
      <trkpt lat="44.9107" lon="4.19293">
        <ele>1741</ele>
        <time>2022-05-08T14:29:37Z</time>
      </trkpt>
      <trkpt lat="44.91079" lon="4.19295">
        <ele>1741</ele>
        <time>2022-05-08T14:29:37Z</time>
      </trkpt>
      <trkpt lat="44.91101" lon="4.19273">
        <ele>1740</ele>
        <time>2022-05-08T14:29:37Z</time>
      </trkpt>
      <trkpt lat="44.91107" lon="4.19264">
        <ele>1740</ele>
        <time>2022-05-08T14:29:37Z</time>
      </trkpt>
      <trkpt lat="44.91123" lon="4.19257">
        <ele>1739</ele>
        <time>2022-05-08T14:29:37Z</time>
      </trkpt>
      <trkpt lat="44.91155" lon="4.19225">
        <ele>1738</ele>
        <time>2022-05-08T14:29:37Z</time>
      </trkpt>
      <trkpt lat="44.91164" lon="4.19222">
        <ele>1737</ele>
        <time>2022-05-08T14:29:37Z</time>
      </trkpt>
      <trkpt lat="44.91176" lon="4.19199">
        <ele>1736</ele>
        <time>2022-05-08T14:29:37Z</time>
      </trkpt>
      <trkpt lat="44.91183" lon="4.19191">
        <ele>1736</ele>
        <time>2022-05-08T14:29:37Z</time>
      </trkpt>
      <trkpt lat="44.91216" lon="4.19169">
        <ele>1735</ele>
        <time>2022-05-08T14:29:37Z</time>
      </trkpt>
      <trkpt lat="44.91244" lon="4.19139">
        <ele>1733</ele>
        <time>2022-05-08T14:29:37Z</time>
      </trkpt>
      <trkpt lat="44.9127" lon="4.19134">
        <ele>1732</ele>
        <time>2022-05-08T14:29:37Z</time>
      </trkpt>
      <trkpt lat="44.91279" lon="4.1913">
        <ele>1730</ele>
        <time>2022-05-08T14:29:37Z</time>
      </trkpt>
      <trkpt lat="44.91352" lon="4.19073">
        <ele>1730</ele>
        <time>2022-05-08T14:29:37Z</time>
      </trkpt>
      <trkpt lat="44.91352" lon="4.19073">
        <ele>1729</ele>
        <time>2022-05-08T14:29:37Z</time>
      </trkpt>
      <trkpt lat="44.9136" lon="4.19069">
        <ele>1729</ele>
        <time>2022-05-08T14:29:37Z</time>
      </trkpt>
      <trkpt lat="44.91384" lon="4.19045">
        <ele>1730</ele>
        <time>2022-05-08T14:29:37Z</time>
      </trkpt>
      <trkpt lat="44.91383" lon="4.19032">
        <ele>1730</ele>
        <time>2022-05-08T14:29:37Z</time>
      </trkpt>
      <trkpt lat="44.91354" lon="4.18996">
        <ele>1729</ele>
        <time>2022-05-08T14:29:37Z</time>
      </trkpt>
      <trkpt lat="44.91341" lon="4.18946">
        <ele>1726</ele>
        <time>2022-05-08T14:29:37Z</time>
      </trkpt>
      <trkpt lat="44.91325" lon="4.18934">
        <ele>1724</ele>
        <time>2022-05-08T14:29:37Z</time>
      </trkpt>
      <trkpt lat="44.91315" lon="4.18931">
        <ele>1722</ele>
        <time>2022-05-08T14:29:37Z</time>
      </trkpt>
      <trkpt lat="44.91297" lon="4.18931">
        <ele>1720</ele>
        <time>2022-05-08T14:29:37Z</time>
      </trkpt>
      <trkpt lat="44.91297" lon="4.18931">
        <ele>1710</ele>
        <time>2022-05-08T14:29:37Z</time>
      </trkpt>
      <trkpt lat="44.9128" lon="4.18935">
        <ele>1709</ele>
        <time>2022-05-08T14:29:37Z</time>
      </trkpt>
      <trkpt lat="44.9126" lon="4.18935">
        <ele>1708</ele>
        <time>2022-05-08T14:29:37Z</time>
      </trkpt>
      <trkpt lat="44.9125" lon="4.1894">
        <ele>1707</ele>
        <time>2022-05-08T14:29:37Z</time>
      </trkpt>
      <trkpt lat="44.91225" lon="4.18929">
        <ele>1706</ele>
        <time>2022-05-08T14:29:37Z</time>
      </trkpt>
      <trkpt lat="44.91206" lon="4.18927">
        <ele>1704</ele>
        <time>2022-05-08T14:29:37Z</time>
      </trkpt>
      <trkpt lat="44.91164" lon="4.18906">
        <ele>1700</ele>
        <time>2022-05-08T14:29:37Z</time>
      </trkpt>
      <trkpt lat="44.91156" lon="4.18898">
        <ele>1697</ele>
        <time>2022-05-08T14:29:37Z</time>
      </trkpt>
      <trkpt lat="44.91158" lon="4.18885">
        <ele>1695</ele>
        <time>2022-05-08T14:29:37Z</time>
      </trkpt>
      <trkpt lat="44.91164" lon="4.18844">
        <ele>1691</ele>
        <time>2022-05-08T14:29:37Z</time>
      </trkpt>
      <trkpt lat="44.91159" lon="4.18835">
        <ele>1687</ele>
        <time>2022-05-08T14:29:37Z</time>
      </trkpt>
      <trkpt lat="44.91152" lon="4.18831">
        <ele>1685</ele>
        <time>2022-05-08T14:29:37Z</time>
      </trkpt>
      <trkpt lat="44.91129" lon="4.18807">
        <ele>1681</ele>
        <time>2022-05-08T14:29:37Z</time>
      </trkpt>
      <trkpt lat="44.91117" lon="4.18779">
        <ele>1678</ele>
        <time>2022-05-08T14:29:37Z</time>
      </trkpt>
      <trkpt lat="44.91112" lon="4.1877">
        <ele>1674</ele>
        <time>2022-05-08T14:29:37Z</time>
      </trkpt>
      <trkpt lat="44.91104" lon="4.18752">
        <ele>1671</ele>
        <time>2022-05-08T14:29:37Z</time>
      </trkpt>
      <trkpt lat="44.91091" lon="4.18736">
        <ele>1668</ele>
        <time>2022-05-08T14:29:37Z</time>
      </trkpt>
      <trkpt lat="44.91088" lon="4.18682">
        <ele>1664</ele>
        <time>2022-05-08T14:29:37Z</time>
      </trkpt>
      <trkpt lat="44.91088" lon="4.18682">
        <ele>1644</ele>
        <time>2022-05-08T14:29:37Z</time>
      </trkpt>
      <trkpt lat="44.91083" lon="4.18672">
        <ele>1644</ele>
        <time>2022-05-08T14:29:37Z</time>
      </trkpt>
      <trkpt lat="44.9108" lon="4.18658">
        <ele>1644</ele>
        <time>2022-05-08T14:29:37Z</time>
      </trkpt>
      <trkpt lat="44.91074" lon="4.18652">
        <ele>1643</ele>
        <time>2022-05-08T14:29:37Z</time>
      </trkpt>
      <trkpt lat="44.91058" lon="4.1865">
        <ele>1643</ele>
        <time>2022-05-08T14:29:37Z</time>
      </trkpt>
      <trkpt lat="44.91043" lon="4.18638">
        <ele>1642</ele>
        <time>2022-05-08T14:29:37Z</time>
      </trkpt>
      <trkpt lat="44.91052" lon="4.18617">
        <ele>1640</ele>
        <time>2022-05-08T14:29:37Z</time>
      </trkpt>
      <trkpt lat="44.91065" lon="4.18599">
        <ele>1639</ele>
        <time>2022-05-08T14:29:37Z</time>
      </trkpt>
      <trkpt lat="44.91068" lon="4.18585">
        <ele>1638</ele>
        <time>2022-05-08T14:29:37Z</time>
      </trkpt>
      <trkpt lat="44.91056" lon="4.18564">
        <ele>1636</ele>
        <time>2022-05-08T14:29:37Z</time>
      </trkpt>
      <trkpt lat="44.91059" lon="4.1854">
        <ele>1634</ele>
        <time>2022-05-08T14:29:37Z</time>
      </trkpt>
      <trkpt lat="44.91066" lon="4.18503">
        <ele>1631</ele>
        <time>2022-05-08T14:29:37Z</time>
      </trkpt>
      <trkpt lat="44.91079" lon="4.18485">
        <ele>1629</ele>
        <time>2022-05-08T14:29:37Z</time>
      </trkpt>
      <trkpt lat="44.91088" lon="4.1848">
        <ele>1627</ele>
        <time>2022-05-08T14:29:37Z</time>
      </trkpt>
      <trkpt lat="44.91117" lon="4.18452">
        <ele>1625</ele>
        <time>2022-05-08T14:29:37Z</time>
      </trkpt>
      <trkpt lat="44.91122" lon="4.1844">
        <ele>1623</ele>
        <time>2022-05-08T14:29:37Z</time>
      </trkpt>
      <trkpt lat="44.91128" lon="4.18431">
        <ele>1621</ele>
        <time>2022-05-08T14:29:37Z</time>
      </trkpt>
      <trkpt lat="44.91132" lon="4.18419">
        <ele>1619</ele>
        <time>2022-05-08T14:29:37Z</time>
      </trkpt>
      <trkpt lat="44.91133" lon="4.18409">
        <ele>1618</ele>
        <time>2022-05-08T14:29:37Z</time>
      </trkpt>
      <trkpt lat="44.91138" lon="4.18401">
        <ele>1617</ele>
        <time>2022-05-08T14:29:37Z</time>
      </trkpt>
      <trkpt lat="44.91156" lon="4.18396">
        <ele>1615</ele>
        <time>2022-05-08T14:29:37Z</time>
      </trkpt>
      <trkpt lat="44.91166" lon="4.18389">
        <ele>1614</ele>
        <time>2022-05-08T14:29:37Z</time>
      </trkpt>
      <trkpt lat="44.91178" lon="4.18368">
        <ele>1613</ele>
        <time>2022-05-08T14:29:37Z</time>
      </trkpt>
      <trkpt lat="44.912" lon="4.18351">
        <ele>1611</ele>
        <time>2022-05-08T14:29:37Z</time>
      </trkpt>
      <trkpt lat="44.91237" lon="4.18315">
        <ele>1609</ele>
        <time>2022-05-08T14:29:37Z</time>
      </trkpt>
      <trkpt lat="44.91248" lon="4.18308">
        <ele>1607</ele>
        <time>2022-05-08T14:29:37Z</time>
      </trkpt>
      <trkpt lat="44.91253" lon="4.18298">
        <ele>1605</ele>
        <time>2022-05-08T14:29:37Z</time>
      </trkpt>
      <trkpt lat="44.91269" lon="4.18284">
        <ele>1604</ele>
        <time>2022-05-08T14:29:37Z</time>
      </trkpt>
      <trkpt lat="44.91278" lon="4.18279">
        <ele>1603</ele>
        <time>2022-05-08T14:29:37Z</time>
      </trkpt>
      <trkpt lat="44.91284" lon="4.18274">
        <ele>1602</ele>
        <time>2022-05-08T14:29:37Z</time>
      </trkpt>
      <trkpt lat="44.91298" lon="4.18256">
        <ele>1600</ele>
        <time>2022-05-08T14:29:37Z</time>
      </trkpt>
      <trkpt lat="44.91316" lon="4.18257">
        <ele>1599</ele>
        <time>2022-05-08T14:29:37Z</time>
      </trkpt>
      <trkpt lat="44.91346" lon="4.18229">
        <ele>1592</ele>
        <time>2022-05-08T14:29:37Z</time>
      </trkpt>
      <trkpt lat="44.91364" lon="4.1822">
        <ele>1592</ele>
        <time>2022-05-08T14:29:37Z</time>
      </trkpt>
      <trkpt lat="44.9143" lon="4.18102">
        <ele>1591</ele>
      </trkpt>
      <trkpt lat="44.91495" lon="4.17983">
        <ele>1587</ele>
        <time>2022-05-08T14:29:37Z</time>
      </trkpt>
      <trkpt lat="44.91495" lon="4.17983">
        <ele>1579</ele>
        <time>2022-05-08T14:29:37Z</time>
      </trkpt>
      <trkpt lat="44.91508" lon="4.17959">
        <ele>1579</ele>
        <time>2022-05-08T14:29:37Z</time>
      </trkpt>
      <trkpt lat="44.9158" lon="4.17868">
        <ele>1576</ele>
        <time>2022-05-08T14:29:37Z</time>
      </trkpt>
      <trkpt lat="44.91594" lon="4.17861">
        <ele>1574</ele>
        <time>2022-05-08T14:29:37Z</time>
      </trkpt>
      <trkpt lat="44.91555" lon="4.17737">
        <ele>1571</ele>
        <time>2022-05-08T14:29:37Z</time>
      </trkpt>
      <trkpt lat="44.91541" lon="4.17615">
        <ele>1565</ele>
        <time>2022-05-08T14:29:37Z</time>
      </trkpt>
      <trkpt lat="44.91536" lon="4.17605">
        <ele>1562</ele>
        <time>2022-05-08T14:29:37Z</time>
      </trkpt>
      <trkpt lat="44.91538" lon="4.17582">
        <ele>1559</ele>
        <time>2022-05-08T14:29:37Z</time>
      </trkpt>
      <trkpt lat="44.91532" lon="4.17541">
        <ele>1557</ele>
        <time>2022-05-08T14:29:37Z</time>
      </trkpt>
      <trkpt lat="44.91491" lon="4.17397">
        <ele>1553</ele>
      </trkpt>
      <trkpt lat="44.91449" lon="4.17253">
        <ele>1546</ele>
        <time>2022-05-08T14:29:37Z</time>
      </trkpt>
      <trkpt lat="44.91449" lon="4.17253">
        <ele>1532</ele>
        <time>2022-05-08T14:29:37Z</time>
      </trkpt>
      <trkpt lat="44.91411" lon="4.17134">
        <ele>1529</ele>
      </trkpt>
      <trkpt lat="44.91372" lon="4.17015">
        <ele>1525</ele>
        <time>2022-05-08T14:29:37Z</time>
      </trkpt>
      <trkpt lat="44.91326" lon="4.1693">
        <ele>1521</ele>
        <time>2022-05-08T14:29:37Z</time>
      </trkpt>
      <trkpt lat="44.91319" lon="4.16896">
        <ele>1518</ele>
        <time>2022-05-08T14:29:37Z</time>
      </trkpt>
      <trkpt lat="44.91318" lon="4.16883">
        <ele>1516</ele>
        <time>2022-05-08T14:29:37Z</time>
      </trkpt>
      <trkpt lat="44.9132" lon="4.1687">
        <ele>1515</ele>
        <time>2022-05-08T14:29:37Z</time>
      </trkpt>
      <trkpt lat="44.91259" lon="4.16758">
        <ele>1511</ele>
        <time>2022-05-08T14:29:37Z</time>
      </trkpt>
      <trkpt lat="44.91253" lon="4.16752">
        <ele>1508</ele>
        <time>2022-05-08T14:29:37Z</time>
      </trkpt>
      <trkpt lat="44.9123" lon="4.16743">
        <ele>1506</ele>
        <time>2022-05-08T14:29:37Z</time>
      </trkpt>
      <trkpt lat="44.91182" lon="4.167">
        <ele>1503</ele>
        <time>2022-05-08T14:29:37Z</time>
      </trkpt>
      <trkpt lat="44.91165" lon="4.16676">
        <ele>1500</ele>
        <time>2022-05-08T14:29:37Z</time>
      </trkpt>
      <trkpt lat="44.91157" lon="4.16644">
        <ele>1497</ele>
        <time>2022-05-08T14:29:37Z</time>
      </trkpt>
      <trkpt lat="44.91157" lon="4.16644">
        <ele>1486</ele>
        <time>2022-05-08T14:29:37Z</time>
      </trkpt>
      <trkpt lat="44.91143" lon="4.16557">
        <ele>1484</ele>
        <time>2022-05-08T14:29:37Z</time>
      </trkpt>
      <trkpt lat="44.91142" lon="4.1653">
        <ele>1482</ele>
        <time>2022-05-08T14:29:37Z</time>
      </trkpt>
      <trkpt lat="44.91156" lon="4.16425">
        <ele>1479</ele>
        <time>2022-05-08T14:29:37Z</time>
      </trkpt>
      <trkpt lat="44.91154" lon="4.16412">
        <ele>1476</ele>
        <time>2022-05-08T14:29:37Z</time>
      </trkpt>
      <trkpt lat="44.91137" lon="4.16372">
        <ele>1473</ele>
        <time>2022-05-08T14:29:37Z</time>
      </trkpt>
      <trkpt lat="44.9112" lon="4.16347">
        <ele>1470</ele>
        <time>2022-05-08T14:29:37Z</time>
      </trkpt>
      <trkpt lat="44.91094" lon="4.16317">
        <ele>1468</ele>
        <time>2022-05-08T14:29:37Z</time>
      </trkpt>
      <trkpt lat="44.9106" lon="4.16275">
        <ele>1464</ele>
        <time>2022-05-08T14:29:37Z</time>
      </trkpt>
      <trkpt lat="44.9106" lon="4.16275">
        <ele>1453</ele>
        <time>2022-05-08T14:29:37Z</time>
      </trkpt>
      <trkpt lat="44.91035" lon="4.1625">
        <ele>1452</ele>
        <time>2022-05-08T14:29:37Z</time>
      </trkpt>
      <trkpt lat="44.90976" lon="4.1621">
        <ele>1449</ele>
        <time>2022-05-08T14:29:37Z</time>
      </trkpt>
      <trkpt lat="44.90966" lon="4.16189">
        <ele>1446</ele>
        <time>2022-05-08T14:29:37Z</time>
      </trkpt>
      <trkpt lat="44.90933" lon="4.16045">
        <ele>1441</ele>
      </trkpt>
      <trkpt lat="44.90899" lon="4.15901">
        <ele>1434</ele>
        <time>2022-05-08T14:29:37Z</time>
      </trkpt>
      <trkpt lat="44.90848" lon="4.15827">
        <ele>1428</ele>
        <time>2022-05-08T14:29:37Z</time>
      </trkpt>
      <trkpt lat="44.90747" lon="4.15737">
        <ele>1416</ele>
        <time>2022-05-08T14:29:37Z</time>
      </trkpt>
      <trkpt lat="44.90735" lon="4.15734">
        <ele>1410</ele>
        <time>2022-05-08T14:29:37Z</time>
      </trkpt>
      <trkpt lat="44.90735" lon="4.15734">
        <ele>1393</ele>
        <time>2022-05-08T14:29:37Z</time>
      </trkpt>
      <trkpt lat="44.9069" lon="4.15707">
        <ele>1391</ele>
        <time>2022-05-08T14:29:37Z</time>
      </trkpt>
      <trkpt lat="44.90608" lon="4.1569">
        <ele>1386</ele>
        <time>2022-05-08T14:29:37Z</time>
      </trkpt>
      <trkpt lat="44.90597" lon="4.15696">
        <ele>1382</ele>
        <time>2022-05-08T14:29:37Z</time>
      </trkpt>
      <trkpt lat="44.90584" lon="4.15715">
        <ele>1379</ele>
        <time>2022-05-08T14:29:37Z</time>
      </trkpt>
      <trkpt lat="44.90563" lon="4.15716">
        <ele>1377</ele>
        <time>2022-05-08T14:29:37Z</time>
      </trkpt>
      <trkpt lat="44.90539" lon="4.15708">
        <ele>1374</ele>
        <time>2022-05-08T14:29:37Z</time>
      </trkpt>
      <trkpt lat="44.90531" lon="4.15697">
        <ele>1372</ele>
        <time>2022-05-08T14:29:37Z</time>
      </trkpt>
      <trkpt lat="44.90496" lon="4.15625">
        <ele>1368</ele>
        <time>2022-05-08T14:29:37Z</time>
      </trkpt>
    </trkseg>
  </trk>
  <trk>
    <name><![CDATA[Meygal : Tour Testavoyre et lac bleu 18kms]]></name>
    <cmt><![CDATA[17:48:06]]></cmt>
    <desc><![CDATA[<html dir="ltr"><head></head><body contenteditable="true">comment ...</body></html>]]></desc>
    <trkseg>
      <trkpt lat="45.07267" lon="4.12871">
        <ele>1247</ele>
        <time>2022-05-08T15:48:06Z</time>
      </trkpt>
      <trkpt lat="45.07267" lon="4.12871">
        <ele>1247</ele>
        <time>2022-05-08T15:48:06Z</time>
      </trkpt>
      <trkpt lat="45.07256" lon="4.12881">
        <ele>1247</ele>
        <time>2022-05-08T15:48:06Z</time>
      </trkpt>
      <trkpt lat="45.07057" lon="4.12937">
        <ele>1256</ele>
        <time>2022-05-08T15:48:06Z</time>
      </trkpt>
      <trkpt lat="45.06966" lon="4.12936">
        <ele>1263</ele>
        <time>2022-05-08T15:48:06Z</time>
      </trkpt>
      <trkpt lat="45.06933" lon="4.12948">
        <ele>1268</ele>
        <time>2022-05-08T15:48:06Z</time>
      </trkpt>
      <trkpt lat="45.0671" lon="4.13059">
        <ele>1276</ele>
        <time>2022-05-08T15:48:06Z</time>
      </trkpt>
      <trkpt lat="45.0672" lon="4.13047">
        <ele>1279</ele>
        <time>2022-05-08T15:48:06Z</time>
      </trkpt>
      <trkpt lat="45.06704" lon="4.1305">
        <ele>1281</ele>
        <time>2022-05-08T15:48:06Z</time>
      </trkpt>
      <trkpt lat="45.06373" lon="4.13206">
        <ele>1284</ele>
        <time>2022-05-08T15:48:06Z</time>
      </trkpt>
      <trkpt lat="45.06373" lon="4.13206">
        <ele>1287</ele>
        <time>2022-05-08T15:48:06Z</time>
      </trkpt>
      <trkpt lat="45.06056" lon="4.1335">
        <ele>1302</ele>
        <time>2022-05-08T15:48:06Z</time>
      </trkpt>
      <trkpt lat="45.0605" lon="4.13324">
        <ele>1307</ele>
        <time>2022-05-08T15:48:06Z</time>
      </trkpt>
      <trkpt lat="45.06044" lon="4.13313">
        <ele>1309</ele>
        <time>2022-05-08T15:48:06Z</time>
      </trkpt>
      <trkpt lat="45.05943" lon="4.13225">
        <ele>1315</ele>
        <time>2022-05-08T15:48:06Z</time>
      </trkpt>
      <trkpt lat="45.05897" lon="4.13206">
        <ele>1319</ele>
        <time>2022-05-08T15:48:06Z</time>
      </trkpt>
      <trkpt lat="45.05897" lon="4.13206">
        <ele>1329</ele>
        <time>2022-05-08T15:48:06Z</time>
      </trkpt>
      <trkpt lat="45.0584" lon="4.13187">
        <ele>1331</ele>
        <time>2022-05-08T15:48:06Z</time>
      </trkpt>
      <trkpt lat="45.05803" lon="4.13155">
        <ele>1334</ele>
        <time>2022-05-08T15:48:06Z</time>
      </trkpt>
      <trkpt lat="45.05708" lon="4.13017">
        <ele>1341</ele>
        <time>2022-05-08T15:48:06Z</time>
      </trkpt>
      <trkpt lat="45.057" lon="4.1302">
        <ele>1345</ele>
        <time>2022-05-08T15:48:06Z</time>
      </trkpt>
      <trkpt lat="45.05661" lon="4.13174">
        <ele>1357</ele>
        <time>2022-05-08T15:48:06Z</time>
      </trkpt>
      <trkpt lat="45.05659" lon="4.13188">
        <ele>1364</ele>
        <time>2022-05-08T15:48:06Z</time>
      </trkpt>
      <trkpt lat="45.05667" lon="4.13232">
        <ele>1370</ele>
        <time>2022-05-08T15:48:06Z</time>
      </trkpt>
      <trkpt lat="45.05665" lon="4.13253">
        <ele>1375</ele>
        <time>2022-05-08T15:48:06Z</time>
      </trkpt>
      <trkpt lat="45.0566" lon="4.1327">
        <ele>1379</ele>
        <time>2022-05-08T15:48:06Z</time>
      </trkpt>
      <trkpt lat="45.05652" lon="4.13285">
        <ele>1382</ele>
        <time>2022-05-08T15:48:06Z</time>
      </trkpt>
      <trkpt lat="45.05643" lon="4.13295">
        <ele>1385</ele>
        <time>2022-05-08T15:48:06Z</time>
      </trkpt>
      <trkpt lat="45.05607" lon="4.13305">
        <ele>1389</ele>
        <time>2022-05-08T15:48:06Z</time>
      </trkpt>
      <trkpt lat="45.05597" lon="4.13317">
        <ele>1391</ele>
        <time>2022-05-08T15:48:06Z</time>
      </trkpt>
      <trkpt lat="45.05582" lon="4.13322">
        <ele>1393</ele>
        <time>2022-05-08T15:48:06Z</time>
      </trkpt>
      <trkpt lat="45.05568" lon="4.13308">
        <ele>1394</ele>
        <time>2022-05-08T15:48:06Z</time>
      </trkpt>
      <trkpt lat="45.05563" lon="4.13298">
        <ele>1395</ele>
        <time>2022-05-08T15:48:06Z</time>
      </trkpt>
      <trkpt lat="45.05558" lon="4.1329">
        <ele>1396</ele>
        <time>2022-05-08T15:48:06Z</time>
      </trkpt>
      <trkpt lat="45.05549" lon="4.13265">
        <ele>1397</ele>
        <time>2022-05-08T15:48:06Z</time>
      </trkpt>
      <trkpt lat="45.05549" lon="4.13249">
        <ele>1398</ele>
        <time>2022-05-08T15:48:06Z</time>
      </trkpt>
      <trkpt lat="45.05551" lon="4.13233">
        <ele>1399</ele>
        <time>2022-05-08T15:48:06Z</time>
      </trkpt>
      <trkpt lat="45.05555" lon="4.13224">
        <ele>1400</ele>
        <time>2022-05-08T15:48:06Z</time>
      </trkpt>
      <trkpt lat="45.05551" lon="4.13207">
        <ele>1401</ele>
        <time>2022-05-08T15:48:06Z</time>
      </trkpt>
      <trkpt lat="45.05543" lon="4.13189">
        <ele>1403</ele>
        <time>2022-05-08T15:48:06Z</time>
      </trkpt>
      <trkpt lat="45.05524" lon="4.1317">
        <ele>1406</ele>
        <time>2022-05-08T15:48:06Z</time>
      </trkpt>
      <trkpt lat="45.05521" lon="4.13159">
        <ele>1409</ele>
        <time>2022-05-08T15:48:06Z</time>
      </trkpt>
      <trkpt lat="45.05521" lon="4.13159">
        <ele>1426</ele>
        <time>2022-05-08T15:48:06Z</time>
      </trkpt>
      <trkpt lat="45.05512" lon="4.13158">
        <ele>1426</ele>
        <time>2022-05-08T15:48:06Z</time>
      </trkpt>
      <trkpt lat="45.05512" lon="4.13143">
        <ele>1427</ele>
        <time>2022-05-08T15:48:06Z</time>
      </trkpt>
      <trkpt lat="45.05509" lon="4.13134">
        <ele>1427</ele>
        <time>2022-05-08T15:48:06Z</time>
      </trkpt>
      <trkpt lat="45.05502" lon="4.13127">
        <ele>1428</ele>
        <time>2022-05-08T15:48:06Z</time>
      </trkpt>
      <trkpt lat="45.05495" lon="4.13131">
        <ele>1428</ele>
        <time>2022-05-08T15:48:06Z</time>
      </trkpt>
      <trkpt lat="45.05486" lon="4.13141">
        <ele>1428</ele>
        <time>2022-05-08T15:48:06Z</time>
      </trkpt>
      <trkpt lat="45.05486" lon="4.13153">
        <ele>1427</ele>
        <time>2022-05-08T15:48:06Z</time>
      </trkpt>
      <trkpt lat="45.05477" lon="4.1316">
        <ele>1419</ele>
        <time>2022-05-08T15:48:06Z</time>
      </trkpt>
      <trkpt lat="45.05475" lon="4.13171">
        <ele>1419</ele>
        <time>2022-05-08T15:48:06Z</time>
      </trkpt>
      <trkpt lat="45.05486" lon="4.13231">
        <ele>1416</ele>
        <time>2022-05-08T15:48:06Z</time>
      </trkpt>
      <trkpt lat="45.05484" lon="4.13245">
        <ele>1413</ele>
        <time>2022-05-08T15:48:06Z</time>
      </trkpt>
      <trkpt lat="45.05474" lon="4.13264">
        <ele>1411</ele>
        <time>2022-05-08T15:48:06Z</time>
      </trkpt>
      <trkpt lat="45.05464" lon="4.1327">
        <ele>1409</ele>
        <time>2022-05-08T15:48:06Z</time>
      </trkpt>
      <trkpt lat="45.05464" lon="4.1327">
        <ele>1395</ele>
        <time>2022-05-08T15:48:06Z</time>
      </trkpt>
      <trkpt lat="45.05456" lon="4.13282">
        <ele>1395</ele>
        <time>2022-05-08T15:48:06Z</time>
      </trkpt>
      <trkpt lat="45.05436" lon="4.13305">
        <ele>1393</ele>
        <time>2022-05-08T15:48:06Z</time>
      </trkpt>
      <trkpt lat="45.05398" lon="4.13304">
        <ele>1391</ele>
        <time>2022-05-08T15:48:06Z</time>
      </trkpt>
      <trkpt lat="45.05386" lon="4.13299">
        <ele>1389</ele>
        <time>2022-05-08T15:48:06Z</time>
      </trkpt>
      <trkpt lat="45.05374" lon="4.133">
        <ele>1388</ele>
        <time>2022-05-08T15:48:06Z</time>
      </trkpt>
      <trkpt lat="45.05293" lon="4.13273">
        <ele>1384</ele>
        <time>2022-05-08T15:48:06Z</time>
      </trkpt>
      <trkpt lat="45.05271" lon="4.13276">
        <ele>1380</ele>
        <time>2022-05-08T15:48:06Z</time>
      </trkpt>
      <trkpt lat="45.05265" lon="4.13283">
        <ele>1378</ele>
        <time>2022-05-08T15:48:06Z</time>
      </trkpt>
      <trkpt lat="45.0526" lon="4.13292">
        <ele>1376</ele>
        <time>2022-05-08T15:48:06Z</time>
      </trkpt>
      <trkpt lat="45.0526" lon="4.13292">
        <ele>1367</ele>
        <time>2022-05-08T15:48:06Z</time>
      </trkpt>
      <trkpt lat="45.05227" lon="4.13341">
        <ele>1366</ele>
        <time>2022-05-08T15:48:06Z</time>
      </trkpt>
      <trkpt lat="45.05216" lon="4.13368">
        <ele>1366</ele>
        <time>2022-05-08T15:48:06Z</time>
      </trkpt>
      <trkpt lat="45.05189" lon="4.13408">
        <ele>1365</ele>
        <time>2022-05-08T15:48:06Z</time>
      </trkpt>
      <trkpt lat="45.0518" lon="4.13412">
        <ele>1364</ele>
        <time>2022-05-08T15:48:06Z</time>
      </trkpt>
      <trkpt lat="45.05152" lon="4.13405">
        <ele>1364</ele>
        <time>2022-05-08T15:48:06Z</time>
      </trkpt>
      <trkpt lat="45.05142" lon="4.13414">
        <ele>1363</ele>
        <time>2022-05-08T15:48:06Z</time>
      </trkpt>
      <trkpt lat="45.05115" lon="4.13427">
        <ele>1363</ele>
        <time>2022-05-08T15:48:06Z</time>
      </trkpt>
      <trkpt lat="45.051" lon="4.13439">
        <ele>1363</ele>
        <time>2022-05-08T15:48:06Z</time>
      </trkpt>
      <trkpt lat="45.05081" lon="4.13449">
        <ele>1363</ele>
        <time>2022-05-08T15:48:06Z</time>
      </trkpt>
      <trkpt lat="45.05056" lon="4.13475">
        <ele>1363</ele>
        <time>2022-05-08T15:48:06Z</time>
      </trkpt>
      <trkpt lat="45.05044" lon="4.1349">
        <ele>1364</ele>
        <time>2022-05-08T15:48:06Z</time>
      </trkpt>
      <trkpt lat="45.05026" lon="4.13498">
        <ele>1365</ele>
        <time>2022-05-08T15:48:06Z</time>
      </trkpt>
      <trkpt lat="45.05016" lon="4.13518">
        <ele>1366</ele>
        <time>2022-05-08T15:48:06Z</time>
      </trkpt>
      <trkpt lat="45.05012" lon="4.13543">
        <ele>1367</ele>
        <time>2022-05-08T15:48:06Z</time>
      </trkpt>
      <trkpt lat="45.05021" lon="4.13547">
        <ele>1368</ele>
        <time>2022-05-08T15:48:06Z</time>
      </trkpt>
      <trkpt lat="45.05018" lon="4.13561">
        <ele>1368</ele>
        <time>2022-05-08T15:48:06Z</time>
      </trkpt>
      <trkpt lat="45.05015" lon="4.13571">
        <ele>1369</ele>
        <time>2022-05-08T15:48:06Z</time>
      </trkpt>
      <trkpt lat="45.0501" lon="4.13578">
        <ele>1369</ele>
        <time>2022-05-08T15:48:06Z</time>
      </trkpt>
      <trkpt lat="45.04992" lon="4.13612">
        <ele>1368</ele>
        <time>2022-05-08T15:48:06Z</time>
      </trkpt>
      <trkpt lat="45.0499" lon="4.13623">
        <ele>1367</ele>
        <time>2022-05-08T15:48:06Z</time>
      </trkpt>
      <trkpt lat="45.04992" lon="4.13635">
        <ele>1367</ele>
        <time>2022-05-08T15:48:06Z</time>
      </trkpt>
      <trkpt lat="45.04989" lon="4.13658">
        <ele>1365</ele>
        <time>2022-05-08T15:48:06Z</time>
      </trkpt>
      <trkpt lat="45.04979" lon="4.13676">
        <ele>1364</ele>
        <time>2022-05-08T15:48:06Z</time>
      </trkpt>
      <trkpt lat="45.04973" lon="4.13683">
        <ele>1363</ele>
        <time>2022-05-08T15:48:06Z</time>
      </trkpt>
      <trkpt lat="45.04964" lon="4.13688">
        <ele>1362</ele>
        <time>2022-05-08T15:48:06Z</time>
      </trkpt>
      <trkpt lat="45.04955" lon="4.13689">
        <ele>1361</ele>
        <time>2022-05-08T15:48:06Z</time>
      </trkpt>
      <trkpt lat="45.04945" lon="4.13695">
        <ele>1360</ele>
        <time>2022-05-08T15:48:06Z</time>
      </trkpt>
      <trkpt lat="45.04945" lon="4.137">
        <ele>1359</ele>
        <time>2022-05-08T15:48:06Z</time>
      </trkpt>
      <trkpt lat="45.04945" lon="4.137">
        <ele>1354</ele>
        <time>2022-05-08T15:48:06Z</time>
      </trkpt>
      <trkpt lat="45.04936" lon="4.13697">
        <ele>1354</ele>
        <time>2022-05-08T15:48:06Z</time>
      </trkpt>
      <trkpt lat="45.04916" lon="4.13722">
        <ele>1354</ele>
        <time>2022-05-08T15:48:06Z</time>
      </trkpt>
      <trkpt lat="45.04877" lon="4.13796">
        <ele>1353</ele>
        <time>2022-05-08T15:48:06Z</time>
      </trkpt>
      <trkpt lat="45.04868" lon="4.138">
        <ele>1352</ele>
        <time>2022-05-08T15:48:06Z</time>
      </trkpt>
      <trkpt lat="45.04862" lon="4.13812">
        <ele>1346</ele>
        <time>2022-05-08T15:48:06Z</time>
      </trkpt>
      <trkpt lat="45.04861" lon="4.13826">
        <ele>1346</ele>
        <time>2022-05-08T15:48:06Z</time>
      </trkpt>
      <trkpt lat="45.04858" lon="4.13837">
        <ele>1345</ele>
        <time>2022-05-08T15:48:06Z</time>
      </trkpt>
      <trkpt lat="45.04851" lon="4.13886">
        <ele>1345</ele>
        <time>2022-05-08T15:48:06Z</time>
      </trkpt>
      <trkpt lat="45.04846" lon="4.13896">
        <ele>1344</ele>
        <time>2022-05-08T15:48:06Z</time>
      </trkpt>
      <trkpt lat="45.04825" lon="4.13922">
        <ele>1344</ele>
        <time>2022-05-08T15:48:06Z</time>
      </trkpt>
      <trkpt lat="45.04809" lon="4.13934">
        <ele>1343</ele>
        <time>2022-05-08T15:48:06Z</time>
      </trkpt>
      <trkpt lat="45.04796" lon="4.13952">
        <ele>1343</ele>
        <time>2022-05-08T15:48:06Z</time>
      </trkpt>
      <trkpt lat="45.04789" lon="4.13957">
        <ele>1343</ele>
        <time>2022-05-08T15:48:06Z</time>
      </trkpt>
      <trkpt lat="45.04783" lon="4.13965">
        <ele>1342</ele>
        <time>2022-05-08T15:48:06Z</time>
      </trkpt>
      <trkpt lat="45.04775" lon="4.13987">
        <ele>1342</ele>
        <time>2022-05-08T15:48:06Z</time>
      </trkpt>
      <trkpt lat="45.04775" lon="4.13987">
        <ele>1340</ele>
        <time>2022-05-08T15:48:06Z</time>
      </trkpt>
      <trkpt lat="45.04764" lon="4.14008">
        <ele>1339</ele>
        <time>2022-05-08T15:48:06Z</time>
      </trkpt>
      <trkpt lat="45.04762" lon="4.14023">
        <ele>1339</ele>
        <time>2022-05-08T15:48:06Z</time>
      </trkpt>
      <trkpt lat="45.04794" lon="4.14051">
        <ele>1338</ele>
        <time>2022-05-08T15:48:06Z</time>
      </trkpt>
      <trkpt lat="45.04818" lon="4.14063">
        <ele>1337</ele>
        <time>2022-05-08T15:48:06Z</time>
      </trkpt>
      <trkpt lat="45.04806" lon="4.14082">
        <ele>1336</ele>
        <time>2022-05-08T15:48:06Z</time>
      </trkpt>
      <trkpt lat="45.04806" lon="4.14082">
        <ele>1332</ele>
        <time>2022-05-08T15:48:06Z</time>
      </trkpt>
      <trkpt lat="45.04515" lon="4.14597">
        <ele>1337</ele>
        <time>2022-05-08T15:48:06Z</time>
      </trkpt>
      <trkpt lat="45.04515" lon="4.14597">
        <ele>1343</ele>
        <time>2022-05-08T15:48:06Z</time>
      </trkpt>
      <trkpt lat="45.04281" lon="4.15009">
        <ele>1332</ele>
        <time>2022-05-08T15:48:06Z</time>
      </trkpt>
      <trkpt lat="45.04281" lon="4.15009">
        <ele>1323</ele>
        <time>2022-05-08T15:48:06Z</time>
      </trkpt>
      <trkpt lat="45.04272" lon="4.15029">
        <ele>1322</ele>
        <time>2022-05-08T15:48:06Z</time>
      </trkpt>
      <trkpt lat="45.04252" lon="4.15046">
        <ele>1322</ele>
        <time>2022-05-08T15:48:06Z</time>
      </trkpt>
      <trkpt lat="45.0425" lon="4.15057">
        <ele>1321</ele>
        <time>2022-05-08T15:48:06Z</time>
      </trkpt>
      <trkpt lat="45.04237" lon="4.15069">
        <ele>1321</ele>
        <time>2022-05-08T15:48:06Z</time>
      </trkpt>
      <trkpt lat="45.04207" lon="4.15069">
        <ele>1321</ele>
        <time>2022-05-08T15:48:06Z</time>
      </trkpt>
      <trkpt lat="45.0418" lon="4.15063">
        <ele>1321</ele>
        <time>2022-05-08T15:48:06Z</time>
      </trkpt>
      <trkpt lat="45.04167" lon="4.15065">
        <ele>1321</ele>
        <time>2022-05-08T15:48:06Z</time>
      </trkpt>
      <trkpt lat="45.04158" lon="4.15064">
        <ele>1320</ele>
        <time>2022-05-08T15:48:06Z</time>
      </trkpt>
      <trkpt lat="45.04151" lon="4.15059">
        <ele>1320</ele>
        <time>2022-05-08T15:48:06Z</time>
      </trkpt>
      <trkpt lat="45.04142" lon="4.15055">
        <ele>1321</ele>
        <time>2022-05-08T15:48:06Z</time>
      </trkpt>
      <trkpt lat="45.04132" lon="4.15056">
        <ele>1321</ele>
        <time>2022-05-08T15:48:06Z</time>
      </trkpt>
      <trkpt lat="45.04117" lon="4.15062">
        <ele>1321</ele>
        <time>2022-05-08T15:48:06Z</time>
      </trkpt>
      <trkpt lat="45.04105" lon="4.15059">
        <ele>1321</ele>
        <time>2022-05-08T15:48:06Z</time>
      </trkpt>
      <trkpt lat="45.0409" lon="4.15061">
        <ele>1321</ele>
        <time>2022-05-08T15:48:06Z</time>
      </trkpt>
      <trkpt lat="45.0408" lon="4.15072">
        <ele>1322</ele>
        <time>2022-05-08T15:48:06Z</time>
      </trkpt>
      <trkpt lat="45.0407" lon="4.15097">
        <ele>1322</ele>
        <time>2022-05-08T15:48:06Z</time>
      </trkpt>
      <trkpt lat="45.04026" lon="4.1516">
        <ele>1322</ele>
        <time>2022-05-08T15:48:06Z</time>
      </trkpt>
      <trkpt lat="45.04018" lon="4.15166">
        <ele>1322</ele>
        <time>2022-05-08T15:48:06Z</time>
      </trkpt>
      <trkpt lat="45.04008" lon="4.15167">
        <ele>1322</ele>
        <time>2022-05-08T15:48:06Z</time>
      </trkpt>
      <trkpt lat="45.03995" lon="4.15164">
        <ele>1322</ele>
        <time>2022-05-08T15:48:06Z</time>
      </trkpt>
      <trkpt lat="45.03986" lon="4.15168">
        <ele>1322</ele>
        <time>2022-05-08T15:48:06Z</time>
      </trkpt>
      <trkpt lat="45.03982" lon="4.15177">
        <ele>1322</ele>
        <time>2022-05-08T15:48:06Z</time>
      </trkpt>
      <trkpt lat="45.03954" lon="4.15183">
        <ele>1322</ele>
        <time>2022-05-08T15:48:06Z</time>
      </trkpt>
      <trkpt lat="45.03915" lon="4.15239">
        <ele>1321</ele>
        <time>2022-05-08T15:48:06Z</time>
      </trkpt>
      <trkpt lat="45.03884" lon="4.15249">
        <ele>1320</ele>
        <time>2022-05-08T15:48:06Z</time>
      </trkpt>
      <trkpt lat="45.03884" lon="4.15249">
        <ele>1316</ele>
        <time>2022-05-08T15:48:06Z</time>
      </trkpt>
      <trkpt lat="45.03897" lon="4.15324">
        <ele>1315</ele>
        <time>2022-05-08T15:48:06Z</time>
      </trkpt>
      <trkpt lat="45.0386" lon="4.15365">
        <ele>1312</ele>
        <time>2022-05-08T15:48:06Z</time>
      </trkpt>
      <trkpt lat="45.03864" lon="4.15377">
        <ele>1300</ele>
        <time>2022-05-08T15:48:06Z</time>
      </trkpt>
      <trkpt lat="45.03874" lon="4.15401">
        <ele>1299</ele>
        <time>2022-05-08T15:48:06Z</time>
      </trkpt>
      <trkpt lat="45.03872" lon="4.15415">
        <ele>1298</ele>
        <time>2022-05-08T15:48:06Z</time>
      </trkpt>
      <trkpt lat="45.03874" lon="4.15428">
        <ele>1296</ele>
        <time>2022-05-08T15:48:06Z</time>
      </trkpt>
      <trkpt lat="45.03878" lon="4.15439">
        <ele>1295</ele>
        <time>2022-05-08T15:48:06Z</time>
      </trkpt>
      <trkpt lat="45.03875" lon="4.15451">
        <ele>1293</ele>
        <time>2022-05-08T15:48:06Z</time>
      </trkpt>
      <trkpt lat="45.03869" lon="4.15459">
        <ele>1291</ele>
        <time>2022-05-08T15:48:06Z</time>
      </trkpt>
      <trkpt lat="45.03869" lon="4.15459">
        <ele>1283</ele>
        <time>2022-05-08T15:48:06Z</time>
      </trkpt>
      <trkpt lat="45.03864" lon="4.15469">
        <ele>1282</ele>
        <time>2022-05-08T15:48:06Z</time>
      </trkpt>
      <trkpt lat="45.03859" lon="4.15494">
        <ele>1282</ele>
        <time>2022-05-08T15:48:06Z</time>
      </trkpt>
      <trkpt lat="45.03853" lon="4.15506">
        <ele>1281</ele>
        <time>2022-05-08T15:48:06Z</time>
      </trkpt>
      <trkpt lat="45.0385" lon="4.15533">
        <ele>1279</ele>
        <time>2022-05-08T15:48:06Z</time>
      </trkpt>
      <trkpt lat="45.03846" lon="4.15546">
        <ele>1278</ele>
        <time>2022-05-08T15:48:06Z</time>
      </trkpt>
      <trkpt lat="45.03834" lon="4.15567">
        <ele>1276</ele>
        <time>2022-05-08T15:48:06Z</time>
      </trkpt>
      <trkpt lat="45.0383" lon="4.15581">
        <ele>1274</ele>
        <time>2022-05-08T15:48:06Z</time>
      </trkpt>
      <trkpt lat="45.0383" lon="4.15605">
        <ele>1272</ele>
        <time>2022-05-08T15:48:06Z</time>
      </trkpt>
      <trkpt lat="45.03833" lon="4.15617">
        <ele>1270</ele>
        <time>2022-05-08T15:48:06Z</time>
      </trkpt>
      <trkpt lat="45.03823" lon="4.15663">
        <ele>1268</ele>
        <time>2022-05-08T15:48:06Z</time>
      </trkpt>
      <trkpt lat="45.03802" lon="4.1571">
        <ele>1264</ele>
        <time>2022-05-08T15:48:06Z</time>
      </trkpt>
      <trkpt lat="45.03802" lon="4.1571">
        <ele>1247</ele>
        <time>2022-05-08T15:48:06Z</time>
      </trkpt>
      <trkpt lat="45.03801" lon="4.15722">
        <ele>1247</ele>
        <time>2022-05-08T15:48:06Z</time>
      </trkpt>
      <trkpt lat="45.03775" lon="4.15803">
        <ele>1245</ele>
        <time>2022-05-08T15:48:06Z</time>
      </trkpt>
      <trkpt lat="45.03763" lon="4.1582">
        <ele>1243</ele>
        <time>2022-05-08T15:48:06Z</time>
      </trkpt>
      <trkpt lat="45.03757" lon="4.15833">
        <ele>1242</ele>
        <time>2022-05-08T15:48:06Z</time>
      </trkpt>
      <trkpt lat="45.03735" lon="4.15826">
        <ele>1241</ele>
        <time>2022-05-08T15:48:06Z</time>
      </trkpt>
      <trkpt lat="45.03735" lon="4.15826">
        <ele>1235</ele>
        <time>2022-05-08T15:48:06Z</time>
      </trkpt>
      <trkpt lat="45.03683" lon="4.15785">
        <ele>1234</ele>
        <time>2022-05-08T15:48:06Z</time>
      </trkpt>
      <trkpt lat="45.0366" lon="4.15761">
        <ele>1234</ele>
        <time>2022-05-08T15:48:06Z</time>
      </trkpt>
      <trkpt lat="45.03669" lon="4.15703">
        <ele>1235</ele>
        <time>2022-05-08T15:48:06Z</time>
      </trkpt>
      <trkpt lat="45.03669" lon="4.15703">
        <ele>1239</ele>
        <time>2022-05-08T15:48:06Z</time>
      </trkpt>
      <trkpt lat="45.03674" lon="4.15665">
        <ele>1240</ele>
        <time>2022-05-08T15:48:06Z</time>
      </trkpt>
      <trkpt lat="45.03671" lon="4.15635">
        <ele>1241</ele>
        <time>2022-05-08T15:48:06Z</time>
      </trkpt>
      <trkpt lat="45.03649" lon="4.15566">
        <ele>1243</ele>
        <time>2022-05-08T15:48:06Z</time>
      </trkpt>
      <trkpt lat="45.03649" lon="4.15566">
        <ele>1251</ele>
        <time>2022-05-08T15:48:06Z</time>
      </trkpt>
      <trkpt lat="45.03596" lon="4.15526">
        <ele>1253</ele>
        <time>2022-05-08T15:48:06Z</time>
      </trkpt>
      <trkpt lat="45.03609" lon="4.15518">
        <ele>1255</ele>
        <time>2022-05-08T15:48:06Z</time>
      </trkpt>
      <trkpt lat="45.03641" lon="4.15519">
        <ele>1257</ele>
        <time>2022-05-08T15:48:06Z</time>
      </trkpt>
      <trkpt lat="45.03641" lon="4.15519">
        <ele>1266</ele>
        <time>2022-05-08T15:48:06Z</time>
      </trkpt>
      <trkpt lat="45.0366" lon="4.15517">
        <ele>1266</ele>
        <time>2022-05-08T15:48:06Z</time>
      </trkpt>
      <trkpt lat="45.03665" lon="4.15508">
        <ele>1266</ele>
        <time>2022-05-08T15:48:06Z</time>
      </trkpt>
      <trkpt lat="45.03671" lon="4.15502">
        <ele>1267</ele>
        <time>2022-05-08T15:48:06Z</time>
      </trkpt>
      <trkpt lat="45.03682" lon="4.15476">
        <ele>1267</ele>
        <time>2022-05-08T15:48:06Z</time>
      </trkpt>
      <trkpt lat="45.03692" lon="4.15458">
        <ele>1268</ele>
        <time>2022-05-08T15:48:06Z</time>
      </trkpt>
      <trkpt lat="45.03699" lon="4.15438">
        <ele>1268</ele>
        <time>2022-05-08T15:48:06Z</time>
      </trkpt>
      <trkpt lat="45.03699" lon="4.15438">
        <ele>1269</ele>
        <time>2022-05-08T15:48:06Z</time>
      </trkpt>
      <trkpt lat="45.03687" lon="4.15468">
        <ele>1269</ele>
        <time>2022-05-08T15:48:06Z</time>
      </trkpt>
      <trkpt lat="45.03677" lon="4.15485">
        <ele>1269</ele>
        <time>2022-05-08T15:48:06Z</time>
      </trkpt>
      <trkpt lat="45.03673" lon="4.15499">
        <ele>1269</ele>
        <time>2022-05-08T15:48:06Z</time>
      </trkpt>
      <trkpt lat="45.03662" lon="4.15512">
        <ele>1269</ele>
        <time>2022-05-08T15:48:06Z</time>
      </trkpt>
      <trkpt lat="45.0368" lon="4.15517">
        <ele>1268</ele>
        <time>2022-05-08T15:48:06Z</time>
      </trkpt>
      <trkpt lat="45.03685" lon="4.15526">
        <ele>1262</ele>
        <time>2022-05-08T15:48:06Z</time>
      </trkpt>
      <trkpt lat="45.03687" lon="4.15536">
        <ele>1262</ele>
        <time>2022-05-08T15:48:06Z</time>
      </trkpt>
      <trkpt lat="45.03694" lon="4.15543">
        <ele>1261</ele>
        <time>2022-05-08T15:48:06Z</time>
      </trkpt>
      <trkpt lat="45.03696" lon="4.15557">
        <ele>1261</ele>
        <time>2022-05-08T15:48:06Z</time>
      </trkpt>
      <trkpt lat="45.03695" lon="4.15567">
        <ele>1260</ele>
        <time>2022-05-08T15:48:06Z</time>
      </trkpt>
      <trkpt lat="45.03683" lon="4.15573">
        <ele>1259</ele>
        <time>2022-05-08T15:48:06Z</time>
      </trkpt>
      <trkpt lat="45.03662" lon="4.15565">
        <ele>1258</ele>
        <time>2022-05-08T15:48:06Z</time>
      </trkpt>
      <trkpt lat="45.0365" lon="4.15564">
        <ele>1257</ele>
        <time>2022-05-08T15:48:06Z</time>
      </trkpt>
      <trkpt lat="45.03653" lon="4.15576">
        <ele>1257</ele>
        <time>2022-05-08T15:48:06Z</time>
      </trkpt>
      <trkpt lat="45.03671" lon="4.15635">
        <ele>1255</ele>
        <time>2022-05-08T15:48:06Z</time>
      </trkpt>
      <trkpt lat="45.03674" lon="4.15665">
        <ele>1252</ele>
        <time>2022-05-08T15:48:06Z</time>
      </trkpt>
      <trkpt lat="45.0366" lon="4.15761">
        <ele>1248</ele>
        <time>2022-05-08T15:48:06Z</time>
      </trkpt>
      <trkpt lat="45.03623" lon="4.15755">
        <ele>1244</ele>
        <time>2022-05-08T15:48:06Z</time>
      </trkpt>
      <trkpt lat="45.03623" lon="4.15755">
        <ele>1232</ele>
        <time>2022-05-08T15:48:06Z</time>
      </trkpt>
      <trkpt lat="45.03581" lon="4.15748">
        <ele>1231</ele>
        <time>2022-05-08T15:48:06Z</time>
      </trkpt>
      <trkpt lat="45.03572" lon="4.15749">
        <ele>1231</ele>
        <time>2022-05-08T15:48:06Z</time>
      </trkpt>
      <trkpt lat="45.03369" lon="4.1552">
        <ele>1232</ele>
        <time>2022-05-08T15:48:06Z</time>
      </trkpt>
      <trkpt lat="45.03344" lon="4.15476">
        <ele>1232</ele>
        <time>2022-05-08T15:48:06Z</time>
      </trkpt>
      <trkpt lat="45.03344" lon="4.15476">
        <ele>1234</ele>
        <time>2022-05-08T15:48:06Z</time>
      </trkpt>
      <trkpt lat="45.03312" lon="4.15425">
        <ele>1233</ele>
        <time>2022-05-08T15:48:06Z</time>
      </trkpt>
      <trkpt lat="45.03278" lon="4.15394">
        <ele>1234</ele>
        <time>2022-05-08T15:48:06Z</time>
      </trkpt>
      <trkpt lat="45.0315" lon="4.15194">
        <ele>1236</ele>
        <time>2022-05-08T15:48:06Z</time>
      </trkpt>
      <trkpt lat="45.03137" lon="4.15142">
        <ele>1238</ele>
        <time>2022-05-08T15:48:06Z</time>
      </trkpt>
      <trkpt lat="45.03098" lon="4.14927">
        <ele>1244</ele>
        <time>2022-05-08T15:48:06Z</time>
      </trkpt>
      <trkpt lat="45.03098" lon="4.14927">
        <ele>1254</ele>
        <time>2022-05-08T15:48:06Z</time>
      </trkpt>
      <trkpt lat="45.03075" lon="4.1484">
        <ele>1255</ele>
        <time>2022-05-08T15:48:06Z</time>
      </trkpt>
      <trkpt lat="45.03115" lon="4.14769">
        <ele>1257</ele>
        <time>2022-05-08T15:48:06Z</time>
      </trkpt>
      <trkpt lat="45.03078" lon="4.14621">
        <ele>1260</ele>
        <time>2022-05-08T15:48:06Z</time>
      </trkpt>
      <trkpt lat="45.03077" lon="4.14586">
        <ele>1261</ele>
        <time>2022-05-08T15:48:06Z</time>
      </trkpt>
      <trkpt lat="45.03088" lon="4.14447">
        <ele>1263</ele>
        <time>2022-05-08T15:48:06Z</time>
      </trkpt>
      <trkpt lat="45.03095" lon="4.1444">
        <ele>1264</ele>
        <time>2022-05-08T15:48:06Z</time>
      </trkpt>
      <trkpt lat="45.03123" lon="4.14378">
        <ele>1265</ele>
        <time>2022-05-08T15:48:06Z</time>
      </trkpt>
      <trkpt lat="45.03123" lon="4.14378">
        <ele>1267</ele>
        <time>2022-05-08T15:48:06Z</time>
      </trkpt>
      <trkpt lat="45.0314" lon="4.14346">
        <ele>1267</ele>
        <time>2022-05-08T15:48:06Z</time>
      </trkpt>
      <trkpt lat="45.03165" lon="4.14312">
        <ele>1268</ele>
        <time>2022-05-08T15:48:06Z</time>
      </trkpt>
      <trkpt lat="45.03271" lon="4.14049">
        <ele>1271</ele>
        <time>2022-05-08T15:48:06Z</time>
      </trkpt>
      <trkpt lat="45.03284" lon="4.13976">
        <ele>1272</ele>
        <time>2022-05-08T15:48:06Z</time>
      </trkpt>
      <trkpt lat="45.03286" lon="4.13957">
        <ele>1272</ele>
        <time>2022-05-08T15:48:06Z</time>
      </trkpt>
      <trkpt lat="45.03299" lon="4.13939">
        <ele>1273</ele>
        <time>2022-05-08T15:48:06Z</time>
      </trkpt>
      <trkpt lat="45.03326" lon="4.13922">
        <ele>1274</ele>
        <time>2022-05-08T15:48:06Z</time>
      </trkpt>
      <trkpt lat="45.03345" lon="4.13895">
        <ele>1275</ele>
        <time>2022-05-08T15:48:06Z</time>
      </trkpt>
      <trkpt lat="45.03349" lon="4.13886">
        <ele>1276</ele>
        <time>2022-05-08T15:48:06Z</time>
      </trkpt>
      <trkpt lat="45.03409" lon="4.1381">
        <ele>1278</ele>
        <time>2022-05-08T15:48:06Z</time>
      </trkpt>
      <trkpt lat="45.03435" lon="4.13734">
        <ele>1278</ele>
        <time>2022-05-08T15:48:06Z</time>
      </trkpt>
      <trkpt lat="45.03435" lon="4.13734">
        <ele>1280</ele>
        <time>2022-05-08T15:48:06Z</time>
      </trkpt>
      <trkpt lat="45.03466" lon="4.13688">
        <ele>1280</ele>
        <time>2022-05-08T15:48:06Z</time>
      </trkpt>
      <trkpt lat="45.03483" lon="4.13654">
        <ele>1279</ele>
        <time>2022-05-08T15:48:06Z</time>
      </trkpt>
      <trkpt lat="45.03516" lon="4.13619">
        <ele>1278</ele>
        <time>2022-05-08T15:48:06Z</time>
      </trkpt>
      <trkpt lat="45.03545" lon="4.13596">
        <ele>1278</ele>
        <time>2022-05-08T15:48:06Z</time>
      </trkpt>
      <trkpt lat="45.03563" lon="4.13593">
        <ele>1278</ele>
        <time>2022-05-08T15:48:06Z</time>
      </trkpt>
      <trkpt lat="45.0357" lon="4.13593">
        <ele>1279</ele>
        <time>2022-05-08T15:48:06Z</time>
      </trkpt>
      <trkpt lat="45.03579" lon="4.13596">
        <ele>1279</ele>
        <time>2022-05-08T15:48:06Z</time>
      </trkpt>
      <trkpt lat="45.0361" lon="4.13634">
        <ele>1280</ele>
        <time>2022-05-08T15:48:06Z</time>
      </trkpt>
      <trkpt lat="45.03619" lon="4.13639">
        <ele>1281</ele>
        <time>2022-05-08T15:48:06Z</time>
      </trkpt>
      <trkpt lat="45.03639" lon="4.13638">
        <ele>1282</ele>
        <time>2022-05-08T15:48:06Z</time>
      </trkpt>
      <trkpt lat="45.0365" lon="4.13628">
        <ele>1283</ele>
        <time>2022-05-08T15:48:06Z</time>
      </trkpt>
      <trkpt lat="45.03674" lon="4.13618">
        <ele>1283</ele>
        <time>2022-05-08T15:48:06Z</time>
      </trkpt>
      <trkpt lat="45.0371" lon="4.13593">
        <ele>1284</ele>
        <time>2022-05-08T15:48:06Z</time>
      </trkpt>
      <trkpt lat="45.0369" lon="4.13542">
        <ele>1284</ele>
        <time>2022-05-08T15:48:06Z</time>
      </trkpt>
      <trkpt lat="45.03685" lon="4.13521">
        <ele>1284</ele>
        <time>2022-05-08T15:48:06Z</time>
      </trkpt>
      <trkpt lat="45.03678" lon="4.13438">
        <ele>1282</ele>
        <time>2022-05-08T15:48:06Z</time>
      </trkpt>
      <trkpt lat="45.03672" lon="4.13412">
        <ele>1281</ele>
        <time>2022-05-08T15:48:06Z</time>
      </trkpt>
      <trkpt lat="45.03672" lon="4.13412">
        <ele>1274</ele>
        <time>2022-05-08T15:48:06Z</time>
      </trkpt>
      <trkpt lat="45.03654" lon="4.13364">
        <ele>1273</ele>
        <time>2022-05-08T15:48:06Z</time>
      </trkpt>
      <trkpt lat="45.03647" lon="4.13315">
        <ele>1272</ele>
        <time>2022-05-08T15:48:06Z</time>
      </trkpt>
      <trkpt lat="45.03637" lon="4.13284">
        <ele>1270</ele>
        <time>2022-05-08T15:48:06Z</time>
      </trkpt>
      <trkpt lat="45.03531" lon="4.13136">
        <ele>1263</ele>
        <time>2022-05-08T15:48:06Z</time>
      </trkpt>
      <trkpt lat="45.03519" lon="4.13125">
        <ele>1258</ele>
        <time>2022-05-08T15:48:06Z</time>
      </trkpt>
      <trkpt lat="45.0351" lon="4.13108">
        <ele>1255</ele>
        <time>2022-05-08T15:48:06Z</time>
      </trkpt>
      <trkpt lat="45.03466" lon="4.12999">
        <ele>1250</ele>
        <time>2022-05-08T15:48:06Z</time>
      </trkpt>
      <trkpt lat="45.03529" lon="4.12957">
        <ele>1247</ele>
        <time>2022-05-08T15:48:06Z</time>
      </trkpt>
      <trkpt lat="45.03529" lon="4.12957">
        <ele>1240</ele>
        <time>2022-05-08T15:48:06Z</time>
      </trkpt>
      <trkpt lat="45.03589" lon="4.12926">
        <ele>1242</ele>
        <time>2022-05-08T15:48:06Z</time>
      </trkpt>
      <trkpt lat="45.03611" lon="4.12904">
        <ele>1243</ele>
        <time>2022-05-08T15:48:06Z</time>
      </trkpt>
      <trkpt lat="45.03681" lon="4.12812">
        <ele>1245</ele>
        <time>2022-05-08T15:48:06Z</time>
      </trkpt>
      <trkpt lat="45.03617" lon="4.12732">
        <ele>1246</ele>
        <time>2022-05-08T15:48:06Z</time>
      </trkpt>
      <trkpt lat="45.03608" lon="4.12724">
        <ele>1245</ele>
        <time>2022-05-08T15:48:06Z</time>
      </trkpt>
      <trkpt lat="45.03572" lon="4.12702">
        <ele>1245</ele>
        <time>2022-05-08T15:48:06Z</time>
      </trkpt>
      <trkpt lat="45.03556" lon="4.12691">
        <ele>1243</ele>
        <time>2022-05-08T15:48:06Z</time>
      </trkpt>
      <trkpt lat="45.03556" lon="4.12691">
        <ele>1240</ele>
        <time>2022-05-08T15:48:06Z</time>
      </trkpt>
      <trkpt lat="45.03539" lon="4.12663">
        <ele>1239</ele>
        <time>2022-05-08T15:48:06Z</time>
      </trkpt>
      <trkpt lat="45.03508" lon="4.126">
        <ele>1239</ele>
        <time>2022-05-08T15:48:06Z</time>
      </trkpt>
      <trkpt lat="45.03484" lon="4.12572">
        <ele>1238</ele>
        <time>2022-05-08T15:48:06Z</time>
      </trkpt>
      <trkpt lat="45.03454" lon="4.12544">
        <ele>1237</ele>
        <time>2022-05-08T15:48:06Z</time>
      </trkpt>
      <trkpt lat="45.0342" lon="4.12491">
        <ele>1235</ele>
        <time>2022-05-08T15:48:06Z</time>
      </trkpt>
      <trkpt lat="45.03387" lon="4.12486">
        <ele>1233</ele>
        <time>2022-05-08T15:48:06Z</time>
      </trkpt>
      <trkpt lat="45.03368" lon="4.12468">
        <ele>1232</ele>
        <time>2022-05-08T15:48:06Z</time>
      </trkpt>
      <trkpt lat="45.03348" lon="4.12431">
        <ele>1230</ele>
        <time>2022-05-08T15:48:06Z</time>
      </trkpt>
      <trkpt lat="45.03344" lon="4.12414">
        <ele>1229</ele>
        <time>2022-05-08T15:48:06Z</time>
      </trkpt>
      <trkpt lat="45.03342" lon="4.12376">
        <ele>1228</ele>
        <time>2022-05-08T15:48:06Z</time>
      </trkpt>
      <trkpt lat="45.03336" lon="4.12358">
        <ele>1227</ele>
        <time>2022-05-08T15:48:06Z</time>
      </trkpt>
      <trkpt lat="45.03317" lon="4.12335">
        <ele>1226</ele>
        <time>2022-05-08T15:48:06Z</time>
      </trkpt>
      <trkpt lat="45.03317" lon="4.12335">
        <ele>1222</ele>
        <time>2022-05-08T15:48:06Z</time>
      </trkpt>
      <trkpt lat="45.03286" lon="4.12297">
        <ele>1221</ele>
        <time>2022-05-08T15:48:06Z</time>
      </trkpt>
      <trkpt lat="45.03265" lon="4.12285">
        <ele>1220</ele>
        <time>2022-05-08T15:48:06Z</time>
      </trkpt>
      <trkpt lat="45.03204" lon="4.12204">
        <ele>1219</ele>
        <time>2022-05-08T15:48:06Z</time>
      </trkpt>
      <trkpt lat="45.03201" lon="4.12193">
        <ele>1218</ele>
        <time>2022-05-08T15:48:06Z</time>
      </trkpt>
      <trkpt lat="45.03236" lon="4.12118">
        <ele>1218</ele>
        <time>2022-05-08T15:48:06Z</time>
      </trkpt>
      <trkpt lat="45.03282" lon="4.1206">
        <ele>1221</ele>
        <time>2022-05-08T15:48:06Z</time>
      </trkpt>
      <trkpt lat="45.03281" lon="4.12036">
        <ele>1223</ele>
        <time>2022-05-08T15:48:06Z</time>
      </trkpt>
      <trkpt lat="45.03268" lon="4.11989">
        <ele>1231</ele>
        <time>2022-05-08T15:48:06Z</time>
      </trkpt>
      <trkpt lat="45.03268" lon="4.11978">
        <ele>1231</ele>
        <time>2022-05-08T15:48:06Z</time>
      </trkpt>
      <trkpt lat="45.03283" lon="4.11932">
        <ele>1231</ele>
        <time>2022-05-08T15:48:06Z</time>
      </trkpt>
      <trkpt lat="45.0328" lon="4.11921">
        <ele>1232</ele>
        <time>2022-05-08T15:48:06Z</time>
      </trkpt>
      <trkpt lat="45.03235" lon="4.1189">
        <ele>1231</ele>
        <time>2022-05-08T15:48:06Z</time>
      </trkpt>
      <trkpt lat="45.03221" lon="4.11855">
        <ele>1230</ele>
        <time>2022-05-08T15:48:06Z</time>
      </trkpt>
      <trkpt lat="45.03218" lon="4.11843">
        <ele>1228</ele>
        <time>2022-05-08T15:48:06Z</time>
      </trkpt>
      <trkpt lat="45.03199" lon="4.11818">
        <ele>1227</ele>
        <time>2022-05-08T15:48:06Z</time>
      </trkpt>
      <trkpt lat="45.03195" lon="4.11769">
        <ele>1225</ele>
        <time>2022-05-08T15:48:06Z</time>
      </trkpt>
      <trkpt lat="45.03195" lon="4.11769">
        <ele>1219</ele>
        <time>2022-05-08T15:48:06Z</time>
      </trkpt>
      <trkpt lat="45.03199" lon="4.11706">
        <ele>1219</ele>
        <time>2022-05-08T15:48:06Z</time>
      </trkpt>
      <trkpt lat="45.03195" lon="4.1169">
        <ele>1219</ele>
        <time>2022-05-08T15:48:06Z</time>
      </trkpt>
      <trkpt lat="45.0318" lon="4.11681">
        <ele>1218</ele>
        <time>2022-05-08T15:48:06Z</time>
      </trkpt>
      <trkpt lat="45.03178" lon="4.11666">
        <ele>1218</ele>
        <time>2022-05-08T15:48:06Z</time>
      </trkpt>
      <trkpt lat="45.0318" lon="4.11651">
        <ele>1217</ele>
        <time>2022-05-08T15:48:06Z</time>
      </trkpt>
      <trkpt lat="45.032" lon="4.11615">
        <ele>1217</ele>
        <time>2022-05-08T15:48:06Z</time>
      </trkpt>
      <trkpt lat="45.03204" lon="4.1159">
        <ele>1217</ele>
        <time>2022-05-08T15:48:06Z</time>
      </trkpt>
      <trkpt lat="45.03206" lon="4.11562">
        <ele>1218</ele>
        <time>2022-05-08T15:48:06Z</time>
      </trkpt>
      <trkpt lat="45.03229" lon="4.1148">
        <ele>1218</ele>
        <time>2022-05-08T15:48:06Z</time>
      </trkpt>
      <trkpt lat="45.03238" lon="4.11456">
        <ele>1219</ele>
        <time>2022-05-08T15:48:06Z</time>
      </trkpt>
      <trkpt lat="45.0324" lon="4.11443">
        <ele>1219</ele>
        <time>2022-05-08T15:48:06Z</time>
      </trkpt>
      <trkpt lat="45.03242" lon="4.11417">
        <ele>1219</ele>
        <time>2022-05-08T15:48:06Z</time>
      </trkpt>
      <trkpt lat="45.03244" lon="4.11404">
        <ele>1219</ele>
        <time>2022-05-08T15:48:06Z</time>
      </trkpt>
      <trkpt lat="45.03257" lon="4.11367">
        <ele>1218</ele>
        <time>2022-05-08T15:48:06Z</time>
      </trkpt>
      <trkpt lat="45.0326" lon="4.11341">
        <ele>1218</ele>
        <time>2022-05-08T15:48:06Z</time>
      </trkpt>
      <trkpt lat="45.0331" lon="4.11282">
        <ele>1217</ele>
        <time>2022-05-08T15:48:06Z</time>
      </trkpt>
      <trkpt lat="45.0332" lon="4.11259">
        <ele>1217</ele>
        <time>2022-05-08T15:48:06Z</time>
      </trkpt>
      <trkpt lat="45.03326" lon="4.11251">
        <ele>1217</ele>
        <time>2022-05-08T15:48:06Z</time>
      </trkpt>
      <trkpt lat="45.03344" lon="4.1124">
        <ele>1217</ele>
        <time>2022-05-08T15:48:06Z</time>
      </trkpt>
      <trkpt lat="45.03348" lon="4.1123">
        <ele>1217</ele>
        <time>2022-05-08T15:48:06Z</time>
      </trkpt>
      <trkpt lat="45.03352" lon="4.11217">
        <ele>1217</ele>
        <time>2022-05-08T15:48:06Z</time>
      </trkpt>
      <trkpt lat="45.03357" lon="4.11206">
        <ele>1216</ele>
        <time>2022-05-08T15:48:06Z</time>
      </trkpt>
      <trkpt lat="45.03404" lon="4.11159">
        <ele>1216</ele>
        <time>2022-05-08T15:48:06Z</time>
      </trkpt>
      <trkpt lat="45.0341" lon="4.1115">
        <ele>1215</ele>
        <time>2022-05-08T15:48:06Z</time>
      </trkpt>
      <trkpt lat="45.03439" lon="4.11132">
        <ele>1214</ele>
        <time>2022-05-08T15:48:06Z</time>
      </trkpt>
      <trkpt lat="45.03483" lon="4.11086">
        <ele>1213</ele>
        <time>2022-05-08T15:48:06Z</time>
      </trkpt>
      <trkpt lat="45.03501" lon="4.11081">
        <ele>1212</ele>
        <time>2022-05-08T15:48:06Z</time>
      </trkpt>
      <trkpt lat="45.0351" lon="4.11075">
        <ele>1211</ele>
        <time>2022-05-08T15:48:06Z</time>
      </trkpt>
      <trkpt lat="45.03537" lon="4.11072">
        <ele>1211</ele>
        <time>2022-05-08T15:48:06Z</time>
      </trkpt>
      <trkpt lat="45.03557" lon="4.11041">
        <ele>1210</ele>
        <time>2022-05-08T15:48:06Z</time>
      </trkpt>
      <trkpt lat="45.0358" lon="4.1102">
        <ele>1210</ele>
        <time>2022-05-08T15:48:06Z</time>
      </trkpt>
      <trkpt lat="45.03651" lon="4.10997">
        <ele>1210</ele>
        <time>2022-05-08T15:48:06Z</time>
      </trkpt>
      <trkpt lat="45.03677" lon="4.10999">
        <ele>1210</ele>
        <time>2022-05-08T15:48:06Z</time>
      </trkpt>
      <trkpt lat="45.03779" lon="4.10931">
        <ele>1208</ele>
        <time>2022-05-08T15:48:06Z</time>
      </trkpt>
      <trkpt lat="45.03823" lon="4.10923">
        <ele>1205</ele>
        <time>2022-05-08T15:48:06Z</time>
      </trkpt>
      <trkpt lat="45.03878" lon="4.10893">
        <ele>1202</ele>
        <time>2022-05-08T15:48:06Z</time>
      </trkpt>
      <trkpt lat="45.03878" lon="4.10893">
        <ele>1192</ele>
        <time>2022-05-08T15:48:06Z</time>
      </trkpt>
      <trkpt lat="45.03977" lon="4.10862">
        <ele>1190</ele>
        <time>2022-05-08T15:48:06Z</time>
      </trkpt>
      <trkpt lat="45.03994" lon="4.10861">
        <ele>1188</ele>
        <time>2022-05-08T15:48:06Z</time>
      </trkpt>
      <trkpt lat="45.04012" lon="4.10864">
        <ele>1187</ele>
        <time>2022-05-08T15:48:06Z</time>
      </trkpt>
      <trkpt lat="45.04029" lon="4.10857">
        <ele>1179</ele>
        <time>2022-05-08T15:48:06Z</time>
      </trkpt>
      <trkpt lat="45.04037" lon="4.1085">
        <ele>1179</ele>
        <time>2022-05-08T15:48:06Z</time>
      </trkpt>
      <trkpt lat="45.0406" lon="4.10865">
        <ele>1179</ele>
        <time>2022-05-08T15:48:06Z</time>
      </trkpt>
      <trkpt lat="45.0408" lon="4.10862">
        <ele>1179</ele>
        <time>2022-05-08T15:48:06Z</time>
      </trkpt>
      <trkpt lat="45.04115" lon="4.10874">
        <ele>1178</ele>
        <time>2022-05-08T15:48:06Z</time>
      </trkpt>
      <trkpt lat="45.04166" lon="4.10911">
        <ele>1178</ele>
        <time>2022-05-08T15:48:06Z</time>
      </trkpt>
      <trkpt lat="45.04177" lon="4.1091">
        <ele>1177</ele>
        <time>2022-05-08T15:48:06Z</time>
      </trkpt>
      <trkpt lat="45.04195" lon="4.10903">
        <ele>1176</ele>
        <time>2022-05-08T15:48:06Z</time>
      </trkpt>
      <trkpt lat="45.04264" lon="4.10827">
        <ele>1172</ele>
        <time>2022-05-08T15:48:06Z</time>
      </trkpt>
      <trkpt lat="45.04275" lon="4.10807">
        <ele>1169</ele>
        <time>2022-05-08T15:48:06Z</time>
      </trkpt>
      <trkpt lat="45.04301" lon="4.10788">
        <ele>1166</ele>
        <time>2022-05-08T15:48:06Z</time>
      </trkpt>
      <trkpt lat="45.04337" lon="4.10773">
        <ele>1162</ele>
        <time>2022-05-08T15:48:06Z</time>
      </trkpt>
      <trkpt lat="45.04346" lon="4.10772">
        <ele>1160</ele>
        <time>2022-05-08T15:48:06Z</time>
      </trkpt>
      <trkpt lat="45.04361" lon="4.10762">
        <ele>1157</ele>
        <time>2022-05-08T15:48:06Z</time>
      </trkpt>
      <trkpt lat="45.04367" lon="4.10755">
        <ele>1155</ele>
        <time>2022-05-08T15:48:06Z</time>
      </trkpt>
      <trkpt lat="45.04377" lon="4.10752">
        <ele>1153</ele>
        <time>2022-05-08T15:48:06Z</time>
      </trkpt>
      <trkpt lat="45.04399" lon="4.10739">
        <ele>1151</ele>
        <time>2022-05-08T15:48:06Z</time>
      </trkpt>
      <trkpt lat="45.04399" lon="4.10739">
        <ele>1139</ele>
        <time>2022-05-08T15:48:06Z</time>
      </trkpt>
      <trkpt lat="45.04406" lon="4.1073">
        <ele>1138</ele>
        <time>2022-05-08T15:48:06Z</time>
      </trkpt>
      <trkpt lat="45.04455" lon="4.10694">
        <ele>1136</ele>
        <time>2022-05-08T15:48:06Z</time>
      </trkpt>
      <trkpt lat="45.0446" lon="4.10685">
        <ele>1134</ele>
        <time>2022-05-08T15:48:06Z</time>
      </trkpt>
      <trkpt lat="45.04491" lon="4.10662">
        <ele>1131</ele>
        <time>2022-05-08T15:48:06Z</time>
      </trkpt>
      <trkpt lat="45.04502" lon="4.10643">
        <ele>1129</ele>
        <time>2022-05-08T15:48:06Z</time>
      </trkpt>
      <trkpt lat="45.04514" lon="4.10631">
        <ele>1127</ele>
        <time>2022-05-08T15:48:06Z</time>
      </trkpt>
      <trkpt lat="45.04519" lon="4.10621">
        <ele>1125</ele>
        <time>2022-05-08T15:48:06Z</time>
      </trkpt>
      <trkpt lat="45.04552" lon="4.10602">
        <ele>1122</ele>
        <time>2022-05-08T15:48:06Z</time>
      </trkpt>
      <trkpt lat="45.04593" lon="4.10594">
        <ele>1119</ele>
        <time>2022-05-08T15:48:06Z</time>
      </trkpt>
      <trkpt lat="45.04614" lon="4.10599">
        <ele>1116</ele>
        <time>2022-05-08T15:48:06Z</time>
      </trkpt>
      <trkpt lat="45.04669" lon="4.10593">
        <ele>1111</ele>
        <time>2022-05-08T15:48:06Z</time>
      </trkpt>
      <trkpt lat="45.04669" lon="4.10593">
        <ele>1097</ele>
        <time>2022-05-08T15:48:06Z</time>
      </trkpt>
      <trkpt lat="45.04684" lon="4.10585">
        <ele>1097</ele>
        <time>2022-05-08T15:48:06Z</time>
      </trkpt>
      <trkpt lat="45.04735" lon="4.10584">
        <ele>1095</ele>
        <time>2022-05-08T15:48:06Z</time>
      </trkpt>
      <trkpt lat="45.04743" lon="4.10586">
        <ele>1093</ele>
        <time>2022-05-08T15:48:06Z</time>
      </trkpt>
      <trkpt lat="45.0476" lon="4.10599">
        <ele>1092</ele>
        <time>2022-05-08T15:48:06Z</time>
      </trkpt>
      <trkpt lat="45.04781" lon="4.10631">
        <ele>1090</ele>
        <time>2022-05-08T15:48:06Z</time>
      </trkpt>
      <trkpt lat="45.04823" lon="4.10709">
        <ele>1087</ele>
        <time>2022-05-08T15:48:06Z</time>
      </trkpt>
      <trkpt lat="45.04834" lon="4.10723">
        <ele>1086</ele>
        <time>2022-05-08T15:48:06Z</time>
      </trkpt>
      <trkpt lat="45.04846" lon="4.10729">
        <ele>1084</ele>
        <time>2022-05-08T15:48:06Z</time>
      </trkpt>
      <trkpt lat="45.04913" lon="4.10798">
        <ele>1082</ele>
        <time>2022-05-08T15:48:06Z</time>
      </trkpt>
      <trkpt lat="45.04972" lon="4.10839">
        <ele>1082</ele>
        <time>2022-05-08T15:48:06Z</time>
      </trkpt>
      <trkpt lat="45.04992" lon="4.10843">
        <ele>1082</ele>
        <time>2022-05-08T15:48:06Z</time>
      </trkpt>
      <trkpt lat="45.05007" lon="4.10868">
        <ele>1083</ele>
        <time>2022-05-08T15:48:06Z</time>
      </trkpt>
      <trkpt lat="45.05023" lon="4.10885">
        <ele>1084</ele>
        <time>2022-05-08T15:48:06Z</time>
      </trkpt>
      <trkpt lat="45.05032" lon="4.10899">
        <ele>1085</ele>
        <time>2022-05-08T15:48:06Z</time>
      </trkpt>
      <trkpt lat="45.0506" lon="4.10911">
        <ele>1086</ele>
        <time>2022-05-08T15:48:06Z</time>
      </trkpt>
      <trkpt lat="45.05068" lon="4.10912">
        <ele>1086</ele>
        <time>2022-05-08T15:48:06Z</time>
      </trkpt>
      <trkpt lat="45.05075" lon="4.10918">
        <ele>1086</ele>
        <time>2022-05-08T15:48:06Z</time>
      </trkpt>
      <trkpt lat="45.0508" lon="4.10926">
        <ele>1086</ele>
        <time>2022-05-08T15:48:06Z</time>
      </trkpt>
      <trkpt lat="45.0509" lon="4.10951">
        <ele>1086</ele>
        <time>2022-05-08T15:48:06Z</time>
      </trkpt>
      <trkpt lat="45.05101" lon="4.10969">
        <ele>1087</ele>
        <time>2022-05-08T15:48:06Z</time>
      </trkpt>
      <trkpt lat="45.05119" lon="4.10993">
        <ele>1089</ele>
        <time>2022-05-08T15:48:06Z</time>
      </trkpt>
      <trkpt lat="45.05133" lon="4.11027">
        <ele>1088</ele>
        <time>2022-05-08T15:48:06Z</time>
      </trkpt>
      <trkpt lat="45.05142" lon="4.11045">
        <ele>1088</ele>
        <time>2022-05-08T15:48:06Z</time>
      </trkpt>
      <trkpt lat="45.05151" lon="4.1109">
        <ele>1088</ele>
        <time>2022-05-08T15:48:06Z</time>
      </trkpt>
      <trkpt lat="45.05157" lon="4.11103">
        <ele>1088</ele>
        <time>2022-05-08T15:48:06Z</time>
      </trkpt>
      <trkpt lat="45.05157" lon="4.11103">
        <ele>1088</ele>
        <time>2022-05-08T15:48:06Z</time>
      </trkpt>
      <trkpt lat="45.0518" lon="4.11156">
        <ele>1087</ele>
        <time>2022-05-08T15:48:06Z</time>
      </trkpt>
      <trkpt lat="45.05186" lon="4.1119">
        <ele>1087</ele>
        <time>2022-05-08T15:48:06Z</time>
      </trkpt>
      <trkpt lat="45.05193" lon="4.11327">
        <ele>1087</ele>
        <time>2022-05-08T15:48:06Z</time>
      </trkpt>
      <trkpt lat="45.05195" lon="4.11337">
        <ele>1088</ele>
        <time>2022-05-08T15:48:06Z</time>
      </trkpt>
      <trkpt lat="45.05201" lon="4.11344">
        <ele>1088</ele>
        <time>2022-05-08T15:48:06Z</time>
      </trkpt>
      <trkpt lat="45.05204" lon="4.11355">
        <ele>1088</ele>
        <time>2022-05-08T15:48:06Z</time>
      </trkpt>
      <trkpt lat="45.05203" lon="4.1138">
        <ele>1089</ele>
        <time>2022-05-08T15:48:06Z</time>
      </trkpt>
      <trkpt lat="45.05205" lon="4.11392">
        <ele>1089</ele>
        <time>2022-05-08T15:48:06Z</time>
      </trkpt>
      <trkpt lat="45.05211" lon="4.11401">
        <ele>1090</ele>
        <time>2022-05-08T15:48:06Z</time>
      </trkpt>
      <trkpt lat="45.05219" lon="4.11395">
        <ele>1090</ele>
        <time>2022-05-08T15:48:06Z</time>
      </trkpt>
      <trkpt lat="45.05232" lon="4.11377">
        <ele>1090</ele>
        <time>2022-05-08T15:48:06Z</time>
      </trkpt>
      <trkpt lat="45.05398" lon="4.11251">
        <ele>1088</ele>
        <time>2022-05-08T15:48:06Z</time>
      </trkpt>
      <trkpt lat="45.05439" lon="4.11238">
        <ele>1086</ele>
        <time>2022-05-08T15:48:06Z</time>
      </trkpt>
      <trkpt lat="45.05454" lon="4.11221">
        <ele>1084</ele>
        <time>2022-05-08T15:48:06Z</time>
      </trkpt>
      <trkpt lat="45.05459" lon="4.11209">
        <ele>1082</ele>
        <time>2022-05-08T15:48:06Z</time>
      </trkpt>
      <trkpt lat="45.05474" lon="4.11161">
        <ele>1081</ele>
        <time>2022-05-08T15:48:06Z</time>
      </trkpt>
      <trkpt lat="45.05486" lon="4.11138">
        <ele>1080</ele>
        <time>2022-05-08T15:48:06Z</time>
      </trkpt>
      <trkpt lat="45.05509" lon="4.11107">
        <ele>1078</ele>
        <time>2022-05-08T15:48:06Z</time>
      </trkpt>
      <trkpt lat="45.05545" lon="4.11031">
        <ele>1076</ele>
        <time>2022-05-08T15:48:06Z</time>
      </trkpt>
      <trkpt lat="45.05556" lon="4.1102">
        <ele>1074</ele>
        <time>2022-05-08T15:48:06Z</time>
      </trkpt>
      <trkpt lat="45.05578" lon="4.11001">
        <ele>1072</ele>
        <time>2022-05-08T15:48:06Z</time>
      </trkpt>
      <trkpt lat="45.05592" lon="4.10975">
        <ele>1070</ele>
        <time>2022-05-08T15:48:06Z</time>
      </trkpt>
      <trkpt lat="45.056" lon="4.10945">
        <ele>1069</ele>
        <time>2022-05-08T15:48:06Z</time>
      </trkpt>
      <trkpt lat="45.056" lon="4.10945">
        <ele>1061</ele>
        <time>2022-05-08T15:48:06Z</time>
      </trkpt>
      <trkpt lat="45.05608" lon="4.10856">
        <ele>1060</ele>
        <time>2022-05-08T15:48:06Z</time>
      </trkpt>
      <trkpt lat="45.05616" lon="4.10781">
        <ele>1058</ele>
        <time>2022-05-08T15:48:06Z</time>
      </trkpt>
      <trkpt lat="45.05622" lon="4.1077">
        <ele>1057</ele>
        <time>2022-05-08T15:48:06Z</time>
      </trkpt>
      <trkpt lat="45.05669" lon="4.10736">
        <ele>1056</ele>
        <time>2022-05-08T15:48:06Z</time>
      </trkpt>
      <trkpt lat="45.05693" lon="4.10722">
        <ele>1055</ele>
        <time>2022-05-08T15:48:06Z</time>
      </trkpt>
      <trkpt lat="45.05726" lon="4.10685">
        <ele>1053</ele>
        <time>2022-05-08T15:48:06Z</time>
      </trkpt>
      <trkpt lat="45.05752" lon="4.10678">
        <ele>1052</ele>
        <time>2022-05-08T15:48:06Z</time>
      </trkpt>
      <trkpt lat="45.05799" lon="4.10646">
        <ele>1051</ele>
        <time>2022-05-08T15:48:06Z</time>
      </trkpt>
      <trkpt lat="45.05806" lon="4.10634">
        <ele>1051</ele>
        <time>2022-05-08T15:48:06Z</time>
      </trkpt>
      <trkpt lat="45.058" lon="4.10627">
        <ele>1050</ele>
        <time>2022-05-08T15:48:06Z</time>
      </trkpt>
      <trkpt lat="45.058" lon="4.10627">
        <ele>1046</ele>
        <time>2022-05-08T15:48:06Z</time>
      </trkpt>
      <trkpt lat="45.05806" lon="4.10634">
        <ele>1046</ele>
        <time>2022-05-08T15:48:06Z</time>
      </trkpt>
      <trkpt lat="45.05812" lon="4.10627">
        <ele>1046</ele>
        <time>2022-05-08T15:48:06Z</time>
      </trkpt>
      <trkpt lat="45.05829" lon="4.10616">
        <ele>1046</ele>
        <time>2022-05-08T15:48:06Z</time>
      </trkpt>
      <trkpt lat="45.05837" lon="4.10613">
        <ele>1046</ele>
        <time>2022-05-08T15:48:06Z</time>
      </trkpt>
      <trkpt lat="45.0586" lon="4.10614">
        <ele>1047</ele>
        <time>2022-05-08T15:48:06Z</time>
      </trkpt>
      <trkpt lat="45.05879" lon="4.1064">
        <ele>1048</ele>
        <time>2022-05-08T15:48:06Z</time>
      </trkpt>
      <trkpt lat="45.0589" lon="4.1066">
        <ele>1049</ele>
        <time>2022-05-08T15:48:06Z</time>
      </trkpt>
      <trkpt lat="45.05897" lon="4.10666">
        <ele>1049</ele>
        <time>2022-05-08T15:48:06Z</time>
      </trkpt>
      <trkpt lat="45.05906" lon="4.1067">
        <ele>1050</ele>
        <time>2022-05-08T15:48:06Z</time>
      </trkpt>
      <trkpt lat="45.05911" lon="4.1068">
        <ele>1056</ele>
        <time>2022-05-08T15:48:06Z</time>
      </trkpt>
      <trkpt lat="45.05924" lon="4.10773">
        <ele>1058</ele>
        <time>2022-05-08T15:48:06Z</time>
      </trkpt>
      <trkpt lat="45.05924" lon="4.10773">
        <ele>1065</ele>
        <time>2022-05-08T15:48:06Z</time>
      </trkpt>
      <trkpt lat="45.05925" lon="4.10785">
        <ele>1065</ele>
        <time>2022-05-08T15:48:06Z</time>
      </trkpt>
      <trkpt lat="45.05922" lon="4.108">
        <ele>1065</ele>
        <time>2022-05-08T15:48:06Z</time>
      </trkpt>
      <trkpt lat="45.05884" lon="4.10824">
        <ele>1066</ele>
        <time>2022-05-08T15:48:06Z</time>
      </trkpt>
      <trkpt lat="45.05846" lon="4.10838">
        <ele>1067</ele>
        <time>2022-05-08T15:48:06Z</time>
      </trkpt>
      <trkpt lat="45.05782" lon="4.10889">
        <ele>1069</ele>
        <time>2022-05-08T15:48:06Z</time>
      </trkpt>
      <trkpt lat="45.05782" lon="4.10889">
        <ele>1077</ele>
        <time>2022-05-08T15:48:06Z</time>
      </trkpt>
      <trkpt lat="45.0576" lon="4.10914">
        <ele>1078</ele>
        <time>2022-05-08T15:48:06Z</time>
      </trkpt>
      <trkpt lat="45.05754" lon="4.10925">
        <ele>1078</ele>
        <time>2022-05-08T15:48:06Z</time>
      </trkpt>
      <trkpt lat="45.05755" lon="4.10936">
        <ele>1079</ele>
        <time>2022-05-08T15:48:06Z</time>
      </trkpt>
      <trkpt lat="45.05848" lon="4.10926">
        <ele>1083</ele>
        <time>2022-05-08T15:48:06Z</time>
      </trkpt>
      <trkpt lat="45.05911" lon="4.10945">
        <ele>1088</ele>
        <time>2022-05-08T15:48:06Z</time>
      </trkpt>
      <trkpt lat="45.0596" lon="4.10984">
        <ele>1094</ele>
        <time>2022-05-08T15:48:06Z</time>
      </trkpt>
      <trkpt lat="45.0602" lon="4.11057">
        <ele>1102</ele>
        <time>2022-05-08T15:48:06Z</time>
      </trkpt>
      <trkpt lat="45.06052" lon="4.11107">
        <ele>1109</ele>
        <time>2022-05-08T15:48:06Z</time>
      </trkpt>
      <trkpt lat="45.06052" lon="4.11107">
        <ele>1128</ele>
        <time>2022-05-08T15:48:06Z</time>
      </trkpt>
      <trkpt lat="45.06087" lon="4.11191">
        <ele>1129</ele>
        <time>2022-05-08T15:48:06Z</time>
      </trkpt>
      <trkpt lat="45.06104" lon="4.11301">
        <ele>1131</ele>
        <time>2022-05-08T15:48:06Z</time>
      </trkpt>
      <trkpt lat="45.06101" lon="4.11437">
        <ele>1134</ele>
        <time>2022-05-08T15:48:06Z</time>
      </trkpt>
      <trkpt lat="45.06157" lon="4.11628">
        <ele>1138</ele>
        <time>2022-05-08T15:48:06Z</time>
      </trkpt>
      <trkpt lat="45.06158" lon="4.11704">
        <ele>1143</ele>
        <time>2022-05-08T15:48:06Z</time>
      </trkpt>
      <trkpt lat="45.06158" lon="4.11704">
        <ele>1153</ele>
        <time>2022-05-08T15:48:06Z</time>
      </trkpt>
      <trkpt lat="45.06159" lon="4.11732">
        <ele>1153</ele>
        <time>2022-05-08T15:48:06Z</time>
      </trkpt>
      <trkpt lat="45.0617" lon="4.11777">
        <ele>1155</ele>
        <time>2022-05-08T15:48:06Z</time>
      </trkpt>
      <trkpt lat="45.06191" lon="4.11813">
        <ele>1157</ele>
        <time>2022-05-08T15:48:06Z</time>
      </trkpt>
      <trkpt lat="45.06226" lon="4.11839">
        <ele>1159</ele>
        <time>2022-05-08T15:48:06Z</time>
      </trkpt>
      <trkpt lat="45.06283" lon="4.11855">
        <ele>1161</ele>
        <time>2022-05-08T15:48:06Z</time>
      </trkpt>
      <trkpt lat="45.06297" lon="4.11854">
        <ele>1162</ele>
        <time>2022-05-08T15:48:06Z</time>
      </trkpt>
      <trkpt lat="45.06309" lon="4.11949">
        <ele>1167</ele>
        <time>2022-05-08T15:48:06Z</time>
      </trkpt>
      <trkpt lat="45.06333" lon="4.12006">
        <ele>1172</ele>
        <time>2022-05-08T15:48:06Z</time>
      </trkpt>
      <trkpt lat="45.06334" lon="4.12021">
        <ele>1175</ele>
        <time>2022-05-08T15:48:06Z</time>
      </trkpt>
      <trkpt lat="45.0633" lon="4.12045">
        <ele>1179</ele>
        <time>2022-05-08T15:48:06Z</time>
      </trkpt>
      <trkpt lat="45.0633" lon="4.12061">
        <ele>1181</ele>
        <time>2022-05-08T15:48:06Z</time>
      </trkpt>
      <trkpt lat="45.06364" lon="4.12135">
        <ele>1186</ele>
        <time>2022-05-08T15:48:06Z</time>
      </trkpt>
      <trkpt lat="45.06443" lon="4.12262">
        <ele>1198</ele>
        <time>2022-05-08T15:48:06Z</time>
      </trkpt>
      <trkpt lat="45.06443" lon="4.12262">
        <ele>1226</ele>
        <time>2022-05-08T15:48:06Z</time>
      </trkpt>
      <trkpt lat="45.06477" lon="4.12318">
        <ele>1228</ele>
        <time>2022-05-08T15:48:06Z</time>
      </trkpt>
      <trkpt lat="45.06479" lon="4.12328">
        <ele>1229</ele>
        <time>2022-05-08T15:48:06Z</time>
      </trkpt>
      <trkpt lat="45.06478" lon="4.12344">
        <ele>1230</ele>
        <time>2022-05-08T15:48:06Z</time>
      </trkpt>
      <trkpt lat="45.06481" lon="4.1236">
        <ele>1231</ele>
        <time>2022-05-08T15:48:06Z</time>
      </trkpt>
      <trkpt lat="45.0651" lon="4.1241">
        <ele>1233</ele>
        <time>2022-05-08T15:48:06Z</time>
      </trkpt>
      <trkpt lat="45.06522" lon="4.1242">
        <ele>1235</ele>
        <time>2022-05-08T15:48:06Z</time>
      </trkpt>
      <trkpt lat="45.06545" lon="4.12432">
        <ele>1236</ele>
        <time>2022-05-08T15:48:06Z</time>
      </trkpt>
      <trkpt lat="45.06552" lon="4.12445">
        <ele>1238</ele>
        <time>2022-05-08T15:48:06Z</time>
      </trkpt>
      <trkpt lat="45.06592" lon="4.12462">
        <ele>1240</ele>
        <time>2022-05-08T15:48:06Z</time>
      </trkpt>
      <trkpt lat="45.06605" lon="4.12473">
        <ele>1241</ele>
        <time>2022-05-08T15:48:06Z</time>
      </trkpt>
      <trkpt lat="45.06624" lon="4.12512">
        <ele>1243</ele>
        <time>2022-05-08T15:48:06Z</time>
      </trkpt>
      <trkpt lat="45.06644" lon="4.12578">
        <ele>1246</ele>
        <time>2022-05-08T15:48:06Z</time>
      </trkpt>
      <trkpt lat="45.06651" lon="4.12629">
        <ele>1259</ele>
        <time>2022-05-08T15:48:06Z</time>
      </trkpt>
      <trkpt lat="45.06655" lon="4.12642">
        <ele>1259</ele>
        <time>2022-05-08T15:48:06Z</time>
      </trkpt>
      <trkpt lat="45.06665" lon="4.12653">
        <ele>1260</ele>
        <time>2022-05-08T15:48:06Z</time>
      </trkpt>
      <trkpt lat="45.0669" lon="4.12661">
        <ele>1260</ele>
        <time>2022-05-08T15:48:06Z</time>
      </trkpt>
      <trkpt lat="45.06699" lon="4.12675">
        <ele>1261</ele>
        <time>2022-05-08T15:48:06Z</time>
      </trkpt>
      <trkpt lat="45.06708" lon="4.1271">
        <ele>1262</ele>
        <time>2022-05-08T15:48:06Z</time>
      </trkpt>
      <trkpt lat="45.06714" lon="4.12721">
        <ele>1262</ele>
        <time>2022-05-08T15:48:06Z</time>
      </trkpt>
      <trkpt lat="45.06727" lon="4.12732">
        <ele>1263</ele>
        <time>2022-05-08T15:48:06Z</time>
      </trkpt>
      <trkpt lat="45.06758" lon="4.12739">
        <ele>1264</ele>
        <time>2022-05-08T15:48:06Z</time>
      </trkpt>
      <trkpt lat="45.06775" lon="4.12753">
        <ele>1265</ele>
        <time>2022-05-08T15:48:06Z</time>
      </trkpt>
      <trkpt lat="45.06791" lon="4.12784">
        <ele>1266</ele>
        <time>2022-05-08T15:48:06Z</time>
      </trkpt>
      <trkpt lat="45.0679" lon="4.12801">
        <ele>1267</ele>
        <time>2022-05-08T15:48:06Z</time>
      </trkpt>
      <trkpt lat="45.06902" lon="4.12836">
        <ele>1269</ele>
        <time>2022-05-08T15:48:06Z</time>
      </trkpt>
      <trkpt lat="45.06945" lon="4.12824">
        <ele>1270</ele>
        <time>2022-05-08T15:48:06Z</time>
      </trkpt>
      <trkpt lat="45.07065" lon="4.12815">
        <ele>1269</ele>
        <time>2022-05-08T15:48:06Z</time>
      </trkpt>
      <trkpt lat="45.07144" lon="4.12836">
        <ele>1259</ele>
        <time>2022-05-08T15:48:06Z</time>
      </trkpt>
    </trkseg>
  </trk>
  <trk>
    <name><![CDATA[Mont Gerbier de jonc]]></name>
    <cmt><![CDATA[22:27:44]]></cmt>
    <desc><![CDATA[<html dir="ltr"><head></head><body contenteditable="true">comment ...<br>
----<br>
Groupe : [import]</body></html>]]></desc>
    <trkseg>
      <trkpt lat="44.84315" lon="4.21644">
        <ele>1414</ele>
        <time>2022-05-11T18:53:28Z</time>
      </trkpt>
      <trkpt lat="44.84358" lon="4.21592">
        <ele>1414</ele>
        <time>2022-05-11T18:53:28Z</time>
      </trkpt>
      <trkpt lat="44.84378" lon="4.21531">
        <ele>1415</ele>
      </trkpt>
      <trkpt lat="44.84398" lon="4.21469">
        <ele>1415</ele>
        <time>2022-05-11T18:53:28Z</time>
      </trkpt>
      <trkpt lat="44.84412" lon="4.2142">
        <ele>1415</ele>
      </trkpt>
      <trkpt lat="44.84425" lon="4.2137">
        <ele>1415</ele>
      </trkpt>
      <trkpt lat="44.84439" lon="4.21321">
        <ele>1415</ele>
      </trkpt>
      <trkpt lat="44.84452" lon="4.21271">
        <ele>1414</ele>
        <time>2022-05-11T18:53:28Z</time>
      </trkpt>
      <trkpt lat="44.84506" lon="4.21227">
        <ele>1413</ele>
        <time>2022-05-11T18:53:28Z</time>
      </trkpt>
      <trkpt lat="44.84543" lon="4.21211">
        <ele>1412</ele>
      </trkpt>
      <trkpt lat="44.84579" lon="4.21195">
        <ele>1410</ele>
        <time>2022-05-11T18:53:28Z</time>
      </trkpt>
      <trkpt lat="44.84639" lon="4.21152">
        <ele>1408</ele>
      </trkpt>
      <trkpt lat="44.84698" lon="4.21109">
        <ele>1406</ele>
        <time>2022-05-11T18:53:28Z</time>
      </trkpt>
      <trkpt lat="44.84725" lon="4.21053">
        <ele>1404</ele>
      </trkpt>
      <trkpt lat="44.84752" lon="4.20997">
        <ele>1401</ele>
        <time>2022-05-11T18:53:28Z</time>
      </trkpt>
      <trkpt lat="44.84759" lon="4.20932">
        <ele>1399</ele>
        <time>2022-05-11T18:53:28Z</time>
      </trkpt>
      <trkpt lat="44.84785" lon="4.20872">
        <ele>1397</ele>
      </trkpt>
      <trkpt lat="44.84811" lon="4.20812">
        <ele>1394</ele>
      </trkpt>
      <trkpt lat="44.84837" lon="4.20751">
        <ele>1391</ele>
      </trkpt>
      <trkpt lat="44.84863" lon="4.20691">
        <ele>1389</ele>
        <time>2022-05-11T18:53:28Z</time>
      </trkpt>
      <trkpt lat="44.84889" lon="4.20646">
        <ele>1386</ele>
      </trkpt>
      <trkpt lat="44.84915" lon="4.206">
        <ele>1384</ele>
      </trkpt>
      <trkpt lat="44.84941" lon="4.20555">
        <ele>1381</ele>
      </trkpt>
      <trkpt lat="44.84967" lon="4.20509">
        <ele>1378</ele>
        <time>2022-05-11T18:53:28Z</time>
      </trkpt>
      <trkpt lat="44.85" lon="4.20498">
        <ele>1376</ele>
      </trkpt>
      <trkpt lat="44.85034" lon="4.20488">
        <ele>1373</ele>
      </trkpt>
      <trkpt lat="44.85067" lon="4.20477">
        <ele>1369</ele>
      </trkpt>
      <trkpt lat="44.851" lon="4.20466">
        <ele>1366</ele>
        <time>2022-05-11T18:53:28Z</time>
      </trkpt>
      <trkpt lat="44.85125" lon="4.20497">
        <ele>1363</ele>
        <time>2022-05-11T18:53:28Z</time>
      </trkpt>
      <trkpt lat="44.8517" lon="4.20512">
        <ele>1360</ele>
      </trkpt>
      <trkpt lat="44.85214" lon="4.20527">
        <ele>1358</ele>
      </trkpt>
      <trkpt lat="44.85259" lon="4.20542">
        <ele>1356</ele>
      </trkpt>
      <trkpt lat="44.85303" lon="4.20557">
        <ele>1355</ele>
        <time>2022-05-11T18:53:28Z</time>
      </trkpt>
      <trkpt lat="44.85338" lon="4.20562">
        <ele>1355</ele>
      </trkpt>
      <trkpt lat="44.85373" lon="4.20567">
        <ele>1355</ele>
        <time>2022-05-11T18:53:28Z</time>
      </trkpt>
      <trkpt lat="44.85423" lon="4.20549">
        <ele>1355</ele>
        <time>2022-05-11T18:53:28Z</time>
      </trkpt>
      <trkpt lat="44.85466" lon="4.20479">
        <ele>1355</ele>
        <time>2022-05-11T18:53:28Z</time>
      </trkpt>
      <trkpt lat="44.85517" lon="4.20471">
        <ele>1356</ele>
        <time>2022-05-11T18:53:28Z</time>
      </trkpt>
      <trkpt lat="44.85545" lon="4.20444">
        <ele>1358</ele>
      </trkpt>
      <trkpt lat="44.85573" lon="4.20416">
        <ele>1362</ele>
        <time>2022-05-11T18:53:28Z</time>
      </trkpt>
      <trkpt lat="44.85605" lon="4.20359">
        <ele>1367</ele>
        <time>2022-05-11T18:53:28Z</time>
      </trkpt>
      <trkpt lat="44.85621" lon="4.20314">
        <ele>1370</ele>
      </trkpt>
      <trkpt lat="44.85637" lon="4.20268">
        <ele>1372</ele>
        <time>2022-05-11T18:53:28Z</time>
      </trkpt>
      <trkpt lat="44.85675" lon="4.20191">
        <ele>1373</ele>
      </trkpt>
      <trkpt lat="44.85713" lon="4.20114">
        <ele>1375</ele>
        <time>2022-05-11T18:53:28Z</time>
      </trkpt>
      <trkpt lat="44.85748" lon="4.20062">
        <ele>1376</ele>
      </trkpt>
      <trkpt lat="44.85783" lon="4.20009">
        <ele>1376</ele>
        <time>2022-05-11T18:53:28Z</time>
      </trkpt>
      <trkpt lat="44.85821" lon="4.19975">
        <ele>1377</ele>
      </trkpt>
      <trkpt lat="44.85858" lon="4.19941">
        <ele>1378</ele>
        <time>2022-05-11T18:53:28Z</time>
      </trkpt>
      <trkpt lat="44.85892" lon="4.19949">
        <ele>1379</ele>
        <time>2022-05-11T18:53:28Z</time>
      </trkpt>
      <trkpt lat="44.85882" lon="4.19978">
        <ele>1380</ele>
        <time>2022-05-11T18:53:28Z</time>
      </trkpt>
      <trkpt lat="44.85865" lon="4.20009">
        <ele>1379</ele>
        <time>2022-05-11T18:53:28Z</time>
      </trkpt>
      <trkpt lat="44.85871" lon="4.20077">
        <ele>1377</ele>
        <time>2022-05-11T18:53:28Z</time>
      </trkpt>
      <trkpt lat="44.85894" lon="4.20108">
        <ele>1374</ele>
        <time>2022-05-11T18:53:28Z</time>
      </trkpt>
      <trkpt lat="44.85941" lon="4.20158">
        <ele>1368</ele>
      </trkpt>
      <trkpt lat="44.85988" lon="4.20207">
        <ele>1362</ele>
        <time>2022-05-11T18:53:28Z</time>
      </trkpt>
      <trkpt lat="44.85998" lon="4.20269">
        <ele>1354</ele>
      </trkpt>
      <trkpt lat="44.86008" lon="4.20331">
        <ele>1343</ele>
      </trkpt>
      <trkpt lat="44.86017" lon="4.20393">
        <ele>1331</ele>
      </trkpt>
      <trkpt lat="44.86027" lon="4.20455">
        <ele>1318</ele>
        <time>2022-05-11T18:53:28Z</time>
      </trkpt>
      <trkpt lat="44.86052" lon="4.20515">
        <ele>1304</ele>
        <time>2022-05-11T18:53:28Z</time>
      </trkpt>
      <trkpt lat="44.86101" lon="4.20569">
        <ele>1287</ele>
      </trkpt>
      <trkpt lat="44.86149" lon="4.20622">
        <ele>1270</ele>
        <time>2022-05-11T18:53:28Z</time>
      </trkpt>
      <trkpt lat="44.86155" lon="4.20679">
        <ele>1254</ele>
      </trkpt>
      <trkpt lat="44.8616" lon="4.20735">
        <ele>1239</ele>
        <time>2022-05-11T18:53:28Z</time>
      </trkpt>
      <trkpt lat="44.86183" lon="4.20808">
        <ele>1222</ele>
      </trkpt>
      <trkpt lat="44.86205" lon="4.2088">
        <ele>1203</ele>
        <time>2022-05-11T18:53:28Z</time>
      </trkpt>
      <trkpt lat="44.86234" lon="4.20904">
        <ele>1188</ele>
        <time>2022-05-11T18:53:28Z</time>
      </trkpt>
      <trkpt lat="44.86281" lon="4.20912">
        <ele>1179</ele>
        <time>2022-05-11T18:53:28Z</time>
      </trkpt>
      <trkpt lat="44.86268" lon="4.20982">
        <ele>1171</ele>
        <time>2022-05-11T18:53:28Z</time>
      </trkpt>
      <trkpt lat="44.86235" lon="4.21028">
        <ele>1165</ele>
      </trkpt>
      <trkpt lat="44.86202" lon="4.21073">
        <ele>1159</ele>
        <time>2022-05-11T18:53:28Z</time>
      </trkpt>
      <trkpt lat="44.86187" lon="4.21116">
        <ele>1153</ele>
      </trkpt>
      <trkpt lat="44.86171" lon="4.21159">
        <ele>1147</ele>
        <time>2022-05-11T18:53:28Z</time>
      </trkpt>
      <trkpt lat="44.86157" lon="4.21225">
        <ele>1140</ele>
      </trkpt>
      <trkpt lat="44.86144" lon="4.21291">
        <ele>1133</ele>
      </trkpt>
      <trkpt lat="44.8613" lon="4.21357">
        <ele>1127</ele>
      </trkpt>
      <trkpt lat="44.86116" lon="4.21423">
        <ele>1119</ele>
        <time>2022-05-11T18:53:28Z</time>
      </trkpt>
      <trkpt lat="44.86089" lon="4.21428">
        <ele>1111</ele>
        <time>2022-05-11T18:53:28Z</time>
      </trkpt>
      <trkpt lat="44.86085" lon="4.21481">
        <ele>1107</ele>
      </trkpt>
      <trkpt lat="44.86081" lon="4.21534">
        <ele>1104</ele>
      </trkpt>
      <trkpt lat="44.86076" lon="4.21587">
        <ele>1102</ele>
      </trkpt>
      <trkpt lat="44.86072" lon="4.2164">
        <ele>1099</ele>
        <time>2022-05-11T18:53:28Z</time>
      </trkpt>
      <trkpt lat="44.86078" lon="4.21692">
        <ele>1097</ele>
      </trkpt>
      <trkpt lat="44.86083" lon="4.21744">
        <ele>1093</ele>
        <time>2022-05-11T18:53:28Z</time>
      </trkpt>
      <trkpt lat="44.86056" lon="4.21807">
        <ele>1088</ele>
        <time>2022-05-11T18:53:28Z</time>
      </trkpt>
      <trkpt lat="44.86065" lon="4.21901">
        <ele>1082</ele>
        <time>2022-05-11T18:53:28Z</time>
      </trkpt>
      <trkpt lat="44.86063" lon="4.21965">
        <ele>1078</ele>
      </trkpt>
      <trkpt lat="44.8606" lon="4.22029">
        <ele>1072</ele>
        <time>2022-05-11T18:53:28Z</time>
      </trkpt>
      <trkpt lat="44.86031" lon="4.22091">
        <ele>1067</ele>
        <time>2022-05-11T18:53:28Z</time>
      </trkpt>
      <trkpt lat="44.86015" lon="4.22154">
        <ele>1062</ele>
      </trkpt>
      <trkpt lat="44.85999" lon="4.22217">
        <ele>1055</ele>
        <time>2022-05-11T18:53:28Z</time>
      </trkpt>
      <trkpt lat="44.85961" lon="4.22284">
        <ele>1046</ele>
        <time>2022-05-11T18:53:28Z</time>
      </trkpt>
      <trkpt lat="44.85997" lon="4.22499">
        <ele>987</ele>
        <time>2022-05-11T18:53:28Z</time>
      </trkpt>
      <trkpt lat="44.85994" lon="4.22555">
        <ele>984</ele>
      </trkpt>
      <trkpt lat="44.8599" lon="4.22611">
        <ele>981</ele>
        <time>2022-05-11T18:53:28Z</time>
      </trkpt>
      <trkpt lat="44.85978" lon="4.22658">
        <ele>978</ele>
      </trkpt>
      <trkpt lat="44.85966" lon="4.22705">
        <ele>974</ele>
        <time>2022-05-11T18:53:28Z</time>
      </trkpt>
      <trkpt lat="44.85966" lon="4.22802">
        <ele>969</ele>
        <time>2022-05-11T18:53:28Z</time>
      </trkpt>
      <trkpt lat="44.85954" lon="4.22825">
        <ele>965</ele>
        <time>2022-05-11T18:53:28Z</time>
      </trkpt>
      <trkpt lat="44.85939" lon="4.22917">
        <ele>963</ele>
      </trkpt>
      <trkpt lat="44.85923" lon="4.23008">
        <ele>962</ele>
        <time>2022-05-11T18:53:28Z</time>
      </trkpt>
      <trkpt lat="44.85889" lon="4.23039">
        <ele>963</ele>
        <time>2022-05-11T18:53:28Z</time>
      </trkpt>
      <trkpt lat="44.85893" lon="4.23099">
        <ele>963</ele>
        <time>2022-05-11T18:53:28Z</time>
      </trkpt>
      <trkpt lat="44.8585" lon="4.23149">
        <ele>966</ele>
        <time>2022-05-11T18:53:28Z</time>
      </trkpt>
      <trkpt lat="44.85844" lon="4.23097">
        <ele>969</ele>
        <time>2022-05-11T18:53:28Z</time>
      </trkpt>
      <trkpt lat="44.85823" lon="4.2305">
        <ele>971</ele>
        <time>2022-05-11T18:53:28Z</time>
      </trkpt>
      <trkpt lat="44.85834" lon="4.22994">
        <ele>973</ele>
      </trkpt>
      <trkpt lat="44.85844" lon="4.22938">
        <ele>975</ele>
        <time>2022-05-11T18:53:28Z</time>
      </trkpt>
      <trkpt lat="44.85842" lon="4.22888">
        <ele>977</ele>
      </trkpt>
      <trkpt lat="44.8584" lon="4.22839">
        <ele>979</ele>
      </trkpt>
      <trkpt lat="44.85835" lon="4.22739">
        <ele>983</ele>
        <time>2022-05-11T18:53:28Z</time>
      </trkpt>
      <trkpt lat="44.85821" lon="4.22668">
        <ele>987</ele>
      </trkpt>
      <trkpt lat="44.85807" lon="4.22596">
        <ele>992</ele>
        <time>2022-05-11T18:53:28Z</time>
      </trkpt>
      <trkpt lat="44.85785" lon="4.22554">
        <ele>996</ele>
      </trkpt>
      <trkpt lat="44.85763" lon="4.22512">
        <ele>1000</ele>
        <time>2022-05-11T18:53:28Z</time>
      </trkpt>
      <trkpt lat="44.85729" lon="4.22493">
        <ele>1004</ele>
      </trkpt>
      <trkpt lat="44.85695" lon="4.22473">
        <ele>1007</ele>
        <time>2022-05-11T18:53:28Z</time>
      </trkpt>
      <trkpt lat="44.8563" lon="4.22463">
        <ele>1012</ele>
        <time>2022-05-11T18:53:28Z</time>
      </trkpt>
      <trkpt lat="44.85591" lon="4.22444">
        <ele>1018</ele>
        <time>2022-05-11T18:53:28Z</time>
      </trkpt>
      <trkpt lat="44.85561" lon="4.2241">
        <ele>1022</ele>
      </trkpt>
      <trkpt lat="44.8553" lon="4.22376">
        <ele>1026</ele>
        <time>2022-05-11T18:53:28Z</time>
      </trkpt>
      <trkpt lat="44.85497" lon="4.22363">
        <ele>1030</ele>
        <time>2022-05-11T18:53:28Z</time>
      </trkpt>
      <trkpt lat="44.85515" lon="4.22395">
        <ele>1034</ele>
        <time>2022-05-11T18:53:28Z</time>
      </trkpt>
      <trkpt lat="44.85546" lon="4.22423">
        <ele>1037</ele>
        <time>2022-05-11T18:53:28Z</time>
      </trkpt>
      <trkpt lat="44.85589" lon="4.22502">
        <ele>1040</ele>
        <time>2022-05-11T18:53:28Z</time>
      </trkpt>
      <trkpt lat="44.85636" lon="4.22567">
        <ele>1045</ele>
        <time>2022-05-11T18:53:28Z</time>
      </trkpt>
      <trkpt lat="44.85643" lon="4.22622">
        <ele>1048</ele>
        <time>2022-05-11T18:53:28Z</time>
      </trkpt>
      <trkpt lat="44.85623" lon="4.22676">
        <ele>1052</ele>
      </trkpt>
      <trkpt lat="44.85604" lon="4.2273">
        <ele>1055</ele>
      </trkpt>
      <trkpt lat="44.85584" lon="4.22784">
        <ele>1059</ele>
      </trkpt>
      <trkpt lat="44.85564" lon="4.22838">
        <ele>1061</ele>
        <time>2022-05-11T18:53:28Z</time>
      </trkpt>
      <trkpt lat="44.8556" lon="4.22776">
        <ele>1065</ele>
        <time>2022-05-11T18:53:28Z</time>
      </trkpt>
      <trkpt lat="44.85575" lon="4.22727">
        <ele>1068</ele>
      </trkpt>
      <trkpt lat="44.85589" lon="4.22677">
        <ele>1071</ele>
        <time>2022-05-11T18:53:28Z</time>
      </trkpt>
      <trkpt lat="44.85577" lon="4.22632">
        <ele>1074</ele>
        <time>2022-05-11T18:53:28Z</time>
      </trkpt>
      <trkpt lat="44.85519" lon="4.22588">
        <ele>1079</ele>
        <time>2022-05-11T18:53:28Z</time>
      </trkpt>
      <trkpt lat="44.85472" lon="4.22525">
        <ele>1084</ele>
        <time>2022-05-11T18:53:28Z</time>
      </trkpt>
      <trkpt lat="44.85428" lon="4.22507">
        <ele>1089</ele>
      </trkpt>
      <trkpt lat="44.85384" lon="4.22489">
        <ele>1094</ele>
        <time>2022-05-11T18:53:28Z</time>
      </trkpt>
      <trkpt lat="44.85335" lon="4.22455">
        <ele>1100</ele>
        <time>2022-05-11T18:53:28Z</time>
      </trkpt>
      <trkpt lat="44.85297" lon="4.22454">
        <ele>1106</ele>
      </trkpt>
      <trkpt lat="44.85258" lon="4.22452">
        <ele>1110</ele>
        <time>2022-05-11T18:53:28Z</time>
      </trkpt>
      <trkpt lat="44.85223" lon="4.2248">
        <ele>1113</ele>
      </trkpt>
      <trkpt lat="44.85188" lon="4.22507">
        <ele>1118</ele>
        <time>2022-05-11T18:53:28Z</time>
      </trkpt>
      <trkpt lat="44.85127" lon="4.22499">
        <ele>1123</ele>
        <time>2022-05-11T18:53:28Z</time>
      </trkpt>
      <trkpt lat="44.85062" lon="4.22529">
        <ele>1130</ele>
      </trkpt>
      <trkpt lat="44.84996" lon="4.22559">
        <ele>1136</ele>
        <time>2022-05-11T18:53:28Z</time>
      </trkpt>
      <trkpt lat="44.84967" lon="4.22551">
        <ele>1139</ele>
        <time>2022-05-11T18:53:28Z</time>
      </trkpt>
      <trkpt lat="44.85005" lon="4.22512">
        <ele>1142</ele>
        <time>2022-05-11T18:53:28Z</time>
      </trkpt>
      <trkpt lat="44.85039" lon="4.22439">
        <ele>1145</ele>
      </trkpt>
      <trkpt lat="44.85073" lon="4.22366">
        <ele>1147</ele>
        <time>2022-05-11T18:53:28Z</time>
      </trkpt>
      <trkpt lat="44.85039" lon="4.2231">
        <ele>1149</ele>
      </trkpt>
      <trkpt lat="44.85005" lon="4.22254">
        <ele>1151</ele>
        <time>2022-05-11T18:53:28Z</time>
      </trkpt>
      <trkpt lat="44.8499" lon="4.22209">
        <ele>1152</ele>
        <time>2022-05-11T18:53:28Z</time>
      </trkpt>
      <trkpt lat="44.84972" lon="4.22196">
        <ele>1153</ele>
        <time>2022-05-11T18:53:28Z</time>
      </trkpt>
      <trkpt lat="44.85028" lon="4.22178">
        <ele>1155</ele>
        <time>2022-05-11T18:53:28Z</time>
      </trkpt>
      <trkpt lat="44.85051" lon="4.22149">
        <ele>1156</ele>
        <time>2022-05-11T18:53:28Z</time>
      </trkpt>
      <trkpt lat="44.85078" lon="4.22131">
        <ele>1157</ele>
        <time>2022-05-11T18:53:28Z</time>
      </trkpt>
      <trkpt lat="44.85104" lon="4.22083">
        <ele>1158</ele>
      </trkpt>
      <trkpt lat="44.8513" lon="4.22034">
        <ele>1159</ele>
        <time>2022-05-11T18:53:28Z</time>
      </trkpt>
      <trkpt lat="44.8515" lon="4.21943">
        <ele>1161</ele>
        <time>2022-05-11T18:53:28Z</time>
      </trkpt>
      <trkpt lat="44.85161" lon="4.2192">
        <ele>1162</ele>
        <time>2022-05-11T18:53:28Z</time>
      </trkpt>
      <trkpt lat="44.85222" lon="4.21931">
        <ele>1164</ele>
      </trkpt>
      <trkpt lat="44.85283" lon="4.21941">
        <ele>1166</ele>
        <time>2022-05-11T18:53:28Z</time>
      </trkpt>
      <trkpt lat="44.85357" lon="4.21904">
        <ele>1175</ele>
        <time>2022-05-11T18:53:28Z</time>
      </trkpt>
      <trkpt lat="44.8538" lon="4.21868">
        <ele>1175</ele>
      </trkpt>
      <trkpt lat="44.85402" lon="4.21831">
        <ele>1176</ele>
        <time>2022-05-11T18:53:28Z</time>
      </trkpt>
      <trkpt lat="44.85433" lon="4.21808">
        <ele>1177</ele>
      </trkpt>
      <trkpt lat="44.85463" lon="4.21784">
        <ele>1177</ele>
        <time>2022-05-11T18:53:28Z</time>
      </trkpt>
      <trkpt lat="44.85463" lon="4.21702">
        <ele>1178</ele>
      </trkpt>
      <trkpt lat="44.85463" lon="4.21619">
        <ele>1179</ele>
        <time>2022-05-11T18:53:28Z</time>
      </trkpt>
      <trkpt lat="44.85468" lon="4.21571">
        <ele>1181</ele>
      </trkpt>
      <trkpt lat="44.85473" lon="4.21523">
        <ele>1182</ele>
      </trkpt>
      <trkpt lat="44.85477" lon="4.21474">
        <ele>1184</ele>
      </trkpt>
      <trkpt lat="44.85482" lon="4.21426">
        <ele>1184</ele>
        <time>2022-05-11T18:53:28Z</time>
      </trkpt>
      <trkpt lat="44.85477" lon="4.21344">
        <ele>1186</ele>
      </trkpt>
      <trkpt lat="44.85472" lon="4.21262">
        <ele>1187</ele>
        <time>2022-05-11T18:53:28Z</time>
      </trkpt>
      <trkpt lat="44.8545" lon="4.21197">
        <ele>1189</ele>
      </trkpt>
      <trkpt lat="44.85427" lon="4.21131">
        <ele>1190</ele>
        <time>2022-05-11T18:53:28Z</time>
      </trkpt>
      <trkpt lat="44.85407" lon="4.21118">
        <ele>1193</ele>
        <time>2022-05-11T18:53:28Z</time>
      </trkpt>
      <trkpt lat="44.85425" lon="4.21181">
        <ele>1195</ele>
      </trkpt>
      <trkpt lat="44.85443" lon="4.21244">
        <ele>1198</ele>
        <time>2022-05-11T18:53:28Z</time>
      </trkpt>
      <trkpt lat="44.85441" lon="4.21298">
        <ele>1201</ele>
      </trkpt>
      <trkpt lat="44.85438" lon="4.21351">
        <ele>1203</ele>
        <time>2022-05-11T18:53:28Z</time>
      </trkpt>
      <trkpt lat="44.85426" lon="4.21414">
        <ele>1205</ele>
      </trkpt>
      <trkpt lat="44.85414" lon="4.21476">
        <ele>1208</ele>
        <time>2022-05-11T18:53:28Z</time>
      </trkpt>
      <trkpt lat="44.85412" lon="4.21536">
        <ele>1211</ele>
      </trkpt>
      <trkpt lat="44.85409" lon="4.21596">
        <ele>1211</ele>
        <time>2022-05-11T18:53:28Z</time>
      </trkpt>
      <trkpt lat="44.85384" lon="4.21633">
        <ele>1214</ele>
      </trkpt>
      <trkpt lat="44.8536" lon="4.21671">
        <ele>1218</ele>
      </trkpt>
      <trkpt lat="44.85335" lon="4.21708">
        <ele>1220</ele>
      </trkpt>
      <trkpt lat="44.8531" lon="4.21745">
        <ele>1223</ele>
        <time>2022-05-11T18:53:28Z</time>
      </trkpt>
      <trkpt lat="44.85265" lon="4.21767">
        <ele>1226</ele>
      </trkpt>
      <trkpt lat="44.8522" lon="4.21789">
        <ele>1229</ele>
        <time>2022-05-11T18:53:28Z</time>
      </trkpt>
      <trkpt lat="44.85204" lon="4.21773">
        <ele>1232</ele>
        <time>2022-05-11T18:53:28Z</time>
      </trkpt>
      <trkpt lat="44.85157" lon="4.21703">
        <ele>1237</ele>
        <time>2022-05-11T18:53:28Z</time>
      </trkpt>
      <trkpt lat="44.85117" lon="4.21698">
        <ele>1240</ele>
      </trkpt>
      <trkpt lat="44.85076" lon="4.21693">
        <ele>1242</ele>
        <time>2022-05-11T18:53:28Z</time>
      </trkpt>
      <trkpt lat="44.85052" lon="4.2177">
        <ele>1244</ele>
      </trkpt>
      <trkpt lat="44.85028" lon="4.21847">
        <ele>1248</ele>
        <time>2022-05-11T18:53:28Z</time>
      </trkpt>
      <trkpt lat="44.84988" lon="4.21888">
        <ele>1251</ele>
        <time>2022-05-11T18:53:28Z</time>
      </trkpt>
      <trkpt lat="44.84969" lon="4.21922">
        <ele>1255</ele>
        <time>2022-05-11T18:53:28Z</time>
      </trkpt>
      <trkpt lat="44.8492" lon="4.2187">
        <ele>1258</ele>
        <time>2022-05-11T18:53:28Z</time>
      </trkpt>
      <trkpt lat="44.84871" lon="4.21859">
        <ele>1261</ele>
      </trkpt>
      <trkpt lat="44.84821" lon="4.21847">
        <ele>1264</ele>
        <time>2022-05-11T18:53:28Z</time>
      </trkpt>
      <trkpt lat="44.84802" lon="4.2193">
        <ele>1266</ele>
        <time>2022-05-11T18:53:28Z</time>
      </trkpt>
      <trkpt lat="44.84774" lon="4.21996">
        <ele>1268</ele>
      </trkpt>
      <trkpt lat="44.84745" lon="4.22061">
        <ele>1271</ele>
        <time>2022-05-11T18:53:28Z</time>
      </trkpt>
      <trkpt lat="44.8475" lon="4.22136">
        <ele>1275</ele>
        <time>2022-05-11T18:53:28Z</time>
      </trkpt>
      <trkpt lat="44.84781" lon="4.22209">
        <ele>1278</ele>
        <time>2022-05-11T18:53:28Z</time>
      </trkpt>
      <trkpt lat="44.84782" lon="4.22267">
        <ele>1282</ele>
      </trkpt>
      <trkpt lat="44.84782" lon="4.22324">
        <ele>1284</ele>
        <time>2022-05-11T18:53:28Z</time>
      </trkpt>
      <trkpt lat="44.84753" lon="4.22356">
        <ele>1286</ele>
      </trkpt>
      <trkpt lat="44.84723" lon="4.22387">
        <ele>1288</ele>
        <time>2022-05-11T18:53:28Z</time>
      </trkpt>
      <trkpt lat="44.84666" lon="4.224">
        <ele>1290</ele>
        <time>2022-05-11T18:53:28Z</time>
      </trkpt>
      <trkpt lat="44.84671" lon="4.2247">
        <ele>1291</ele>
        <time>2022-05-11T18:53:28Z</time>
      </trkpt>
      <trkpt lat="44.84633" lon="4.2253">
        <ele>1293</ele>
        <time>2022-05-11T18:53:28Z</time>
      </trkpt>
      <trkpt lat="44.8463" lon="4.22587">
        <ele>1294</ele>
      </trkpt>
      <trkpt lat="44.84626" lon="4.22643">
        <ele>1296</ele>
        <time>2022-05-11T18:53:28Z</time>
      </trkpt>
      <trkpt lat="44.84649" lon="4.2269">
        <ele>1298</ele>
      </trkpt>
      <trkpt lat="44.84671" lon="4.22737">
        <ele>1299</ele>
      </trkpt>
      <trkpt lat="44.84694" lon="4.22784">
        <ele>1300</ele>
      </trkpt>
      <trkpt lat="44.84716" lon="4.22831">
        <ele>1301</ele>
        <time>2022-05-11T18:53:28Z</time>
      </trkpt>
      <trkpt lat="44.84702" lon="4.22875">
        <ele>1303</ele>
      </trkpt>
      <trkpt lat="44.84687" lon="4.22919">
        <ele>1306</ele>
        <time>2022-05-11T18:53:28Z</time>
      </trkpt>
      <trkpt lat="44.84705" lon="4.22992">
        <ele>1310</ele>
        <time>2022-05-11T18:53:28Z</time>
      </trkpt>
      <trkpt lat="44.84763" lon="4.23037">
        <ele>1314</ele>
        <time>2022-05-11T18:53:28Z</time>
      </trkpt>
      <trkpt lat="44.84798" lon="4.23048">
        <ele>1318</ele>
      </trkpt>
      <trkpt lat="44.84833" lon="4.23058">
        <ele>1320</ele>
        <time>2022-05-11T18:53:28Z</time>
      </trkpt>
      <trkpt lat="44.84887" lon="4.23092">
        <ele>1324</ele>
        <time>2022-05-11T18:53:28Z</time>
      </trkpt>
      <trkpt lat="44.8493" lon="4.23071">
        <ele>1328</ele>
        <time>2022-05-11T18:53:28Z</time>
      </trkpt>
      <trkpt lat="44.8489" lon="4.23128">
        <ele>1332</ele>
        <time>2022-05-11T18:53:28Z</time>
      </trkpt>
      <trkpt lat="44.84828" lon="4.23109">
        <ele>1337</ele>
      </trkpt>
      <trkpt lat="44.84766" lon="4.23089">
        <ele>1340</ele>
        <time>2022-05-11T18:53:28Z</time>
      </trkpt>
      <trkpt lat="44.84746" lon="4.23071">
        <ele>1342</ele>
        <time>2022-05-11T18:53:28Z</time>
      </trkpt>
      <trkpt lat="44.84694" lon="4.23078">
        <ele>1346</ele>
        <time>2022-05-11T18:53:28Z</time>
      </trkpt>
      <trkpt lat="44.84658" lon="4.23026">
        <ele>1349</ele>
        <time>2022-05-11T18:53:28Z</time>
      </trkpt>
      <trkpt lat="44.84621" lon="4.22998">
        <ele>1352</ele>
        <time>2022-05-11T18:53:28Z</time>
      </trkpt>
      <trkpt lat="44.84618" lon="4.22907">
        <ele>1354</ele>
      </trkpt>
      <trkpt lat="44.84615" lon="4.22815">
        <ele>1357</ele>
        <time>2022-05-11T18:53:28Z</time>
      </trkpt>
      <trkpt lat="44.84585" lon="4.22763">
        <ele>1357</ele>
        <time>2022-05-11T18:53:28Z</time>
      </trkpt>
      <trkpt lat="44.84536" lon="4.22727">
        <ele>1361</ele>
      </trkpt>
      <trkpt lat="44.84486" lon="4.2269">
        <ele>1367</ele>
        <time>2022-05-11T18:53:28Z</time>
      </trkpt>
      <trkpt lat="44.84447" lon="4.22684">
        <ele>1372</ele>
        <time>2022-05-11T18:53:28Z</time>
      </trkpt>
      <trkpt lat="44.84422" lon="4.22703">
        <ele>1375</ele>
        <time>2022-05-11T18:53:28Z</time>
      </trkpt>
      <trkpt lat="44.84388" lon="4.22695">
        <ele>1391</ele>
        <time>2022-05-11T18:53:28Z</time>
      </trkpt>
      <trkpt lat="44.84345" lon="4.22703">
        <ele>1392</ele>
        <time>2022-05-11T18:53:28Z</time>
      </trkpt>
      <trkpt lat="44.84322" lon="4.227">
        <ele>1393</ele>
        <time>2022-05-11T18:53:28Z</time>
      </trkpt>
      <trkpt lat="44.84261" lon="4.22643">
        <ele>1394</ele>
        <time>2022-05-11T18:53:28Z</time>
      </trkpt>
      <trkpt lat="44.84224" lon="4.22596">
        <ele>1397</ele>
      </trkpt>
      <trkpt lat="44.84187" lon="4.22549">
        <ele>1400</ele>
        <time>2022-05-11T18:53:28Z</time>
      </trkpt>
      <trkpt lat="44.84174" lon="4.22492">
        <ele>1403</ele>
      </trkpt>
      <trkpt lat="44.8416" lon="4.22434">
        <ele>1405</ele>
      </trkpt>
      <trkpt lat="44.84147" lon="4.22377">
        <ele>1408</ele>
      </trkpt>
      <trkpt lat="44.84133" lon="4.22319">
        <ele>1410</ele>
        <time>2022-05-11T18:53:28Z</time>
      </trkpt>
      <trkpt lat="44.84133" lon="4.22256">
        <ele>1411</ele>
        <time>2022-05-11T18:53:28Z</time>
      </trkpt>
      <trkpt lat="44.8415" lon="4.22148">
        <ele>1413</ele>
      </trkpt>
      <trkpt lat="44.84167" lon="4.2204">
        <ele>1413</ele>
      </trkpt>
      <trkpt lat="44.84184" lon="4.21931">
        <ele>1414</ele>
      </trkpt>
      <trkpt lat="44.84201" lon="4.21823">
        <ele>1414</ele>
        <time>2022-05-11T18:53:28Z</time>
      </trkpt>
      <trkpt lat="44.84239" lon="4.21748">
        <ele>1415</ele>
      </trkpt>
      <trkpt lat="44.84277" lon="4.21672">
        <ele>1415</ele>
        <time>2022-05-11T18:53:28Z</time>
      </trkpt>
      <trkpt lat="44.84325" lon="4.21627">
        <ele>1415</ele>
        <time>2022-05-11T18:53:28Z</time>
      </trkpt>
      <trkpt lat="44.84295" lon="4.21729">
        <ele>1417</ele>
        <time>2022-05-11T18:53:28Z</time>
      </trkpt>
      <trkpt lat="44.84277" lon="4.21753">
        <ele>1418</ele>
        <time>2022-05-11T18:53:28Z</time>
      </trkpt>
      <trkpt lat="44.84268" lon="4.21813">
        <ele>1420</ele>
        <time>2022-05-11T18:53:28Z</time>
      </trkpt>
      <trkpt lat="44.84244" lon="4.21878">
        <ele>1422</ele>
        <time>2022-05-11T18:53:28Z</time>
      </trkpt>
      <trkpt lat="44.84252" lon="4.2192">
        <ele>1424</ele>
        <time>2022-05-11T18:53:28Z</time>
      </trkpt>
      <trkpt lat="44.84284" lon="4.2199">
        <ele>1434</ele>
        <time>2022-05-11T18:53:28Z</time>
      </trkpt>
      <trkpt lat="44.84302" lon="4.21967">
        <ele>1443</ele>
        <time>2022-05-11T18:53:28Z</time>
      </trkpt>
      <trkpt lat="44.84309" lon="4.21993">
        <ele>1451</ele>
        <time>2022-05-11T18:53:28Z</time>
      </trkpt>
      <trkpt lat="44.8432" lon="4.21998">
        <ele>1459</ele>
        <time>2022-05-11T18:53:28Z</time>
      </trkpt>
      <trkpt lat="44.8435" lon="4.2205">
        <ele>1473</ele>
        <time>2022-05-11T18:53:28Z</time>
      </trkpt>
      <trkpt lat="44.84388" lon="4.22034">
        <ele>1489</ele>
        <time>2022-05-11T18:53:28Z</time>
      </trkpt>
      <trkpt lat="44.84397" lon="4.22019">
        <ele>1501</ele>
        <time>2022-05-11T18:53:28Z</time>
      </trkpt>
      <trkpt lat="44.84394" lon="4.21982">
        <ele>1509</ele>
        <time>2022-05-11T18:53:28Z</time>
      </trkpt>
      <trkpt lat="44.8437" lon="4.21961">
        <ele>1511</ele>
        <time>2022-05-11T18:53:28Z</time>
      </trkpt>
      <trkpt lat="44.84356" lon="4.21935">
        <ele>1510</ele>
        <time>2022-05-11T18:53:28Z</time>
      </trkpt>
      <trkpt lat="44.84345" lon="4.21888">
        <ele>1504</ele>
        <time>2022-05-11T18:53:28Z</time>
      </trkpt>
      <trkpt lat="44.84309" lon="4.21891">
        <ele>1494</ele>
        <time>2022-05-11T18:53:28Z</time>
      </trkpt>
      <trkpt lat="44.84309" lon="4.21836">
        <ele>1481</ele>
        <time>2022-05-11T18:53:28Z</time>
      </trkpt>
      <trkpt lat="44.84289" lon="4.2181">
        <ele>1470</ele>
        <time>2022-05-11T18:53:28Z</time>
      </trkpt>
      <trkpt lat="44.8432" lon="4.21768">
        <ele>1461</ele>
        <time>2022-05-11T18:53:28Z</time>
      </trkpt>
      <trkpt lat="44.84329" lon="4.21659">
        <ele>1449</ele>
        <time>2022-05-11T18:53:28Z</time>
      </trkpt>
      <trkpt lat="44.84354" lon="4.21586">
        <ele>1413</ele>
        <time>2022-05-11T18:53:28Z</time>
      </trkpt>
    </trkseg>
  </trk>
</gpx>